     2.11           OBSERVATION DATA    G (GPS)             RINEX VERSION / TYPE
teqc 2010Oct21 OPUS Account 20111028 15:16:51UTC            PGM / RUN BY / DATE
C 1519                                                      MARKER NAME
2056                                                        MARKER NUMBER
CSMIDDLETON NGS                                             OBSERVER / AGENCY
4624K01590 TRIMBLE NETR5 4.41                               REC # / TYPE / VERS
12236910 TRM41249.00 NONE                                   ANT # / TYPE
  -728102.7274 -5588937.5428  2975648.0074                  APPROX POSITION XYZ
        2.0010        0.0000        0.0000                  ANTENNA: DELTA H/E/N
     1     1                                                WAVELENGTH FACT L1/2
     5    L1    L2    C1    P1    P2                        # / TYPES OF OBSERV
    15                                                      LEAP SECONDS
  2011     8    23    16     2    0.0000000     GPS         TIME OF FIRST OBS
                                                            END OF HEADER
 11  8 23 16  2  0.0000000  0  6G07G23G03G13G06G19
 116168342.69916  90520803.27916  22106101.820                    22106108.234
 107620690.40115                  20479540.250
 111258229.64715                  21171738.703
 105246586.27215                  20027767.445
 120633140.67517                  22955724.531
 110429459.84116  86048976.16453  21014032.508                    21014040.246
 11  8 23 16  2 30.0000000  0  7G08G07G23G03G13G06G19
 126117689.59714                  23999405.625
 116112868.505 6  90477576.672 6  22095544.555                    22095552.160
 107676289.172 5                  20490122.016
 111307893.288 5                  21181191.281
 105246144.829 5                  20027681.656
 120703763.037 7  94054906.78653  22969163.039                    22969172.316
 110404665.382 6  86029655.78743  21009314.469                    21009321.859
 11  8 23 16  3  0.0000000  0  7G08G07G23G03G13G06G19
 126050535.44014                  23986627.141
 116057424.669 6  90434373.758 6  22084994.063                    22085001.582
 107732411.948 5                  20500800.391
 111358117.247 5                  21190747.641
 105246285.174 5                  20027710.625
 120774790.735 7  94110253.05443  22982678.328                    22982688.688
 110380457.218 6  86010792.27143  21004707.281                    21004715.047
 11  8 23 16  3 30.0000000  0  7G08G07G23G03G13G06G19
 125983311.78715                  23973835.891
 116002013.844 7  90391196.486 6  22074449.891                    22074456.801
 107789059.157 5                  20511580.617
 111408901.822 5                  21200410.000
 105247010.702 5                  20027848.773
 120846223.381 7  94165914.81843  22996272.586                    22996281.457
 110356838.166 6  85992387.83643  21000213.508                    21000220.508
 11  8 23 16  4  0.0000000  0  7G07G23G03G16G28G11G19
 115946622.66116  90348016.23315  22063907.297
 107846216.51815                  20522456.305
 111460248.28516  86852168.31052  21210180.266                    21210187.801
 123393610.05916  96150823.66853  23481005.422                    23481013.527
 128788407.36916                  24507620.594
 129098057.99917 100596000.54453  24566559.836                    24566571.965
 110333797.38715                  20995829.633
 11  8 23 16  4 30.0000000  0 11G08G07G23G03G10G13G06G16G28G11G19
 125848626.46117  98063922.97453  23948204.789                    23948214.063
 115891273.559 7  90304887.80917  22053374.531                    22053382.395
 107903904.770 8  84080997.42756  20533433.828                    20533439.383
 111512148.86717  86892603.70055  21220053.664                    21220062.215
 126047013.94617  98218457.32953  23985943.047                    23985952.488
 105250199.21017  82013192.23856  20028453.211                    20028460.270
 120990296.26017  94278109.11255  23023685.047                    23023693.160
 123483271.49316  96220674.45953  23498065.484                    23498072.672
 128718188.15116                  24494259.031
 129023265.704 6 100537711.47352  24552325.914                    24552336.977
 110311360.63617  85956944.02955  20991558.695                    20991564.773
 11  8 23 16  5  0.0000000  0 11G08G07G23G03G10G13G06G16G28G11G19
 125781193.735 7  98011378.06643  23935372.391                    23935381.688
 115835968.190 7  90261792.736 7  22042850.266                    22042858.402
 107962118.008 8  84126358.34346  20544511.727                    20544517.203
 111564605.718 7  86933479.13145  21230035.992                    21230044.141
 126068201.368 7  98234966.98944  23989974.688                    23989983.910
 105252685.353 7  82015129.48146  20028926.344                    20028933.047
 121062931.846 7  94334708.22944  23037506.500                    23037515.621
 123572916.172 6  96290527.39443  23515124.125                    23515130.555
 128648195.755 6                  24480940.711
 128948344.381 6 100479331.31243  24538069.539                    24538081.379
 110289518.669 7  85939924.34545  20987402.133                    20987408.000
 11  8 23 16  5 30.0000000  0 11G08G07G23G03G10G13G06G16G28G11G19
 125713692.689 7  97958779.96443  23922527.633                    23922536.246
 115780700.599 7  90218727.121 7  22032333.164                    22032341.125
 108020851.548 8  84172124.70746  20555688.063                    20555693.504
 111617616.810 7  86974786.43345  21240123.594                    21240132.129
 126089806.934 7  98251802.47043  23994086.344                    23994095.965
 105255760.384 8  82017525.59546  20029511.555                    20029518.504
 121135964.639 7  94391616.86844  23051404.281                    23051413.664
 123662549.822 7  96360371.74043  23532180.750                    23532187.875
 128578423.914 6                  24467662.633
 128873299.738 6 100420855.02543  24523789.602                    24523800.207
 110268272.371 7  85923368.80645  20983359.219                    20983365.309
 11  8 23 16  6  0.0000000  0 11G08G07G23G03G10G13G06G16G28G11G19
 125646122.011 6  97906127.56543  23909669.477                    23909678.098
 115725470.466 8  90175690.679 7  22021823.750                    22021831.207
 108080102.455 8  84218294.20546  20566963.320                    20566968.910
 111671179.711 7  87016523.71945  21250316.094                    21250324.773
 126111828.073 7  98268961.79844  23998277.398                    23998286.008
 105259424.004 8  82020380.34146  20030208.898                    20030215.789
 121209391.686 7  94448832.70444  23065377.156                    23065386.457
 123752170.153 7  96430205.74743  23549235.141                    23549242.473
 128508871.997 6                  24454427.750
 128798133.173 6 100362283.76343  24509485.492                    24509496.664
 110247621.815 7  85907277.48145  20979429.266                    20979435.242
 11  8 23 16  6 30.0000000  0 11G08G07G23G03G10G13G06G16G28G11G19
 125578481.566 6  97853420.80843  23896796.906                    23896805.375
 115670278.302 8  90132683.839 7  22011320.633                    22011328.289
 108139868.709 8  84264865.28346  20578336.289                    20578341.691
 111725291.693 7  87058688.88145  21260613.305                    21260621.754
 126134262.882 7  98286443.45443  24002546.219                    24002555.617
 105263676.602 8  82023694.02946  20031017.875                    20031024.711
 121283210.098 7  94506353.50644  23079424.094                    23079433.277
 123841775.031 7  96500027.68943  23566285.930                    23566293.559
 128439540.309 6                  24441233.867
 128722846.624 6 100303618.99843  24495159.203                    24495169.977
 110227568.147 7  85891651.25445  20975613.148                    20975619.180
 11  8 23 16  7  0.0000000  0 11G08G07G23G03G10G13G06G16G28G11G19
 125510772.040 6  97800660.24043  23883912.203                    23883921.270
 115615125.104 8  90089707.360 7  22000825.602                    22000832.863
 108200149.182 8  84311837.03546  20589807.711                    20589812.961
 111779951.173 7  87101280.65145  21271015.031                    21271022.723
 126157109.407 7  98304245.95844  24006893.992                    24006903.320
 105268518.823 8  82027467.18246  20031939.063                    20031945.977
 121357418.090 7  94564177.87545  23093546.063                    23093554.324
 123931363.057 7  96569836.47944  23583334.859                    23583342.266
 128370428.985 6                  24428083.102
 128647442.404 6 100244862.56743  24480809.883                    24480821.750
 110208112.544 7  85876491.06345  20971910.984                    20971916.676
 11  8 23 16  7 30.0000000  0 11G08G07G23G03G10G13G06G16G28G11G19
 125442993.479 6  97747845.83843  23871013.898                    23871023.285
 115560012.135 8  90046762.215 7  21990337.727                    21990344.934
 108260942.807 8  84359208.66046  20601375.961                    20601381.516
 111835156.479 7  87144297.74845  21281520.031                    21281528.328
 126180366.074 7  98322368.01843  24011318.828                    24011328.543
 105273951.585 8  82031700.48846  20032973.219                    20032980.125
 121432013.363 7  94622304.04144  23107740.367                    23107749.617
 124020933.174 6  96639631.31144  23600379.594                    23600387.168
 128301538.853 6                  24414972.977
 128571923.567 6 100186016.78943  24466438.148                    24466451.105
 110189256.320 7  85861797.92045  20968322.734                    20968328.453
 11  8 23 16  8  0.0000000  0 11G08G07G23G03G10G13G06G16G28G11G19
 125375146.644 6  97694978.24343  23858102.578                    23858113.090
 115504940.538 7  90003849.313 7  21979857.797                    21979865.629
 108322248.304 8  84406979.14246  20613042.016                    20613047.965
 111890905.793 7  87187738.75045  21292129.016                    21292137.391
 126204031.123 6  98340808.32244  24015822.430                    24015832.684
 105279975.491 7  82036394.43046  20034119.367                    20034126.246
 121506994.058 7  94680730.52445  23122009.109                    23122018.313
 124110483.870 7  96709411.00044  23617420.250                    23617427.965
 128232870.332 6                  24401906.195
 128496292.560 6 100127083.58044  24452047.445                    24452058.703
 110171000.588 7  85847572.68645  20964848.633                    20964854.613
 11  8 23 16  8 30.0000000  0 11G08G07G23G03G10G13G06G16G28G11G19
 125307231.533 6  97642057.47143  23845180.180                    23845189.910
 115449911.175 7  89960969.323 7  21969385.672                    21969393.406
 108384063.913 8  84455147.11146  20624805.297                    20624810.781
 111947197.488 7  87231602.37945  21302840.641                    21302849.109
 126228102.566 6  98359565.29344  24020403.461                    24020413.582
 105286591.310 8  82041549.59346  20035378.547                    20035385.445
 121582358.112 7  94739455.71845  23136349.867                    23136359.664
 124200013.873 6  96779174.57644  23634456.727                    23634464.512
 128164423.761 6                  24388880.672
 128420551.823 6 100068064.88043  24437634.633                    24437645.301
 110153346.715 7  85833816.43745  20961489.469                    20961495.527
 11  8 23 16  9  0.0000000  0 11G08G07G23G03G10G13G06G16G28G11G19
 125239248.736 7  97589083.92744  23832243.336                    23832253.766
 115394924.811 7  89918122.828 7  21958922.273                    21958930.141
 108446387.995 8  84503711.29146  20636665.281                    20636670.914
 112004028.890 7  87275886.56645  21313655.531                    21313663.910
 126252578.600 6  98378637.49843  24025060.836                    24025071.188
 105293799.222 8  82047166.13646  20036750.313                    20036757.012
 121658102.844 7  94798477.56345  23150764.375                    23150773.813
 124289521.466 6  96848920.68543  23651489.852                    23651497.570
 128096199.438 6                  24375898.305
 128344704.097 6 100008962.86143  24423200.922                    24423211.988
 110136295.701 8  85820529.94345  20958244.477                    20958250.504
 11  8 23 16  9 30.0000000  0 11G08G07G23G03G10G13G06G16G28G11G19
 125171198.143 7  97536057.54344  23819294.180                    23819303.648
 115339982.583 7  89875310.721 7  21948467.070                    21948474.867
 108509219.012 8  84552670.48246  20648621.625                    20648627.477
 112061398.006 7  87320589.75045  21324572.516                    21324580.895
 126277457.715 6  98398023.81943  24029795.148                    24029805.438
 105301600.023 8  82053244.66446  20038234.617                    20038241.758
 121734226.057 7  94857794.32644  23165250.461                    23165258.758
 124379005.421 6  96918648.35644  23668517.664                    23668526.063
 128028197.605 6                  24362957.797
 128268751.756 6  99949779.30243  24408747.492                    24408758.477
 110119848.726 7  85807714.12545  20955114.531                    20955120.680
 11  8 23 16 10  0.0000000  0 11G08G07G23G03G10G13G06G16G28G11G19
 125103079.949 7  97482978.50844  23806331.453                    23806341.242
 115285085.220 7  89832533.582 7  21938020.195                    21938028.020
 108572555.079 8  84602023.22846  20660674.039                    20660680.023
 112119302.993 7  87365710.51045  21335591.898                    21335599.742
 126302737.828 6  98417722.57443  24034605.227                    24034616.594
 105309993.993 8  82059785.40546  20039831.828                    20039838.668
 121810725.539 7  94917404.27245  23179807.500                    23179816.379
 124468464.398 6  96988356.57744  23685541.414                    23685549.617
 127960418.509 6                  24350060.273
 128192697.020 6  99890515.95843  24394274.500                    24394285.754
 110104006.482 7  85795369.52545  20952100.219                    20952106.125
 11  8 23 16 10 30.0000000  0 11G08G07G23G03G10G13G06G16G28G11G19
 125034894.130 7  97429846.76244  23793355.563                    23793365.250
 115230233.824 7  89789792.259 7  21927582.391                    21927590.102
 108636394.607 8  84651768.27746  20672822.430                    20672828.418
 112177742.089 7  87411247.44445  21346712.453                    21346720.598
 126328416.755 6  98437732.13343  24039491.609                    24039502.727
 105318981.483 8  82066788.62546  20041542.289                    20041549.363
 121887599.229 7  94977305.81744  23194435.969                    23194445.492
 124557896.663 6  97058043.98144  23702559.836                    23702567.953
 127892862.671 6                  24337205.227
 128116542.649 6  99831174.95843  24379783.180                    24379793.887
 110088770.036 8  85783496.98645  20949200.891                    20949206.688
 11  8 23 16 11  0.0000000  0 11G08G07G23G03G10G13G06G16G28G11G19
 124966641.395 7  97376662.85744  23780367.414                    23780377.715
 115175429.158 7  89747087.347 7  21917153.539                    21917161.246
 108700735.933 8  84701904.34146  20685066.102                    20685071.895
 112236712.882 7  87457198.69245  21357934.164                    21357942.492
 126354492.630 6  98458050.99543  24044454.180                    24044465.078
 105328562.635 8  82074254.44746  20043365.305                    20043372.449
 121964844.248 7  95037496.68944  23209135.445                    23209144.293
 124647300.795 7  97127709.46444  23719573.250                    23719581.211
 127825530.019 6                  24324392.172
 128040290.893 6  99771758.08143  24365273.625                    24365283.652
 110074140.485 8  85772097.33945  20946416.734                    20946422.539
 11  8 23 16 11 30.0000000  0 11G08G07G23G03G10G13G06G16G28G11G19
 124898321.683 7  97323426.77943  23767366.523                    23767376.395
 115120672.636 7  89704419.955 7  21906733.492                    21906741.539
 108765577.755 8  84752430.39746  20697405.422                    20697411.277
 112296213.227 7  87503562.59545  21369256.773                    21369264.766
 126380963.506 6  98478677.63443  24049491.125                    24049502.043
 105338737.989 8  82082183.28446  20045301.586                    20045308.578
 122042458.611 7  95097975.36944  23223904.844                    23223914.035
 124736675.475 7  97197352.00544  23736580.859                    23736589.234
 127758421.035 7  99552032.00053  24311621.070                    24311629.719
 127963944.408 6  99712267.38343  24350744.664                    24350755.223
 110060118.728 8  85761171.31045  20943748.727                    20943754.434
 11  8 23 16 12  0.0000000  0 11G08G07G23G03G10G13G06G16G28G11G19
 124829935.402 6  97270138.82543  23754352.961                    23754362.891
 115065964.941 8  89661790.622 7  21896323.125                    21896330.727
 108830918.003 8  84803344.84546  20709838.938                    20709844.707
 112356241.136 7  87550337.59245  21380679.625                    21380687.551
 126407827.519 6  98499610.63244  24054603.008                    24054614.453
 105349508.062 8  82090575.53446  20047351.078                    20047358.387
 122120439.843 7  95158739.92044  23238743.547                    23238753.137
 124826019.267 7  97266970.46744  23753582.117                    23753590.508
 127691535.821 7  99499913.70343  24298893.555                    24298902.723
 127887505.673 6  99652704.81943  24336198.945                    24336208.906
 110046705.315 8  85750719.31745  20941196.117                    20941202.031
 11  8 23 16 12 30.0000000  0 11G08G07G23G03G10G13G06G16G28G11G19
 124761482.652 6  97216799.05944  23741326.492                    23741336.410
 115011306.827 7  89619199.916 7  21885921.922                    21885930.035
 108896754.805 8  84854646.21246  20722367.391                    20722373.371
 112416794.093 7  87597521.69145  21392202.383                    21392210.234
 126435082.562 6  98520848.32043  24059789.992                    24059800.391
 105360872.849 8  82099431.19746  20049513.734                    20049520.953
 122198785.717 7  95219788.60444  23253652.578                    23253661.711
 124915330.643 6  97336563.70544  23770577.664                    23770585.535
 127624874.552 7  99447969.90044  24286208.063                    24286217.641
 127810977.040 6  99593072.20043  24321636.203                    24321645.930
 110033901.252 8  85740742.14046  20938759.375                    20938765.711
 11  8 23 16 13  0.0000000  0 11G08G07G23G03G10G13G06G16G28G11G19
 124692964.119 6  97163408.07044  23728287.609                    23728297.594
 114956699.382 7  89576648.699 7  21875530.836                    21875538.430
 108963086.446 8  84906333.17046  20734989.750                    20734995.723
 112477870.333 7  87645113.55245  21403825.070                    21403833.039
 126462726.667 6  98542389.18043  24065050.156                    24065060.324
 105372832.895 8  82108750.70746  20051789.859                    20051796.691
 122277493.907 6  95281119.60544  23268630.664                    23268639.785
 125004608.286 7  97406130.66443  23787566.680                    23787574.723
 127558437.171 7  99396200.58143  24273565.313                    24273574.301
 127734361.363 6  99533371.75943  24307055.500                    24307066.863
 110021707.340 8  85731240.42146  20936438.563                    20936445.004
 11  8 23 16 13 30.0000000  0 11G08G07G23G03G10G13G06G16G28G11G19
 124624379.584 6  97109965.63943  23715237.047                    23715246.770
 114902143.675 7  89534137.795 7  21865148.938                    21865156.355
 109029910.982 8  84958404.19546  20747706.117                    20747712.383
 112539467.076 7  87693110.99245  21415546.172                    21415554.477
 126490757.477 6  98564231.34743  24070383.945                    24070394.793
 105385388.091 8  82118533.96746  20054179.180                    20054185.762
 122356562.165 7  95342731.18144  23283676.641                    23283685.207
 125093850.727 6  97475670.20843  23804548.664                    23804556.547
 127492224.184 7  99344606.08444  24260965.328                    24260974.430
 127657660.770 7  99473605.14943  24292460.180                    24292471.066
 110010124.001 8  85722214.46546  20934234.680                    20934240.742
 11  8 23 16 14  0.0000000  0 11G08G07G23G03G10G13G06G16G28G11G19
 124555729.583 6  97056472.20244  23702173.234                    23702183.555
 114847641.022 7  89491668.227 7  21854777.414                    21854784.867
 109097227.070 8  85010858.26546  20760515.609                    20760521.836
 112601582.259 7  87741512.40545  21427366.344                    21427374.633
 126519173.021 6  98586373.35443  24075792.039                    24075802.465
 105398538.834 8  82128781.28546  20056681.563                    20056688.609
 122435987.352 7  95404620.89544  23298791.227                    23298799.621
 125183056.610 6  97545181.20843  23821524.258                    23821531.941
 127426236.205 7  99293186.93244  24248408.859                    24248417.523
 127580878.120 7  99413774.57643  24277849.000                    24277859.848
 109999152.779 8  85713665.48746  20932146.797                    20932153.188
 11  8 23 16 14 30.0000000  0 11G08G07G23G03G10G13G06G16G28G11G19
 124487014.141 6  97002927.78544  23689097.406                    23689107.430
 114793192.095 7  89449240.520 7  21844416.250                    21844424.230
 109165032.609 8  85063693.70946  20773418.781                    20773424.855
 112664214.287 7  87790316.56745  21439284.984                    21439293.324
 126547971.352 6  98608813.62443  24081272.109                    24081282.180
 105412285.242 8  82139492.77146  20059297.180                    20059304.516
 122515767.887 7  95466787.48744  23313973.578                    23313982.008
 125272224.612 6  97614662.72343  23838492.242                    23838499.789
 127360472.829 7  99241942.79144  24235894.234                    24235903.277
 127504015.623 7  99353881.79943  24263222.422                    24263233.656
 109988794.099 8  85705593.82146  20930175.742                    20930181.715
 11  8 23 16 15  0.0000000  0 11G08G07G23G03G10G13G06G16G28G11G19
 124418233.390 7  96949332.47544  23676008.289                    23676019.074
 114738797.303 7  89406854.990 7  21834065.102                    21834072.969
 109233325.283 8  85116908.74346  20786414.977                    20786420.629
 112727360.272 7  87839521.20945  21451301.430                    21451309.613
 126577150.387 6  98631550.52743  24086824.875                    24086834.012
 105426627.127 8  82150668.26746  20062026.547                    20062033.340
 122595901.019 7  95529228.85144  23329221.719                    23329231.207
 125361353.217 6  97684113.55443  23855452.773                    23855460.816
 127294933.878 6  99190873.53043  24223422.305                    24223431.922
 127427075.794 6  99293928.77243  24248581.609                    24248591.969
 109979047.904 8  85697999.40246  20928321.328                    20928327.211
 11  8 23 16 15 30.0000000  0 11G08G07G23G03G10G13G06G16G28G11G19
 124349388.148 7  96895686.89744  23662908.000                    23662917.578
 114684458.480 7  89364513.078 7  21823724.820                    21823732.316
 109302103.425 8  85170502.06546  20799502.922                    20799508.691
 112791018.090 7  87889124.67745  21463414.945                    21463423.141
 126606708.063 6  98654582.50043  24092449.961                    24092458.781
 105441564.889 8  82162308.07446  20064869.070                    20064875.953
 122676384.212 7  95591942.97044  23344537.680                    23344546.578
 125450441.200 6  97753532.72143  23872406.133                    23872413.754
 127229619.709 6  99139979.41543  24210992.664                    24211002.473
 127350061.249 6  99233917.50443  24233925.570                    24233936.082
 109969915.247 8  85690883.06546  20926583.352                    20926589.641
 11  8 23 16 16  0.0000000  0 11G08G07G23G03G10G13G06G16G28G11G19
 124280478.206 7  96841990.89444  23649794.352                    23649803.988
 114630176.232 7  89322215.247 7  21813395.008                    21813402.609
 109371365.295 8  85224472.30946  20812682.992                    20812688.969
 112855185.262 8  87939125.05545  21475625.656                    21475633.988
 126636642.170 6  98677907.79443  24098145.844                    24098154.734
 105457098.480 8  82174412.16946  20067825.078                    20067832.000
 122757215.266 7  95654928.16345  23359919.320                    23359928.605
 125539487.047 6  97822919.04143  23889351.281                    23889358.563
 127164530.797 6  99089260.83142  24198606.555                    24198616.203
 127272974.567 6  99173850.02944  24219257.516                    24219267.672
 109961396.954 8  85684245.45446  20924962.656                    20924968.445
 11  8 23 16 16 30.0000000  0 11G08G07G23G03G10G13G06G16G28G11G19
 124211504.332 7  96788245.07444  23636669.391                    23636678.367
 114575951.771 7  89279962.443 7  21803076.414                    21803083.652
 109441108.975 8  85278817.99146  20825954.922                    20825960.645
 112919859.921 8  87989520.86045  21487932.805                    21487940.785
 126666950.490 6  98701524.67943  24103912.883                    24103922.340
 105473228.138 8  82186980.73046  20070894.164                    20070901.223
 122838391.470 7  95718182.31245  23375366.258                    23375375.512
 125628489.632 6  97892271.61943  23906287.883                    23906295.965
 127099666.867 6  99038717.59943  24186263.320                    24186273.586
 127195818.418 6  99113728.42543  24204573.961                    24204584.504
 109953493.543 8  85678086.96546  20923458.609                    20923464.430
 11  8 23 16 17  0.0000000  0 11G08G07G23G03G10G13G06G16G28G11G19
 124142466.824 6  96734449.67843  23623531.914                    23623540.988
 114521786.339 8  89237755.636 7  21792769.000                    21792776.371
 109511332.895 8  85333537.89546  20839318.172                    20839324.043
 112985039.628 8  88040310.20945  21500336.234                    21500344.426
 126697630.968 6  98725431.55743  24109751.297                    24109760.574
 105489954.109 8  82200013.94047  20074077.344                    20074084.086
 122919910.852 7  95781703.88145  23390878.953                    23390888.375
 125717447.567 6  97961589.42343  23923215.703                    23923224.422
 127035028.284 5  98988349.91942  24173963.656                    24173973.184
 127118595.519 6  99053554.75943  24189879.133                    24189889.891
 109946205.562 8  85672408.02746  20922071.484                    20922077.340
 11  8 23 16 17 30.0000000  0 11G08G07G23G03G10G13G06G16G28G11G19
 124073366.149 6  96680605.06043  23610382.711                    23610391.184
 114467681.026 8  89195595.682 7  21782473.570                    21782480.973
 109582034.847 8  85388630.27546  20852772.281                    20852778.293
 113050721.942 8  88091491.20445  21512835.195                    21512843.133
 126728681.383 7  98749626.67243  24115659.961                    24115669.570
 105507276.389 8  82213511.82046  20077373.438                    20077380.219
 123001770.742 7  95845490.77644  23406456.758                    23406466.000
 125806360.026 6  98030871.79643  23940135.641                    23940143.832
 126970615.197 6  98938157.98242  24161705.445                    24161715.039
 127041308.407 6  98993331.15043  24175171.195                    24175183.070
 109939533.909 8  85667209.35446  20920801.578                    20920808.168
 11  8 23 16 18  0.0000000  0 11G08G07G23G03G10G13G06G16G28G11G19
 124004202.243 6  96626711.19943  23597220.852                    23597229.414
 114413636.631 8  89153483.201 7  21772189.383                    21772196.340
 109653212.731 8  85444093.51746  20866317.367                    20866323.016
 113116904.170 8  88143061.73145  21525429.375                    21525437.328
 126760099.559 7  98774108.41943  24121638.695                    24121648.230
 105525194.564 8  82227474.02347  20080783.336                    20080790.094
 123083969.065 6  95909541.36344  23422098.367                    23422107.480
 125895225.191 6  98100117.29343  23957045.617                    23957054.156
 126906427.467 6  98888141.63142  24149490.016                    24149500.551
 126963959.392 6  98933059.20443  24160453.273                    24160463.555
 109933478.666 8  85662490.99246  20919649.281                    20919655.383
 11  8 23 16 18 30.0000000  0 11G08G07G23G03G10G13G06G16G28G11G19
 123934975.560 6  96572768.40543  23584047.063                    23584054.895
 114359654.106 7  89111418.921 7  21761916.797                    21761923.754
 109724864.477 8  85499926.01646  20879951.898                    20879957.816
 113183584.522 8  88195020.41145  21538117.938                    21538126.441
 126791883.373 7  98798875.03143  24127687.195                    24127696.008
 105543708.898 8  82241900.76946  20084306.438                    20084313.465
 123166502.983 6  95973853.47544  23437804.297                    23437812.910
 125984041.598 6  98169324.81543  23973947.305                    23973955.395
 126842465.288 6  98838301.00843  24137319.227                    24137328.871
 126886551.251 6  98872741.26043  24145721.906                    24145733.316
 109928040.143 8  85658253.19246  20918614.570                    20918620.652
 11  8 23 16 19  0.0000000  0 11G08G07G23G03G10G13G06G16G28G11G19
 123865686.568 6  96518777.06143  23570862.016                    23570870.191
 114305734.851 7  89069403.952 7  21751656.203                    21751663.496
 109796988.170 8  85556126.25446  20893676.656                    20893682.984
 113250760.558 7  88247365.33745  21550900.906                    21550909.281
 126824030.795 6  98823924.99143  24133804.695                    24133814.039
 105562819.049 8  82256791.78447  20087943.234                    20087950.160
 123249369.909 6  96038425.06844  23453572.750                    23453582.070
 126072808.150 6  98238493.48143  23990838.758                    23990846.879
 126778728.548 6  98788636.06943  24125190.664                    24125199.980
 126809086.555 6  98812379.20243  24130980.492                    24130992.051
 109923218.994 8  85654496.47046  20917697.070                    20917703.043
 11  8 23 16 19 30.0000000  0 11G08G07G23G03G10G13G06G16G28G11G19
 123796335.795 6  96464737.55643  23557664.656                    23557674.418
 114251879.870 7  89027439.058 7  21741407.516                    21741415.020
 109869581.657 8  85612692.56846  20907490.891                    20907496.707
 113318429.288 7  88300094.19045  21563777.742                    21563786.238
 126856539.294 6  98849256.30244  24139990.703                    24140000.258
 105582524.948 8  82272147.02946  20091692.961                    20091699.871
 123332567.644 6  96103254.41844  23469404.945                    23469414.512
 126161523.712 6  98307622.43343  24007721.172                    24007729.047
 126715217.628 6  98739147.11243  24113105.078                    24113114.387
 126731567.700 7  98751974.96143  24116229.977                    24116240.961
 109919015.690 8  85651221.18146  20916897.438                    20916902.953
 11  8 23 16 20  0.0000000  0 11G08G07G23G03G10G13G06G16G28G11G19
 123726923.379 6  96410650.03043  23544455.367                    23544465.816
 114198090.021 7  88985524.918 7  21731171.484                    21731178.727
 109942643.204 8  85669623.61146  20921393.766                    20921399.770
 113386588.529 8  88353205.25145  21576748.703                    21576756.684
 126889406.584 6  98874867.16743  24146244.945                    24146255.008
 105602826.758 8  82287966.61146  20095556.273                    20095563.145
 123416093.485 6  96168339.47843  23485298.805                    23485308.266
 126250186.773 6  98376710.47243  24024593.156                    24024600.672
 126651932.350 7  98689833.97043  24101062.250                    24101071.348
 126653997.725 6  98691530.85643  24101469.016                    24101479.961
 109915430.465 8  85648427.51546  20916215.039                    20916220.910
 11  8 23 16 20 30.0000000  0 11G08G07G23G03G10G13G06G16G28G11G19
 123657449.875 6  96356514.87644  23531236.063                    23531244.969
 114144366.793 7  88943662.690 7  21720948.461                    21720955.945
 110016170.429 8  85726917.50946  20935385.719                    20935391.496
 113455236.270 7  88406696.95245  21589811.836                    21589819.902
 126922630.379 6  98900755.87843  24152567.383                    24152577.449
 105623723.964 8  82304250.13646  20099532.633                    20099539.785
 123499945.269 6  96233678.48743  23501255.930                    23501265.121
 126338796.325 6  98445756.80443  24041454.906                    24041462.984
 126588872.593 6  98640696.55243  24089062.414                    24089071.602
 126576379.062 6  98631048.81043  24086698.859                    24086709.453
 109912463.685 8  85646115.74846  20915650.664                    20915656.402
 11  8 23 16 21  0.0000000  0 11G08G07G23G03G10G13G06G16G28G11G19
 123587915.416 6  96302332.20544  23518004.063                    23518013.340
 114090710.860 7  88901852.899 7  21710738.234                    21710745.461
 110090161.218 8  85784572.63246  20949465.898                    20949471.805
 113524369.633 7  88460567.05845  21602967.313                    21602975.805
 126956208.543 6  98926920.65243  24158955.922                    24158966.973
 105645216.049 8  82320997.20747  20103622.531                    20103629.645
 123584120.090 6  96299269.24143  23517273.727                    23517282.789
 126427350.918 6  98514760.32743  24058306.016                    24058314.699
 126526038.339 6  98591734.87043  24077105.641                    24077115.172
 126498714.286 6  98570530.88843  24071919.406                    24071930.422
 109910115.590 7  85644286.07846  20915203.523                    20915209.836
 11  8 23 16 21 30.0000000  0 11G08G07G23G03G10G13G06G16G28G11G19
 123518320.353 6  96248102.31744  23504760.266                    23504769.617
 114037123.801 7  88860096.779 7  21700540.742                    21700548.586
 110164613.249 8  85842587.16046  20963633.281                    20963639.398
 113593986.348 7  88514813.80545  21616215.172                    21616222.813
 126990139.047 6  98953360.00243  24165413.109                    24165424.074
 105667303.443 8  82338208.14747  20107826.203                    20107832.590
 123668615.756 6  96365110.00944  23533353.133                    23533362.074
 126515849.701 6  98583720.35243  24075146.719                    24075155.449
 126463429.712 6  98542949.01544  24065191.148                    24065201.227
 126421006.100 6  98509979.07743  24057131.680                    24057142.668
 109908386.603 8  85642938.81846  20914874.578                    20914880.520
 11  8 23 16 22  0.0000000  0 11G08G07G23G03G10G13G06G16G28G11G19
 123448665.701 6  96193826.02844  23491505.133                    23491515.094
 113983606.687 7  88818395.161 7  21690356.813                    21690364.398
 110239525.047 8  85900959.95146  20977888.594                    20977894.617
 113664083.891 7  88569435.21444  21629553.906                    21629561.953
 127024419.425 6  98980071.98043  24171936.570                    24171947.359
 105689986.062 8  82355882.89547  20112142.203                    20112149.242
 123753429.920 6  96431198.95344  23549492.383                    23549501.645
 126604291.148 6  98652635.71943  24091977.180                    24091985.387
 126401046.988 6  98494339.21044  24053320.320                    24053330.113
 126343257.031 6  98449395.41943  24042336.836                    24042347.797
 109907277.211 8  85642074.35546  20914663.656                    20914669.754
 11  8 23 16 22 30.0000000  0 11G08G07G23G03G10G13G06G16G28G11G19
 123378951.471 6  96139503.32444  23478238.711                    23478248.504
 113930160.581 7  88776748.871 7  21680186.594                    21680194.051
 110314894.209 8  85959689.12246  20992230.789                    20992236.961
 113734659.773 7  88624429.37145  21642984.305                    21642992.465
 127059047.040 6  99007054.53943  24178526.078                    24178536.488
 105713263.308 8  82374021.00046  20116571.617                    20116578.609
 123838559.848 7  96497533.93444  23565692.133                    23565701.180
 126692674.243 6  98721505.60043  24108795.820                    24108803.441
 126338889.768 6  98445905.10844  24041491.594                    24041501.148
 126265470.129 6  98388782.27943  24027534.133                    24027544.906
 109906787.370 8  85641692.66747  20914570.430                    20914576.746
 11  8 23 16 23  0.0000000  0 11G08G07G23G03G10G13G06G16G28G11G19
 123309178.239 7  96085134.64344  23464961.922                    23464970.055
 113876786.444 8  88735158.667 7  21670029.836                    21670037.609
 110390718.665 8  86018773.05446  21006659.734                    21006665.945
 113805711.512 7  88679794.33044  21656504.867                    21656513.113
 127094019.876 6  99034306.06143  24185181.211                    24185191.906
 105737134.743 8  82392622.10747  20121114.313                    20121121.094
 123924003.021 6  96564112.99344  23581951.727                    23581960.469
 126780997.575 6  98790328.92643  24125603.586                    24125611.156
 126276958.129 6  98397646.79144  24029707.148                    24029716.234
 126187647.642 6  98328141.45443  24012725.813                    24012736.371
 109906917.257 8  85641793.87247  20914594.953                    20914600.891
 11  8 23 16 23 30.0000000  0 11G08G07G23G03G10G13G06G16G28G11G19
 123239346.478 7  96030720.34744  23451672.828                    23451681.234
 113823485.600 8  88693625.566 7  21659886.797                    21659894.301
 110466996.177 8  86078210.01746  21021174.938                    21021181.250
 113877236.580 8  88735528.11544  21670115.695                    21670124.172
 127129335.579 6  99061824.78943  24191901.172                    24191912.406
 105761600.065 8  82411685.97847  20125769.984                    20125776.340
 124009757.010 6  96630934.25744  23598270.117                    23598279.082
 126869260.127 6  98859104.86243  24142398.781                    24142406.535
 126215251.982 6  98349564.19343  24017964.938                    24017973.855
 126109792.395 6  98267475.06343  23997909.719                    23997920.199
 109907667.592 8  85642378.54747  20914737.758                    20914743.645
 11  8 23 16 24  0.0000000  0 11G08G07G23G03G10G13G06G16G28G11G19
 123169456.099 7  95976260.38144  23438372.984                    23438381.250
 113770258.908 8  88652150.252 7  21649758.305                    21649765.508
 110543724.154 8  86137997.99846  21035776.047                    21035782.023
 113949232.269 7  88791628.61144  21683816.063                    21683824.461
 127164991.850 6  99089608.82643  24198686.898                    24198697.773
 105786658.590 8  82431212.08247  20130538.813                    20130545.406
 124095819.124 7  96697995.58944  23614647.109                    23614656.652
 126957460.155 6  98927832.10143  24159183.047                    24159190.355
 126153771.110 6  98301657.12543  24006264.641                    24006274.281
 126031907.041 6  98206785.22843  23983089.227                    23983098.805
 109909037.426 8  85643445.95347  20914998.461                    20915004.402
 11  8 23 16 24 30.0000000  0 11G08G07G23G03G10G13G06G16G28G11G19
 123099508.490 7  95921755.83044  23425062.500                    23425071.180
 113717108.319 8  88610734.237 7  21639644.203                    21639651.355
 110620900.680 8  86198135.49346  21050461.813                    21050468.223
 114021696.151 7  88848093.93744  21697605.391                    21697614.016
 127200986.230 6  99117656.40043  24205536.242                    24205546.828
 105812310.526 8  82451200.59847  20135419.852                    20135426.805
 124182187.094 6  96765295.25944  23631082.602                    23631091.977
 127045597.372 6  98996510.39543  24175955.289                    24175962.836
 126092515.904 6  98253925.90343  23994608.469                    23994618.188
 125953994.302 7  98146074.02643  23968262.672                    23968271.988
 109911027.650 8  85644996.78947  20915377.211                    20915383.066
 11  8 23 16 25  0.0000000  0 11G08G07G23G03G10G13G06G16G28G11G19
 123029503.975 7  95867206.92044  23411741.492                    23411750.270
 113664034.694 8  88569378.202 7  21629544.016                    21629551.824
 110698523.869 8  86258621.03846  21065233.570                    21065239.855
 114094625.727 7  88904922.15144  21711483.602                    21711491.816
 127237316.631 6  99145965.79043  24212449.984                    24212460.574
 105838555.775 8  82471651.42047  20140414.102                    20140420.820
 124268858.541 6  96832831.40544  23647575.156                    23647584.785
 127133670.383 6  99065138.65643  24192715.164                    24192723.031
 126031486.110 6  98206370.27543  23982995.023                    23983004.238
 125876056.941 6  98085343.68743  23953430.984                    23953441.461
 109913638.357 8  85647031.12147  20915874.188                    20915879.867
 11  8 23 16 25 30.0000000  0 11G08G07G23G03G10G13G06G16G28G11G19
 122959442.557 7  95812613.66344  23398408.703                    23398418.262
 113611038.892 8  88528082.804 7  21619459.547                    21619466.578
 110776591.165 8  86319452.64346  21080089.445                    21080095.559
 114168018.536 7  88962111.33044  21725449.781                    21725458.105
 127273980.477 6  99174534.99343  24219427.594                    24219437.105
 105865393.093 8  82492563.60047  20145520.859                    20145527.980
 124355830.661 6  96900601.84443  23664125.367                    23664134.688
 127221677.829 6  99133715.81743  24209462.047                    24209470.453
 125970681.538 6  98158990.15243  23971423.945                    23971432.824
 125798097.377 7  98024595.96643  23938596.508                    23938605.379
 109916869.411 8  85649548.84247  20916488.523                    20916494.707
 11  8 23 16 26  0.0000000  0 11G08G07G23G03G10G13G06G16G28G11G19
 122889325.042 7  95757976.71444  23385066.063                    23385075.770
 113558122.394 8  88486849.197 7  21609389.680                    21609396.965
 110855100.399 8  86380628.62346  21095028.750                    21095035.336
 114241872.309 7  89019659.71244  21739503.984                    21739512.125
 127310975.384 6  99203362.18543  24226467.516                    24226477.039
 105892822.507 8  82513937.15947  20150740.563                    20150747.605
 124443101.009 6  96968604.64544  23680733.047                    23680741.828
 127309618.873 6  99202241.24843  24226196.766                    24226205.684
 125910102.093 6  98111785.42043  23959896.664                    23959905.047
 125720118.642 6  97963833.41042  23923757.695                    23923766.938
 109920720.939 8  85652550.04947  20917221.844                    20917227.785
 11  8 23 16 26 30.0000000  0 11G08G07G23G03G10G13G06G16G28G11G19
 122819151.972 7  95703296.44544  23371712.164                    23371721.805
 113505286.695 8  88445678.553 7  21599335.508                    21599342.699
 110934049.334 8  86442147.21946  21110052.344                    21110059.164
 114316183.654 7  89077564.61944  21753644.688                    21753653.152
 127348298.864 6  99232445.42343  24233569.375                    24233579.301
 105920843.526 8  82535771.70847  20156072.883                    20156079.871
 124530667.348 6  97036838.11844  23697396.438                    23697405.352
 127397492.129 6  99270713.83343  24242918.602                    24242927.074
 125849747.942 6  98064756.27643  23948411.109                    23948420.059
 125642123.476 6  97903057.99743  23908914.656                    23908924.254
 109925192.892 8  85656034.70147  20918072.789                    20918078.586
 11  8 23 16 27  0.0000000  0 11G08G07G23G03G10G13G06G16G28G11G19
 122748923.874 7  95648573.32644  23358348.305                    23358358.402
 113452532.766 7  88404571.630 7  21589296.813                    21589304.477
 111013435.774 8  86504006.73246  21125159.648                    21125165.484
 114390950.318 7  89135824.34344  21767872.352                    21767880.672
 127385948.551 6  99261782.82943  24240733.727                    24240744.086
 105949455.458 8  82558066.69947  20161517.664                    20161524.434
 124618526.877 6  97105300.00944  23714114.914                    23714124.828
 127485296.701 6  99339132.95243  24259627.766                    24259635.449
 125789618.591 6  98017902.24743  23936968.953                    23936977.398
 125564114.578 6  97842271.91843  23894070.711                    23894080.922
 109930285.358 8  85660002.88547  20919041.672                    20919047.617
 11  8 23 16 27 30.0000000  0 11G08G07G23G03G10G13G06G16G28G11G19
 122678641.027 7  95593807.52144  23344974.297                    23344983.410
 113399861.605 7  88363529.192 7  21579273.398                    21579281.070
 111093257.116 8  86566205.12546  21140348.914                    21140355.234
 114466169.482 7  89194436.66844  21782186.313                    21782194.328
 127423922.260 6  99291372.73343  24247960.453                    24247970.238
 105978657.457 8  82580821.49847  20167074.625                    20167081.383
 124706676.842 6  97173988.22744  23730889.781                    23730899.488
 127573031.312 6  99407497.47943  24276322.516                    24276331.969
 125729713.809 7  97971223.22243  23925570.008                    23925577.754
 125486094.444 6  97781477.05443  23879224.188                    23879233.363
 109935997.934 8  85664454.25947  20920129.117                    20920134.871
 11  8 23 16 28  0.0000000  0 11G08G07G23G03G10G13G06G16G28G11G19
 122608304.207 7  95538999.67044  23331589.484                    23331597.906
 113347274.774 8  88322552.466 7  21569266.789                    21569274.199
 111173511.438 8  86628740.90346  21155620.859                    21155627.012
 114541838.448 7  89253399.48344  21796585.094                    21796593.961
 127462217.605 6  99321213.22243  24255247.594                    24255257.949
 106008449.345 8  82604035.94647  20172743.703                    20172750.773
 124795115.005 6  97242901.04243  23747718.766                    23747728.613
 127660694.914 6  99475806.72243  24293004.000                    24293013.445
 125670033.746 7  97924719.33643  23914212.570                    23914220.746
 125408066.061 6  97720675.78443  23864375.625                    23864385.039
 109942330.932 8  85669389.08647  20921333.977                    20921339.492
 11  8 23 16 28 30.0000000  0 11G08G07G23G03G10G13G06G16G28G11G19
 122537913.708 7  95484149.99344  23318194.789                    23318202.938
 113294773.034 8  88281642.043 7  21559276.063                    21559283.055
 111254195.883 8  86691611.85146  21170974.547                    21170980.980
 114617954.964 7  89312711.02344  21811070.289                    21811078.305
 127500831.889 6  99351302.26643  24262595.961                    24262605.566
 106038830.388 8  82627709.47747  20178525.195                    20178532.035
 124883838.691 6  97312036.35043  23764602.570                    23764611.008
 127748286.498 6  99544059.82343  24309672.508                    24309681.648
 125610578.321 7  97878390.47443  23902898.508                    23902906.715
 125330031.960 6  97659870.08243  23849526.094                    23849536.375
 109949283.944 8  85674807.03847  20922657.289                    20922663.160
 11  8 23 16 29  0.0000000  0 11G08G07G23G03G10G13G06G16G28G11G19
 122467470.587 7  95429259.31644  23304789.594                    23304797.309
 113242358.467 8  88240799.552 7  21549302.016                    21549309.086
 111335308.540 8  86754816.46646  21186409.789                    21186415.980
 114694516.721 7  89372369.51444  21825639.063                    21825647.613
 127539762.619 6  99381637.87343  24270003.352                    24270013.586
 106069800.310 8  82651841.87147  20184418.648                    20184425.496
 124972845.483 6  97381392.22043  23781539.953                    23781549.137
 127835805.110 6  99612256.10943  24326326.828                    24326335.316
 125551347.391 7  97832236.55943  23891626.867                    23891635.488
 125251995.281 6  97599062.33543  23834676.391                    23834686.504
 109956856.861 8  85680708.03347  20924098.188                    20924103.969
 11  8 23 16 29 30.0000000  0 11G08G07G23G03G10G13G06G16G28G11G19
 122396975.570 7  95374328.21144  23291374.492                    23291382.918
 113190032.379 8  88200026.006 7  21539344.602                    21539351.977
 111416847.344 8  86818353.15746  21201926.172                    21201932.285
 114771520.520 7  89432372.44044  21840292.914                    21840300.695
 127579007.711 6  99412218.45243  24277470.914                    24277481.582
 106101358.480 8  82676432.64647  20190423.844                    20190430.988
 125062132.871 6  97450966.79843  23798531.000                    23798539.734
 127923249.674 6  99680394.68543  24342966.664                    24342975.680
 125492340.969 6  97786257.58944  23880398.680                    23880407.305
 125173958.565 6  97538254.59043  23819825.820                    23819837.281
 109965049.847 8  85687092.20147  20925657.359                    20925663.148
 11  8 23 16 30  0.0000000  0 11G08G07G23G03G10G13G06G16G28G11G19
 122326428.904 7  95319356.85544  23277950.477                    23277958.461
 113137795.698 8  88159322.127 7  21529404.344                    21529411.703
 111498809.459 8  86882219.68546  21217523.297                    21217529.289
 114848964.151 7  89492718.10244  21855029.516                    21855037.910
 127618564.309 6  99443041.76143  24284998.867                    24285009.020
 106133503.971 8  82701481.06647  20196541.133                    20196547.750
 125151698.394 6  97520758.07043  23815574.453                    23815583.906
 128010619.358 6  99748474.86643  24359593.156                    24359600.996
 125433558.636 6  97740453.25243  23869212.398                    23869221.246
 125095924.654 6  97477449.04043  23804976.695                    23804987.277
 109973862.505 8  85693959.22347  20927334.313                    20927339.641
 11  8 23 16 30 30.0000000  0 11G08G07G23G03G10G13G06G16G28G11G19
 122255830.894 7  95264345.48244  23264515.922                    23264524.625
 113085649.522 8  88118688.780 7  21519480.906                    21519488.387
 111581192.663 8  86946414.32246  21233200.109                    21233206.629
 114926844.243 7  89553403.86944  21869849.625                    21869858.266
 127658429.971 6  99474105.89743  24292585.016                    24292595.070
 106166236.118 8  82726986.62347  20202769.719                    20202776.535
 125241539.352 6  97590763.98143  23832670.586                    23832680.020
 128097912.712 6  99816495.60543  24376204.586                    24376212.633
 125375000.488 6  97694823.60543  23858069.305                    23858078.496
 125017896.178 6  97416647.70843  23790128.086                    23790139.137
 109983294.409 8  85701308.78047  20929128.906                    20929134.797
 11  8 23 16 31  0.0000000  0 11G08G07G23G03G10G13G06G16G28G11G19
 122185182.495 7  95209294.83944  23251071.688                    23251080.945
 113033595.363 8  88078127.129 7  21509575.422                    21509582.934
 111663994.462 8  87010935.15846  21248956.828                    21248963.328
 115005158.350 7  89614427.81444  21884751.961                    21884760.898
 127698602.524 6  99505409.13443  24300229.305                    24300239.688
 106199554.066 8  82752948.63847  20209109.930                    20209116.754
 125331653.234 6  97660982.54143  23849818.266                    23849828.293
 128185128.920 6  99884456.23643  24392801.875                    24392809.492
 125316665.924 6  97649368.18944  23846968.250                    23846977.512
 124939876.181 6  97355853.00243  23775281.031                    23775292.699
 109993345.499 8  85709140.81347  20931041.797                    20931047.449
 11  8 23 16 31 30.0000000  0 11G08G07G23G03G10G13G06G16G28G11G19
 122114484.429 7  95154205.49544  23237618.539                    23237627.625
 112981634.928 7  88037638.513 7  21499687.773                    21499695.121
 111747212.523 8  87075780.33746  21264792.703                    21264799.172
 115083903.883 7  89675787.93544  21899737.203                    21899746.211
 127739079.464 6  99536949.59743  24307932.492                    24307942.453
 106233457.359 8  82779366.76847  20215561.641                    20215568.602
 125422037.699 6  97731411.95043  23867018.375                    23867028.242
 128272267.120 6  99952356.07943  24409383.102                    24409391.707
 125258554.855 6  97604086.93544  23835909.852                    23835919.074
 124861867.332 6  97295066.89043  23760437.031                    23760447.332
 110004015.688 8  85717455.26246  20933072.063                    20933077.633
 11  8 23 16 32  0.0000000  0 11G08G07G23G03G10G13G06G16G28G11G19
 122043737.449 7  95099078.03844  23224155.625                    23224165.074
 112929769.278 7  87997223.752 7  21489817.984                    21489825.320
 111830844.802 8  87140948.29646  21280707.531                    21280713.688
 115163078.279 7  89737482.23444  21914804.016                    21914812.273
 127779858.080 6  99568725.09743  24315691.953                    24315702.207
 106267945.073 8  82806240.29747  20222124.477                    20222131.422
 125512690.022 6  97802050.06943  23884268.961                    23884278.609
 128359326.228 6 100020194.29843  24425950.047                    24425959.113
 125200667.120 6  97558979.69544  23824894.734                    23824903.934
 124783872.397 6  97234291.72843  23745594.688                    23745605.328
 110015304.225 8  85726251.54447  20935220.234                    20935225.941
 11  8 23 16 32 30.0000000  0 11G08G07G23G03G10G13G06G16G28G11G19
 121972941.876 7  95043912.71744  23210683.563                    23210692.516
 112877999.497 7  87956883.686 7  21479966.227                    21479973.887
 111914888.409 8  87206436.76646  21296700.672                    21296706.820
 115242679.125 7  89799508.84744  21929951.273                    21929959.684
 127820935.909 6  99600733.78443  24323508.742                    24323519.129
 106303016.318 8  82833568.52147  20228798.359                    20228805.242
 125603607.559 6  97872894.86643  23901570.258                    23901579.980
 128446305.068 6 100087969.96843  24442501.625                    24442510.648
 125143002.565 6  97514046.36143  23813920.813                    23813929.879
 124705894.113 6  97173529.48943  23730756.633                    23730766.211
 110027211.061 8  85735529.60646  20937486.031                    20937492.055
 11  8 23 16 33  0.0000000  0 11G08G07G23G03G10G13G06G16G28G11G19
 121902098.488 7  94988710.14144  23197202.914                    23197211.207
 112826326.910 7  87916619.354 7  21470133.477                    21470140.605
 111999340.852 8  87272243.80546  21312771.078                    21312777.500
 115322702.878 7  89861864.98345  21945179.313                    21945188.008
 127862310.218 6  99632973.47243  24331382.070                    24331392.813
 106338669.762 8  82861350.39647  20235582.836                    20235589.938
 125694787.541 6  97943944.14243  23918921.344                    23918930.723
 128533202.712 6 100155682.33143  24459037.508                    24459046.543
 125085560.799 6  97469286.61143  23802989.883                    23802999.133
 124627935.322 6  97112782.41143  23715920.883                    23715931.656
 110039735.447 8  85745288.88546  20939869.484                    20939875.094
 11  8 23 16 33 30.0000000  0 11G08G07G23G03G10G13G06G16G28G11G19
 121831207.935 7  94933470.80344  23183712.164                    23183720.664
 112774753.370 7  87876432.211 7  21460319.078                    21460326.547
 112084199.940 8  87338367.70346  21328919.414                    21328925.988
 115403147.571 7  89924549.12544  21960487.813                    21960495.922
 127903978.983 6  99665442.58643  24339312.422                    24339321.855
 106374905.704 8  82889586.18147  20242478.484                    20242485.621
 125786228.011 6  98015196.43143  23936322.211                    23936331.480
 128620018.476 6 100223330.92343  24475558.320                    24475566.980
 125028341.595 6  97424700.30943  23792101.680                    23792110.520
 124549998.922 6  97052052.82543  23701091.016                    23701100.938
 110052877.120 8  85755529.15746  20942370.398                    20942375.938
 11  8 23 16 34  0.0000000  0 11G08G07G23G03G10G13G06G16G28G11G19
 121760270.885 7  94878195.24444  23170212.906                    23170221.609
 112723279.912 7  87836323.049 7  21450524.492                    21450531.688
 112169463.024 8  87404806.41546  21345145.039                    21345151.074
 115484010.413 7  89987559.09744  21975875.422                    21975883.336
 127945939.230 6  99698138.85343  24347296.609                    24347306.645
 106411722.887 8  82918274.87747  20249484.258                    20249491.359
 125877926.104 6  98086649.42243  23953771.586                    23953781.008
 128706751.301 6 100290914.88643  24492062.969                    24492071.352
 124971345.086 6  97380287.50743  23781256.023                    23781264.934
 124472087.762 6  96991342.82542  23686264.625                    23686274.621
 110066635.802 8  85766250.21446  20944988.180                    20944994.059
 11  8 23 16 34 30.0000000  0 11G08G07G23G03G10G13G06G16G28G11G19
 121689288.030 7  94822883.99444  23156706.188                    23156713.926
 112671907.724 8  87796292.808 7  21440748.063                    21440755.445
 112255127.145 8  87471557.62246  21361446.227                    21361452.129
 115565288.013 7  90050892.25645  21991341.547                    21991350.293
 127988188.585 6  99731060.40743  24355336.313                    24355346.879
 106449120.090 8  82947415.52947  20256600.758                    20256607.949
 125969879.120 6  98158301.06243  23971269.867                    23971278.871
 128793400.246 6 100358433.45343  24508552.414                    24508559.785
 124914570.507 6  97336047.61943  23770451.984                    23770460.047
 124394204.804 5  96930654.90842  23671442.773                    23671454.055
 110081011.178 8  85777451.80646  20947723.969                    20947729.492
 11  8 23 16 35  0.0000000  0 11G08G07G23G03G10G13G06G16G28G11G19
 121618259.537 7  94767537.18644  23143189.773                    23143197.227
 112620638.347 8  87756342.685 7  21430991.773                    21430999.555
 112341190.542 8  87538619.95246  21377823.563                    21377829.867
 115646978.158 7  90114546.87444  22006887.273                    22006895.391
 128030724.460 6  99764205.20743  24363431.141                    24363441.230
 106487096.153 8  82977007.24947  20263827.383                    20263834.508
 126062084.504 6  98230149.34844  23988815.625                    23988824.773
 128879964.304 6 100425885.88843  24525025.023                    24525033.203
 124858017.427 6  97291980.33643  23759689.313                    23759698.238
 124316352.789 5  96869990.99542  23656629.023                    23656638.570
 110096002.226 8  85789133.14446  20950576.477                    20950582.539
 11  8 23 16 35 30.0000000  0 11G08G07G23G03G10G13G06G16G28G11G19
 121547187.034 7  94712156.08644  23129665.117                    23129673.637
 112569473.630 8  87716474.104 7  21421255.242                    21421262.887
 112427650.782 8  87605991.51446  21394276.586                    21394282.797
 115729078.082 7  90178520.81345  22022510.250                    22022518.887
 128073544.458 6  99797571.37843  24371579.508                    24371589.309
 106525650.672 8  83007049.71047  20271164.531                    20271171.430
 126154539.983 6  98302192.53144  24006409.602                    24006418.926
 128966442.757 6 100493271.62243  24541480.492                    24541489.262
 124801686.195 7  97248085.90344  23748970.648                    23748979.258
 124238534.238 5  96809353.28342  23641820.172                    23641830.391
 110111609.068 8  85801294.31146  20953546.617                    20953552.344
 11  8 23 16 36  0.0000000  0 11G08G07G23G03G10G13G06G16G28G11G19
 121476070.963 7  94656741.02544  23116131.727                    23116140.305
 112518414.472 8  87676687.774 7  21411539.477                    21411546.785
 112514505.051 8  87673670.11746  21410804.008                    21410810.621
 115811584.683 7  90242811.63445  22038210.813                    22038219.480
 128116645.797 6  99831156.79243  24379781.563                    24379791.512
 106564782.544 8  83037542.05547  20278610.797                    20278617.828
 126247242.869 6  98374428.49543  24024050.516                    24024059.828
 129052834.669 6 100560589.92143  24557920.805                    24557929.375
 124745576.299 7  97204363.97843  23738292.711                    23738302.008
 124160752.139 6  96748743.81242  23627018.547                    23627029.121
 110127830.841 8  85813934.65746  20956633.195                    20956639.273
 11  8 23 16 36 30.0000000  0 11G08G07G23G03G10G13G06G16G28G11G19
 121404911.883 7  94601292.44544  23102590.727                    23102599.508
 112467462.379 8  87636984.871 7  21401843.203                    21401850.301
 112601750.602 8  87741653.59446  21427406.727                    21427412.789
 115894495.252 7  90307417.23045  22053987.664                    22053996.535
 128160026.086 6  99864959.54843  24388036.586                    24388046.266
 106604490.686 8  83068483.44747  20286166.805                    20286173.898
 126340190.586 6  98446855.24543  24041737.211                    24041747.223
 129139138.822 6 100627839.83543  24574343.602                    24574352.738
 124689687.496 7  97160814.30843  23727657.352                    23727666.582
 124083009.587 6  96688165.22942  23612224.930                    23612235.371
 110144666.884 8  85827053.65346  20959837.375                    20959842.723
 11  8 23 16 37  0.0000000  0 11G08G07G23G03G10G13G06G16G28G11G19
 121333710.749 7  94545811.09044  23089041.492                    23089050.699
 112416619.041 7  87597366.719 7  21392168.570                    21392175.547
 112689385.432 8  87809940.42246  21444082.898                    21444089.445
 115977807.020 7  90372335.43944  22069841.789                    22069850.355
 128203682.579 6  99898977.55943  24396343.992                    24396354.434
 106644774.274 8  83099873.23847  20293832.516                    20293840.246
 126433380.760 6  98519470.92843  24059470.680                    24059481.098
 129225354.656 6 100695020.95543  24590750.805                    24590759.137
 124634019.484 6  97117436.69343  23717064.336                    23717073.773
 124005309.611 6  96627619.95242  23597439.227                    23597449.910
 110162116.804 8  85840650.99346  20963157.375                    20963163.234
 11  8 23 16 37 30.0000000  0 11G08G07G23G03G10G13G06G16G28G11G19
 121262468.045 7  94490297.34745  23075484.336                    23075493.566
 112365885.556 7  87557834.155 7  21382513.820                    21382520.910
 112777406.885 8  87878528.51646  21460833.180                    21460839.273
 116061517.323 7  90437564.20845  22085771.383                    22085779.727
 128247612.693 5  99933208.79943  24404703.336                    24404713.805
 106685632.130 8  83131710.50147  20301607.789                    20301615.145
 126526810.679 6  98592273.40343  24077250.570                    24077260.328
 129311481.162 6 100762132.41043  24607139.930                    24607148.066
 124578571.893 7  97074230.86143  23706512.563                    23706522.367
 123927654.830 6  96567109.73243  23582661.664                    23582672.035
 110180179.772 8  85854726.04446  20966594.852                    20966601.020
 11  8 23 16 38  0.0000000  0 11G08G07G23G03G10G13G06G16G28G11G19
 121191184.893 7  94434752.07544  23061919.938                    23061928.281
 112315263.483 7  87518388.409 7  21372881.000                    21372887.855
 112865811.750 8  87947415.35946  21477655.789                    21477662.141
 116145623.356 7  90503101.33345  22101776.414                    22101784.957
 128291813.697 5  99967651.09643  24413114.391                    24413124.813
 106727062.770 8  83163994.10047  20309491.750                    20309498.715
 126620477.575 6  98665260.54543  24095074.352                    24095084.422
 129397517.665 6 100829173.73943  24623512.180                    24623520.949
 124523344.368 7  97031196.46743  23696003.789                    23696012.320
 123850048.027 6  96506636.99742  23567894.008                    23567903.590
 110198855.085 8  85869278.24146  20970148.797                    20970154.746
 11  8 23 16 38 30.0000000  0 11G08G07G23G03G10G13G06G16G28G11G19
 121119862.250 7  94379176.04344  23048347.250                    23048355.965
 112264754.354 7  87479030.675 7  21363269.586                    21363276.734
 112954597.869 8  88016599.28846  21494551.188                    21494557.645
 116230122.669 7  90568944.90245  22117855.594                    22117864.871
 128336283.002 6 100002302.44143  24421576.516                    24421587.387
 106769065.382 8  83196723.37947  20317484.766                    20317491.488
 126714379.203 6  98738430.59743  24112943.805                    24112952.496
 129483463.233 6 100896144.22843  24639867.039                    24639876.125
 124468336.525 7  96988333.26544  23685536.289                    23685544.820
 123772492.191 6  96446204.01843  23553135.523                    23553145.121
 110218142.376 8  85884307.31446  20973819.023                    20973824.621
 11  8 23 16 39  0.0000000  0 11G08G07G23G03G10G13G06G16G28G11G19
 121048500.627 7  94323569.63144  23034767.680                    23034776.215
 112214359.457 8  87439761.950 7  21353679.844                    21353686.496
 113043763.108 8  88086078.63346  21511519.102                    21511525.406
 116315012.048 7  90635092.43644  22134009.852                    22134018.414
 128381018.331 5 100037161.09742  24430089.359                    24430100.328
 106811639.183 8  83229897.75647  20325586.031                    20325593.324
 126808512.871 6  98811781.43643  24130857.000                    24130866.250
 129569316.913 6 100963043.11643  24656203.914                    24656213.395
 124413548.065 7  96945641.02344  23675110.273                    23675118.832
 123694990.365 6  96385813.02443  23538387.234                    23538397.434
 110238040.998 8  85899812.74746  20977605.789                    20977611.199
 11  8 23 16 39 30.0000000  0 11G08G07G23G03G10G13G06G16G28G11G19
 120977100.679 7  94267933.37044  23021180.367                    23021189.250
 112164080.289 8  87400583.409 7  21344111.500                    21344118.688
 113133304.184 8  88155850.82546  21528558.234                    21528564.824
 116400288.894 7  90701541.91345  22150237.891                    22150246.309
 128426016.508 6 100072224.56942  24438652.320                    24438663.211
 106854782.493 8  83263515.89347  20333795.984                    20333802.855
 126902876.020 6  98885311.10943  24148813.172                    24148822.988
 129655077.982 6 101029869.86243  24672523.445                    24672532.863
 124358978.851 7  96903119.60844  23664725.992                    23664734.820
 123617545.129 6  96325466.17542  23523650.078                    23523660.324
 110258549.624 8  85915793.51746  20981508.320                    20981514.324
 11  8 23 16 40  0.0000000  0 11G08G07G23G03G10G13G06G16G28G11G19
 120905663.351 7  94212267.95844  23007586.180                    23007594.563
 112113918.417 8  87361496.258 7  21334566.328                    21334573.270
 113223218.855 8  88225914.12746  21545668.227                    21545674.699
 116485949.883 7  90768290.71345  22166538.211                    22166546.848
 128471275.492 5 100107491.26243  24447265.102                    24447275.188
 106898494.476 8  83297577.16047  20342114.094                    20342121.418
 126997466.133 6  98959017.64943  24166813.133                    24166822.645
 129740745.597 6 101096623.71443  24688826.508                    24688835.410
 124304628.302 7  96860768.58444  23654383.805                    23654391.645
 123540159.490 6  96265165.76742  23508922.570                    23508934.164
 110279667.678 8  85932249.16546  20985526.742                    20985532.691
 11  8 23 16 40 30.0000000  0 11G08G07G23G03G10G13G06G16G28G11G19
 120834189.455 7  94156574.05444  22993985.727                    22993993.563
 112063875.492 8  87322501.797 7  21325043.805                    21325050.902
 113313504.571 8  88296266.56246  21562849.180                    21562855.789
 116571992.783 7  90835337.11545  22182911.891                    22182920.152
 128516792.542 6 100142959.05543  24455926.219                    24455937.191
 106942773.772 8  83332080.49047  20350540.406                    20350547.031
 127092280.725 6  99032899.08943  24184855.758                    24184865.547
 129826319.323 5 101163304.44043  24705110.750                    24705118.836
 124250496.173 6  96818587.75143  23644082.641                    23644091.383
 123462836.516 5  96204914.19042  23494208.477                    23494220.289
 110301394.799 8  85949179.42046  20989661.148                    20989667.105
 11  8 23 16 41  0.0000000  0 11G08G07G23G03G10G13G06G16G28G11G19
 120762680.053 7  94100852.49144  22980377.586                    22980386.117
 112013952.823 8  87283601.034 7  21315543.523                    21315550.586
 113404158.417 8  88366905.85146  21580100.203                    21580106.648
 116658414.631 7  90902678.79145  22199357.125                    22199365.785
 128562564.937 6 100178625.83443  24464636.641                    24464647.309
 106987619.326 8  83367025.05147  20359073.695                    20359081.105
 127187317.314 6  99106953.51743  24202941.234                    24202950.539
 129911797.868 5 101229910.99542  24721376.328                    24721385.086
 124196581.959 7  96776576.76344  23633822.508                    23633831.703
 123385579.120 5  96144713.62442  23479506.984                    23479518.340
 110323729.869 8  85966583.38946  20993911.648                    20993917.070
 11  8 23 16 41 30.0000000  0 11G08G07G23G03G10G13G06G16G28G11G19
 120691135.697 7  94045103.68544  22966764.148                    22966772.121
 111964152.095 7  87244795.296 7  21306066.500                    21306073.637
 113495177.904 7  88437830.04146  21597420.570                    21597427.078
 116745212.792 7  90970313.69245  22215874.516                    22215883.355
 128608590.075 6 100214489.52143  24473395.156                    24473406.055
 107033029.844 8  83402409.84346  20367715.438                    20367722.570
 127282573.353 6  99181178.97043  24221067.453                    24221077.625
 129997180.858 6 101296443.09842  24737625.188                    24737633.453
 124142885.566 6  96734735.49143  23623604.313                    23623613.348
 123308390.253 6  96084566.55742  23464818.859                    23464829.918
 110346672.420 7  85984460.72446  20998277.445                    20998282.992
 11  8 23 16 42  0.0000000  0 11G08G07G23G03G10G13G06G16G28G11G19
 120619557.193 7  93989328.27044  22953142.117                    22953150.727
 111914474.208 8  87206085.277 7  21296612.961                    21296620.590
 113586560.178 8  88509036.93146  21614810.180                    21614816.395
 116832383.334 7  91038238.74844  22232462.938                    22232471.379
 128654865.006 6 100250547.84343  24482201.352                    24482212.047
 107079003.422 8  83438233.39446  20376463.766                    20376470.746
 127378045.867 6  99255573.07243  24239235.328                    24239244.906
 130082467.181 6 101362899.87242  24753854.430                    24753862.797
 124089406.192 6  96693063.31344  23613426.789                    23613436.121
 123231272.672 5  96024474.93142  23450144.484                    23450154.813
 110370220.878 8  86002810.18146  21002758.367                    21002763.965
 11  8 23 16 42 30.0000000  0 11G08G07G23G03G10G13G06G16G28G11G19
 120547945.916 7  93933527.30944  22939514.602                    22939523.285
 111864921.362 8  87167472.698 7  21287183.602                    21287191.102
 113678302.945 8  88580524.73045  21632268.469                    21632274.688
 116919924.541 7  91106452.63544  22249121.031                    22249129.355
 128701387.320 6 100286798.94043  24491054.406                    24491064.965
 107125539.432 8  83474495.18847  20385319.555                    20385326.813
 127473732.646 6  99330134.12143  24257444.664                    24257454.133
 130167656.085 6 101429280.75943  24770065.719                    24770074.465
 124036143.587 7  96651560.04244  23603292.250                    23603300.660
 123154229.283 6  95964441.13842  23435483.727                    23435493.242
 110394374.848 8  86021631.46846  21007354.594                    21007360.457
 11  8 23 16 43  0.0000000  0 11G08G07G23G03G10G13G06G16G28G11G19
 120476302.252 7  93877701.12844  22925881.625                    22925889.402
 111815494.707 8  87128958.446 7  21277777.859                    21277785.453
 113770403.423 8  88652291.26645  21649794.125                    21649800.844
 117007833.145 6  91174952.81544  22265849.500                    22265858.086
 128748154.232 6 100323240.63943  24499953.773                    24499964.289
 107172636.258 8  83511193.98447  20394281.859                    20394288.766
 127569630.957 6  99404860.03143  24275693.766                    24275703.230
 130252746.925 6 101495585.21243  24786257.969                    24786267.078
 123983097.247 7  96610225.27744  23593197.703                    23593206.980
 123077262.441 6  95904467.01542  23420837.523                    23420846.445
 110419132.862 8  86040923.44346  21012066.320                    21012071.723
 11  8 23 16 43 30.0000000  0 11G08G07G23G03G10G13G06G16G28G11G19
 120404627.044 7  93821850.34644  22912242.563                    22912250.582
 111766195.653 8  87090543.623 7  21268396.680                    21268403.984
 113862858.721 7  88724334.28445  21667388.078                    21667394.969
 117096106.018 7  91243736.83244  22282647.039                    22282656.125
 128795162.912 6 100359870.73143  24508899.094                    24508909.445
 107220292.504 8  83548328.69146  20403350.766                    20403357.648
 127665738.176 6  99479748.70143  24293981.336                    24293991.559
 130337738.907 6 101561812.67443  24802430.742                    24802440.582
 123930266.902 7  96569058.83644  23583144.469                    23583153.250
 123000376.036 6  95844555.64642  23406205.719                    23406215.563
 110444494.181 7  86060685.51746  21016892.211                    21016897.969
 11  8 23 16 44  0.0000000  0 11G08G07G23G03G10G13G06G16G28G11G19
 120332921.266 7  93765975.74445  22898597.203                    22898605.410
 111717026.074 8  87052229.684 7  21259040.156                    21259046.984
 113955666.267 7  88796651.77445  21685049.039                    21685055.227
 117184740.740 7  91312802.81944  22299513.648                    22299522.512
 128842411.183 6 100396687.51644  24517890.766                    24517900.457
 107268507.049 8  83585898.44846  20412525.086                    20412532.418
 127762051.852 5  99554798.25843  24312309.617                    24312319.020
 130422631.223 6 101627962.45243  24818584.984                    24818594.820
 123877652.159 7  96528060.36544  23573132.422                    23573140.938
 122923572.764 6  95784709.02642  23391590.930                    23391600.836
 110470458.130 7  86080917.17046  21021833.328                    21021838.492
 11  8 23 16 44 30.0000000  0 11G08G07G23G03G10G13G06G16G28G11G19
 120261186.169 7  93710078.30744  22884946.453                    22884954.773
 111667987.303 8  87014017.680 7  21249708.336                    21249715.133
 114048823.301 8  88869241.59645  21702776.156                    21702782.676
 117273734.486 7  91382148.57644  22316448.844                    22316457.137
 128889896.206 6 100433688.77544  24526926.203                    24526936.820
 107317278.373 8  83623902.04646  20421806.219                    20421813.414
 127858569.467 6  99630006.69243  24330675.391                    24330686.297
 130507423.123 6 101694033.99543  24834721.164                    24834729.988
 123825252.304 7  96487229.36044  23563161.086                    23563169.664
 122846855.280 6  95724929.23342  23376991.672                    23377002.070
 110497023.063 8  86101617.12446  21026888.172                    21026893.293
 11  8 23 16 45  0.0000000  0 11G08G07G23G03G10G13G06G16G28G11G19
 120189422.527 7  93654158.63845  22871289.688                    22871298.496
 111619081.255 8  86975909.091 7  21240401.688                    21240408.902
 114142327.258 8  88942101.74345  21720569.414                    21720576.551
 117363084.416 7  91451771.85444  22333451.539                    22333460.379
 128937615.274 6 100470872.41643  24536006.922                    24536017.746
 107366605.048 8  83662338.39146  20431192.695                    20431199.867
 127955288.717 6  99705372.28243  24349081.547                    24349091.270
 130592114.194 6 101760026.95843  24850837.469                    24850845.789
 123773067.077 7  96446565.61144  23553230.438                    23553238.941
 122770226.986 6  95665219.01242  23362410.289                    23362420.039
 110524188.833 7  86122785.25846  21032057.336                    21032063.313
 11  8 23 16 45 30.0000000  0 11G08G07G23G03G10G13G06G16G28G11G19
 120117631.400 7  93598217.53644  22857628.766                    22857636.863
 111570309.917 8  86937905.469 7  21231120.641                    21231128.086
 114236175.536 8  89015230.19445  21738428.156                    21738434.855
 117452787.616 7  91521670.41044  22350521.867                    22350530.563
 128985565.711 6 100508236.32844  24545132.148                    24545142.223
 107416485.951 8  83701206.60346  20440684.961                    20440692.375
 128052206.973 6  99780892.90443  24367523.398                    24367534.164
 130676703.847 6 101825940.92643  24866934.758                    24866942.398
 123721096.155 7  96406068.85144  23543339.961                    23543349.188
 122693690.760 6  95605580.50742  23347845.836                    23347855.629
 110551954.048 7  86144420.48646  21037341.172                    21037346.645
 11  8 23 16 46  0.0000000  0 11G08G07G23G03G10G13G06G16G28G11G19
 120045813.708 7  93542255.72744  22843962.617                    22843970.551
 111521673.793 8  86900007.214 7  21221865.641                    21221873.242
 114330365.385 8  89088624.79045  21756352.328                    21756358.797
 117542840.980 7  91591841.81144  22367658.180                    22367666.879
 129033744.408 6 100545778.13344  24554300.305                    24554310.496
 107466919.411 8  83740505.37246  20450282.016                    20450289.332
 128149321.654 6  99856566.61643  24386005.492                    24386014.703
 130761191.294 6 101891775.25443  24883010.914                    24883020.367
 123669339.213 7  96365738.82944  23533490.984                    23533499.730
 122617249.462 6  95546015.89342  23333299.422                    23333308.859
 110580317.404 7  86166521.79646  21042738.563                    21042744.305
 11  8 23 16 46 30.0000000  0 10G08G07G23G03G10G13G06G28G11G19
 119973970.357 7  93486273.95044  22830291.289                    22830299.434
 111473175.062 8  86862216.017 7  21212636.742                    21212643.895
 114424894.042 8  89162283.39045  21774340.102                    21774347.289
 117633241.784 7  91662283.96444  22384861.031                    22384870.117
 129082149.373 6 100583496.21943  24563511.414                    24563521.590
 107517903.891 8  83780233.51646  20459983.922                    20459991.395
 128246630.286 6  99932391.49643  24404522.000                    24404531.688
 123617795.521 7  96325574.97543  23523682.805                    23523691.422
 122540906.063 6  95486527.66042  23318770.922                    23318780.863
 110609278.056 8  86189088.52146  21048249.758                    21048255.520
 11  8 23 16 47  0.0000000  0 10G08G07G23G03G10G13G06G28G11G19
 119902102.259 7  93430272.87444  22816614.797                    22816622.848
 111424815.139 8  86824532.972 7  21203433.727                    21203441.348
 114519758.178 8  89236203.41445  21792392.305                    21792398.984
 117723987.184 7  91732994.59644  22402129.641                    22402138.316
 129130777.463 6 100621388.19343  24572764.906                    24572775.723
 107569437.618 8  83820389.63746  20469790.430                    20469797.633
 128344130.246 6 100008365.40343  24423075.844                    24423085.438
 123566464.606 7  96285576.90344  23513914.508                    23513923.184
 122464663.395 6  95427117.88742  23304262.727                    23304272.070
 110638834.550 7  86212119.54146  21053873.906                    21053879.301
 11  8 23 16 47 30.0000000  0 10G08G07G23G03G10G13G06G28G11G19
 119830210.791 7  93374253.59044  22802934.055                    22802942.281
 111376595.929 8  86786959.579 7  21194258.125                    21194265.285
 114614955.868 8  89310383.35245  21810507.977                    21810514.395
 117815073.966 7  91803971.26144  22419462.555                    22419471.301
 129179626.208 6 100659452.07943  24582060.914                    24582071.328
 107621519.340 8  83860972.77246  20479701.328                    20479708.367
 128441818.870 6 100084486.34643  24441664.828                    24441674.949
 123515346.088 6  96245744.31743  23504187.258                    23504195.238
 122388524.606 6  95367789.05952  23289773.664                    23289783.613
 110668985.979 7  86235614.14646  21059611.539                    21059617.441
 11  8 23 16 48  0.0000000  0 10G08G07G23G03G10G13G06G28G11G19
 119758296.488 7  93318216.51044  22789249.477                    22789257.836
 111328518.381 8  86749496.563 7  21185109.594                    21185116.293
 114710483.977 8  89384820.75845  21828686.414                    21828693.008
 117906499.431 7  91875211.83344  22436860.461                    22436869.273
 129228692.346 6 100697685.37443  24591398.117                    24591408.398
 107674147.113 8  83901981.40046  20489715.945                    20489723.367
 128539693.528 6 100160752.22043  24460289.758                    24460300.008
 123464439.240 6  96206076.67943  23494499.969                    23494508.242
 122312492.502 5  95308543.27952  23275305.672                    23275316.043
 110699730.927 8  86259571.25146  21065462.141                    21065467.766
 11  8 23 16 48 30.0000000  0 10G08G07G23G03G10G13G06G28G11G19
 119686360.449 7  93262162.49044  22775560.680                    22775568.742
 111280584.570 8  86712145.553 7  21175988.172                    21175995.223
 114806339.836 8  89459513.54245  21846927.070                    21846934.520
 117998261.058 7  91946714.35444  22454322.063                    22454330.965
 129277973.457 6 100736086.18443  24600775.875                    24600786.531
 107727319.784 8  83943414.61546  20499834.586                    20499841.965
 128637752.051 6 100237161.41443  24478949.781                    24478960.289
 123413743.740 6  96166573.72244  23484852.594                    23484861.250
 122236570.097 5                  23260857.844
 110731068.345 7  86283990.00946  21071425.586                    21071431.254
 11  8 23 16 49  0.0000000  0 10G08G07G23G03G10G13G06G28G11G19
 119614403.953 7  93206092.52544  22761867.297                    22761876.027
 111232795.816 8  86674907.575 7  21166894.031                    21166901.129
 114902520.726 8  89534459.57645  21865229.930                    21865236.996
 118090355.729 7  92018476.38944  22471847.695                    22471855.875
 129327466.604 6 100774652.16543  24610193.484                    24610203.789
 107781035.484 8  83985270.96846  20510056.586                    20510063.824
 128735991.617 6 100313711.69143  24497644.672                    24497654.324
 123363258.850 7  96127234.89844  23475245.695                    23475254.289
 122160760.310 5                  23246430.938
 110762996.886 8  86308869.39146  21077501.070                    21077506.566
 11  8 23 16 49 30.0000000  0 10G08G07G23G03G10G13G06G28G11G19
 119542427.961 7  93150007.36244  22748170.625                    22748179.047
 111185153.925 8  86637784.040 7  21157828.234                    21157835.258
 114999024.306 8  89609657.08445  21883594.156                    21883600.805
 118182780.514 7  92090495.67344  22489435.148                    22489443.746
 129377169.158 5 100813381.38542  24619651.320                    24619662.781
 107835292.949 8  84027549.48246  20520381.305                    20520388.621
 128834409.825 6 100390401.12543  24516373.242                    24516383.133
 123312984.400 6  96088060.04544  23465678.375                    23465687.578
 122085066.276 5                  23232027.438
 110795515.324 7  86334208.42446  21083689.289                    21083695.168
 11  8 23 16 50  0.0000000  0 10G08G07G23G03G10G13G06G28G11G19
 119470433.379 7  93093907.70745  22734470.922                    22734479.164
 111137660.753 8  86600776.393 7  21148790.555                    21148797.320
 115095846.776 8  89685103.08745  21902019.047                    21902025.211
 118275532.440 7  92162769.87144  22507085.227                    22507093.539
 129427078.579 6 100852271.77642  24629148.953                    24629160.582
 107890090.012 8  84070248.46346  20530808.867                    20530816.383
 128933004.314 6 100467227.94043  24535135.250                    24535144.805
 123262919.570 7  96049048.56044  23456151.750                    23456160.180
 122009490.773 6                  23217646.328
 110828622.333 7  86360006.09346  21089989.281                    21089995.242
 11  8 23 16 50 30.0000000  0 10G08G07G23G03G10G13G06G28G11G19
 119398421.357 7  93037794.48644  22720767.453                    22720775.594
 111090318.096 8  86563886.027 7  21139781.383                    21139788.664
 115192985.850 7  89760795.77845  21920503.648                    21920510.563
 118368608.780 7  92235296.87243  22524796.195                    22524805.180
 129477192.210 6 100891321.29442  24638686.602                    24638696.367
 107945425.593 8  84113367.06146  20541338.742                    20541346.492
 129031772.457 6 100544190.05743  24553930.563                    24553939.813
 123213064.393 6  96010200.42344  23446664.734                    23446672.887
 121934037.168 5                  23203287.469
 110862316.816 7  86386261.53546  21096401.266                    21096407.285
 11  8 23 16 51  0.0000000  0 10G08G07G23G03G10G13G06G28G11G19
 119326392.836 7  92981668.38945  22707061.000                    22707068.969
 111043127.090 8  86527113.833 7  21130801.086                    21130808.441
 115290438.646 8  89836732.91445  21939048.508                    21939055.316
 118462006.411 7  92308074.20444  22542569.391                    22542578.105
 129527507.344 6 100930527.76542  24648259.609                    24648271.441
 108001297.521 8  84156903.60346  20551970.930                    20551977.949
 129130711.667 6 100621285.48643  24572757.688                    24572767.582
 123163417.811 6  95971514.82144  23437217.086                    23437225.824
 121858708.279 6  94954927.87952  23188953.070                    23188962.824
 110896597.224 7  86412973.53746  21102924.773                    21102930.270
 11  8 23 16 51 30.0000000  0 10G08G07G23G03G10G13G06G28G11G19
 119254349.028 7  92925530.40544  22693351.516                    22693359.801
 110996089.384 8  86490461.093 7  21121850.297                    21121857.531
 115388202.438 8  89912912.40645  21957652.719                    21957659.188
 118555722.749 6  92381099.91343  22560403.102                    22560411.637
 129578020.670 6 100969888.79842  24657872.086                    24657883.617
 108057703.973 8  84200856.64746  20562704.539                    20562712.219
 129229819.294 5 100698512.11743  24591617.336                    24591627.109
 123113979.240 7  95932991.30744  23427809.305                    23427817.672
 121783506.986 6  94896329.55352  23174643.078                    23174652.762
 110931462.014 8  86440140.90446  21109559.164                    21109564.832
 11  8 23 16 52  0.0000000  0 10G08G07G23G03G10G13G06G28G11G19
 119182290.946 7  92869381.29945  22679638.875                    22679647.285
 110949207.003 8  86453929.389 7  21112928.914                    21112936.211
 115486274.459 7  89989332.06445  21976315.148                    21976322.188
 118649754.498 7  92454371.36443  22578297.344                    22578306.203
 129628730.149 6 101009402.65842  24667522.656                    24667533.172
 108114643.262 8  84245224.90046  20573540.102                    20573547.137
 129329092.967 6 100775868.16943  24610508.469                    24610518.574
 123064748.215 7  95894629.51744  23418440.828                    23418449.281
 121708436.361 6  94837833.02542  23160357.695                    23160366.863
 110966910.151 8  86467762.82646  21116304.836                    21116310.516
 11  8 23 16 52 30.0000000  0 10G08G07G23G03G10G13G06G28G11G19
 119110219.737 7  92813221.94944  22665924.141                    22665932.555
 110902481.265 8  86417519.745 7  21104037.195                    21104044.207
 115584651.941 7  90065989.75945  21995035.453                    21995042.738
 118744098.919 7  92527886.44544  22596250.398                    22596258.902
 129679632.721 6 101049066.93642  24677208.992                    24677219.309
 108172113.885 8  84290007.17046  20584476.453                    20584483.723
 129428530.392 6 100853351.80743  24629429.805                    24629441.082
 123015724.204 7  95856429.04144  23409111.805                    23409119.930
 121633499.114 5  94779440.35142  23146097.359                    23146106.480
 111002940.053 8  86495838.06846  21123161.117                    21123166.852
 11  8 23 16 53  0.0000000  0 10G08G07G23G03G10G13G06G28G11G19
 119038136.510 7  92757053.23145  22652207.141                    22652215.508
 110855914.280 8  86381233.789 7  21095175.617                    21095182.383
 115683332.145 7  90142883.31645  22013813.953                    22013821.133
 118838753.337 7  92601643.09144  22614263.008                    22614271.316
 129730725.376 6 101088879.40642  24686931.609                    24686941.977
 108230114.111 8  84335202.12046  20595513.383                    20595520.668
 129528128.812 5 100930960.88743  24648383.500                    24648394.500
 122966906.688 7  95818389.45544  23399821.797                    23399830.398
 121558698.783 6  94721154.49042  23131862.344                    23131872.047
 111039550.395 8  86524365.60346  21130128.047                    21130133.766
 11  8 23 16 53 30.0000000  0 10G08G07G23G03G10G13G06G28G11G19
 118966042.342 7  92700875.99045  22638488.023                    22638496.238
 110809507.729 8  86345072.863 7  21086344.703                    21086351.895
 115782312.075 7  90220010.45145  22032649.445                    22032655.922
 118933714.806 7  92675638.99144  22632333.664                    22632341.922
 129782005.565 6 101128837.93143  24696689.766                    24696700.559
 108288642.232 8  84380808.41046  20606651.039                    20606658.375
 129627886.079 6 101008693.72943  24667366.727                    24667377.012
 122918295.054 7  95780510.31344  23390572.172                    23390580.234
 121484038.292 6  94662977.55042  23117655.680                    23117664.699
 111076739.781 8  86553344.34146  21137204.664                    21137210.105
 11  8 23 16 54  0.0000000  0 10G08G07G23G03G10G13G06G28G11G19
 118893938.230 7  92644690.99444  22624767.367                    22624775.293
 110763263.060 8  86309038.066 7  21077545.227                    21077551.941
 115881588.722 7  90297368.78145  22051541.406                    22051548.105
 119028980.269 7  92749871.75544  22650461.688                    22650470.910
 129833470.462 6 101168940.39543  24706483.563                    24706493.691
 108347696.152 8  84426824.41946  20617888.469                    20617896.129
 129727799.132 6 101086547.98043  24686380.031                    24686389.836
 122869888.685 6  95742791.11144  23381360.156                    23381368.738
 121409520.544 6  94604911.73042  23103475.656                    23103484.836
 111114506.443 8  86582772.90546  21144391.086                    21144397.043
 11  8 23 16 54 30.0000000  0 10G08G07G23G03G10G13G06G28G11G19
 118821825.754 7  92588499.48044  22611044.742                    22611052.824
 110717181.811 8  86273130.616 7  21068776.016                    21068782.762
 115981159.390 7  90374956.22145  22070488.445                    22070495.789
 119124546.712 7  92824339.06744  22668647.773                    22668656.387
 129885117.328 6 101209184.65443  24716311.305                    24716322.223
 108407273.883 8  84473248.58946  20629225.828                    20629233.461
 129827865.776 6 101164521.90743  24705423.289                    24705432.500
 122821686.817 7  95705231.25744  23372187.680                    23372196.223
 121335148.399 5                  23089320.820
 111152848.852 8  86612650.10046  21151687.891                    21151693.590
 11  8 23 16 55  0.0000000  0 10G08G07G23G03G10G13G06G28G11G19
 118749705.683 7  92532302.05644  22597320.492                    22597328.016
 110671265.816 8  86237351.930 7  21060038.242                    21060045.391
 116081021.301 7  90452770.59245  22089491.938                    22089498.797
 119220411.351 7  92899038.72644  22686889.992                    22686898.871
 129936943.328 6 101249568.48443  24726174.422                    24726184.074
 108467373.615 8  84520079.51746  20640662.453                    20640670.195
 129928083.483 6 101242613.53443  24724492.875                    24724503.129
 122773688.891 6  95667830.33044  23363053.547                    23363061.980
 121260925.015 5                  23075197.453
 111191765.323 8  86642974.61546  21159093.516                    21159099.102
 11  8 23 16 55 30.0000000  0 10G08G07G23G03G10G13G06G28G11G19
 118677579.596 7  92476099.94944  22583595.594                    22583603.605
 110625517.054 8  86201703.564 7  21051332.367                    21051339.602
 116181171.478 8  90530809.61245  22108550.250                    22108556.816
 119316571.237 7  92973968.44544  22705188.617                    22705197.531
 129988946.178 6 101290090.14743  24736069.930                    24736079.902
 108527993.738 8  84567315.93846  20652198.055                    20652205.367
 130028449.947 6 101320821.12043  24743592.063                    24743602.273
 122725894.782 6  95630588.20644  23353959.273                    23353967.078
 121186853.298 6                  23061102.008
 111231254.933 8  86673745.72846  21166607.547                    21166613.473
 11  8 23 16 56  0.0000000  0 10G08G07G23G03G10G13G06G28G11G19
 118605448.593 7  92419894.01145  22569869.313                    22569877.648
 110579937.117 7  86166186.742 7  21042659.055                    21042665.867
 116281607.285 8  90609071.19645  22127662.273                    22127669.359
 119413023.369 7  93049125.87744  22723542.680                    22723551.473
 130041122.715 6 101330747.13143  24745999.016                    24746008.813
 108589132.245 8  84614956.30246  20663832.313                    20663839.762
 130128962.466 6 101399142.45643  24762718.523                    24762728.965
 122678303.377 6  95593504.03244  23344902.656                    23344910.984
 121112936.552 6                  23047036.055
 111271315.923 8  86704962.07746  21174231.500                    21174237.168
 11  8 23 16 56 30.0000000  0 10G08G07G23G03G10G13G06G28G11G19
 118533313.648 7  92363685.00945  22556142.383                    22556150.449
 110534527.384 8  86130802.543 7  21034017.641                    21034024.602
 116382325.537 7  90687552.84945  22146828.367                    22146835.703
 119509765.032 7  93124508.90044  22741952.203                    22741960.863
 130093470.258 6 101371537.35243  24755960.453                    24755970.816
 108650786.959 8  84662998.88946  20675564.789                    20675572.820
 130229618.412 6 101477575.66243  24781872.617                    24781883.055
 122630914.116 7  95556577.33944  23335884.875                    23335892.586
 121039177.517 6                  23033000.453
 111311946.303 8  86736622.10246  21181963.148                    21181969.031
 11  8 23 16 57  0.0000000  0 11G08G07G23G01G03G10G13G06G28G11G19
 118461176.147 7  92307473.98745  22542414.750                    22542423.094
 110489289.845 7  86095552.514 7  21025408.719                    21025416.297
 116483323.526 7  90766252.48345  22166047.617                    22166055.395
 129656896.36116 101031404.54616  24672897.047                    24672913.137
 119606793.471 7  93200115.38843  22760416.117                    22760425.059
 130145985.609 6 101412458.32243  24765953.398                    24765963.895
 108712956.175 8  84711442.39746  20687395.242                    20687403.000
 130330415.570 6 101556118.84143  24801053.484                    24801064.523
 122583726.367 7  95519807.68144  23326905.055                    23326912.684
 120965579.537 6                  23018995.289
 111353144.571 8  86768724.63146  21189802.875                    21189808.836
 11  8 23 16 57 30.0000000  0 11G08G07G23G01G03G10G13G06G28G11G19
 118389037.239 7  92251261.88645  22528687.508                    22528695.637
 110444226.011 7  86060437.847 7  21016833.719                    21016840.516
 116584598.040 7  90845167.57945  22185320.000                    22185327.031
 129582485.759 6 100973422.384 6  24658737.023                    24658753.777
 119704105.418 7  93275942.83943  22778933.984                    22778942.484
 130198666.173 6 101453508.07243  24775978.320                    24775989.027
 108775637.517 8  84760284.95946  20699323.422                    20699330.461
 130431351.236 6 101634769.93643  24820262.242                    24820271.879
 122536739.534 7  95483194.58444  23317964.109                    23317971.715
 120892145.032 6                  23005020.906
 111394908.875 8  86801268.22946  21197750.086                    21197755.559
 11  8 23 16 58  0.0000000  0 11G08G07G23G01G03G10G13G06G28G11G19
 118316898.178 7  92195049.64945  22514960.086                    22514968.285
 110399338.168 7  86025460.312 7  21008291.922                    21008298.840
 116686146.702 8  90924296.30145  22204644.070                    22204651.363
 129507960.915 6 100915351.220 6  24644555.008                    24644572.434
 119801698.328 7  93351989.19543  22797505.211                    22797514.020
 130251509.362 6 101494684.50043  24786034.086                    24786044.625
 108838829.634 8  84809525.53446  20711348.813                    20711355.855
 130532423.199 6 101713527.26143  24839495.289                    24839505.555
 122489953.204 7  95446737.73544  23309061.367                    23309069.066
 120818877.591 6  94144655.85952  22991078.945                    22991087.980
 111437237.943 8  86834251.90446  21205805.078                    21205810.699
 11  8 23 16 58 30.0000000  0 11G08G07G23G01G03G10G13G06G28G11G19
 118244760.168 7  92138838.24145  22501232.680                    22501240.820
 110354627.659 7  85990620.956 7  20999783.711                    20999790.836
 116787966.512 7  91003636.30445  22224019.281                    22224026.832
 129433324.399 6 100857193.011 6  24630352.141                    24630369.238
 119899569.019 7  93428252.03943  22816129.977                    22816138.055
 130304512.157 6 101535985.31143  24796120.828                    24796130.477
 108902530.001 8  84859162.13646  20723470.344                    20723477.875
 130633628.923 6 101792388.82543  24858754.094                    24858764.184
 122443366.325 6  95410436.30744  23300195.469                    23300204.180
 120745779.932 6  94087696.73542  22977169.773                    22977178.477
 111480129.977 8  86867674.24946  21213967.289                    21213973.105
 11  8 23 16 59  0.0000000  0 10G08G07G23G01G03G10G13G28G11G19
 118172624.572 7  92082628.71045  22487505.297                    22487513.375
 110310096.650 7  85955921.465 7  20991309.547                    20991316.828
 116890054.948 7  91083185.60645  22243446.234                    22243453.574
 129358578.909 6 100798949.852 6  24616128.328                    24616144.457
 119997715.151 7  93504729.52344  22834806.547                    22834814.875
 130357672.397 6 101577408.80043  24806236.109                    24806246.457
 108966736.977 8  84909193.49446  20735688.375                    20735696.012
 122396978.717 7  95374290.14744  23291368.180                    23291376.469
 120672855.371 6  94030872.48442  22963291.906                    22963301.211
 111523583.630 8  86901534.22046  21222236.398                    21222242.430
 11  8 23 16 59 30.0000000  0 10G08G07G23G01G03G10G13G28G11G19
 118100493.065 7  92026422.38145  22473779.703                    22473787.652
 110265746.887 7  85921363.225 7  20982870.148                    20982877.383
 116992408.831 7  91162941.75745  22262924.109                    22262931.035
 129283726.904 5 100740623.732 5  24601883.875                    24601900.383
 120096133.295 7  93581418.96844  22853534.727                    22853543.063
 130410987.241 6 101618952.77643  24816382.891                    24816391.957
 109031448.576 8  84959618.08346  20748002.375                    20748010.215
 122350789.706 7  95338298.73244  23282578.875                    23282587.121
 120600107.093 6  93974185.57342  22949448.953                    22949457.219
 111567596.971 8  86935830.31946  21230611.469                    21230617.715
 11  8 23 17  0  0.0000000  0 10G08G07G23G01G03G10G13G28G11G19
 118028366.508 7  91970219.89245  22460053.891                    22460062.910
 110221579.849 8  85886947.342 7  20974465.367                    20974472.535
 117095025.096 7  91242902.39145  22282451.445                    22282458.941
 129208770.724 5 100682216.409 5  24587619.766                    24587637.305
 120194820.808 7  93658318.28144  22872314.359                    22872322.711
 130464453.249 6 101660614.50843  24826556.594                    24826566.320
 109096662.576 8  85010434.14046  20760412.500                    20760419.996
 122304798.357 7  95302461.35844  23273826.891                    23273834.891
 120527537.867 6  93917638.11042  22935638.352                    22935647.500
 111612168.138 7  86970561.07846  21239093.414                    21239099.418
 11  8 23 17  0 30.0000000  0 10G08G07G23G01G03G10G13G28G11G19
 117956246.194 7  91914022.28045  22446330.188                    22446337.637
 110177597.358 8  85852675.286 7  20966096.156                    20966102.672
 117197900.671 7  91323065.07645  22302028.172                    22302035.145
 129133713.264 5 100623730.158 5  24573337.211                    24573354.418
 120293774.504 7  93735424.99844  22891144.633                    22891153.148
 130518067.881 6 101702392.08743  24836758.156                    24836769.688
 109162376.703 8  85061639.91246  20772917.406                    20772924.922
 122259004.003 7  95266777.49244  23265111.961                    23265120.285
 120455150.802 5  93861232.72242  22921863.461                    22921873.234
 111657295.366 8  87005725.12846  21247680.703                    21247686.512
 11  8 23 17  1  0.0000000  0 11G08G07G23G01G24G03G10G13G28G11G19
 117884133.303 7  91857830.45345  22432606.805                    22432615.215
 110133801.415 8  85818548.581 7  20957762.344                    20957768.805
 117301033.063 7  91403427.88745  22321653.078                    22321660.625
 129058556.52915 100565166.59915  24559035.938                    24559052.777
 128104908.26115                  24377550.820
 120392991.622 6  93812736.97244  22910025.797                    22910033.738
 130571828.510 6 101744283.40542  24846988.906                    24846999.848
 109228588.786 8  85113233.69346  20785517.695                    20785524.898
 122213406.096 7  95231246.71044  23256435.461                    23256443.715
 120382948.832 5  93804971.51442  22908123.555                    22908133.723
 111702976.852 7  87041321.08346  21256373.867                    21256379.363
 11  8 23 17  1 30.0000000  0 11G08G07G23G01G24G03G10G13G28G11G19
 117812029.037 7  91801645.33145  22418886.250                    22418894.422
 110090193.188 8  85784568.154 7  20949463.891                    20949470.543
 117404419.092 7  91483988.31345  22341327.344                    22341334.781
 128983303.164 5 100506527.724 5  24544715.156                    24544732.211
 128033499.960 5                  24363962.539
 120492469.161 7  93890251.85844  22928954.852                    22928964.008
 130625731.918 6 101786285.93942  24857246.141                    24857257.387
 109295296.604 8  85165213.77246  20798211.945                    20798219.008
 122168003.445 7  95195868.08444  23247795.734                    23247803.820
 120310934.445 5  93748856.41842  22894419.844                    22894429.887
 111749210.460 8  87077347.25746  21265172.000                    21265177.340
 11  8 23 17  2  0.0000000  0 11G08G07G23G01G24G03G10G13G28G11G19
 117739935.230 7  91745468.34945  22405167.250                    22405175.887
 110046775.071 8  85750735.863 7  20941201.508                    20941208.297
 117508056.139 7  91564744.34045  22361049.000                    22361056.320
 128907956.820 5 100447816.457 6  24530376.703                    24530394.141
 127962015.04415                  24350358.727
 120592204.554 7  93967967.67944  22947934.109                    22947942.844
 130679775.692 6 101828397.91043  24867530.844                    24867541.734
 109362498.567 8  85217578.89346  20810999.648                    20811007.266
 122122795.917 7  95160641.48144  23239192.867                    23239201.465
 120239111.403 5  93692890.52742  22880752.383                    22880762.285
 111795994.944 8  87113802.69446  21274074.492                    21274080.352
 11  8 23 17  2 30.0000000  0 11G08G07G23G01G24G03G10G13G28G11G19
 117667853.184 7  91689300.54945  22391450.734                    22391458.785
 110003548.537 8  85717052.861 7  20932975.539                    20932982.461
 117611940.913 7  91645693.40245  22380817.750                    22380824.918
 128832519.022 5 100389033.843 6  24516022.156                    24516038.582
 127890456.198 5                  24336742.742
 120692194.535 6  94045881.86643  22966961.391                    22966970.035
 130733957.075 5 101870617.09542  24877840.148                    24877852.754
 109430192.296 8  85270327.22146  20823881.031                    20823888.965
 122077782.543 7  95125566.19744  23230626.719                    23230635.434
 120167482.915 6  93637076.14742  22867122.359                    22867131.555
 111843328.078 8  87150685.63846  21283081.188                    21283087.637
 11  8 23 17  3  0.0000000  0 11G08G07G23G01G24G03G10G13G28G11G19
 117595783.974 7  91633142.73745  22377736.164                    22377744.422
 109960515.445 8  85683520.584 7  20924787.141                    20924793.797
 117716070.467 7  91726833.20245  22400632.539                    22400640.496
 128756992.766 6 100330182.289 6  24501649.719                    24501666.492
 127818825.792 5                  24323111.609
 120792436.009 6  94123992.04644  22986036.766                    22986045.840
 130788272.668 6 101912940.85943  24888176.656                    24888188.688
 109498375.060 8  85323456.60046  20836855.961                    20836864.035
 122032962.697 7  95090641.68544  23222097.984                    23222106.336
 120096051.539 6  93581415.42442  22853529.820                    22853538.465
 111891207.513 8  87187994.26346  21292192.938                    21292198.645
 11  8 23 17  3 30.0000000  0 11G08G07G23G01G24G03G10G13G28G11G19
 117523728.777 7  91576995.85945  22364024.617                    22364033.148
 109917677.604 8  85650140.461 7  20916635.180                    20916641.898
 117820442.214 7  91808161.71345  22420493.961                    22420501.801
 128681380.601 6 100271263.800 6  24487261.313                    24487278.664
 127747126.54915                  24309467.539
 120892926.704 7  94202296.41944  23005160.031                    23005168.688
 130842720.275 6 101955367.47443  24898538.078                    24898549.859
 109567045.028 8  85376965.61446  20849923.438                    20849931.160
 121988335.377 7  95055867.19844  23213605.430                    23213614.008
 120024820.193 6  93525910.54242  22839974.438                    22839983.918
 111939631.923 8  87225727.55346  21301407.883                    21301413.668
 11  8 23 17  4  0.0000000  0 11G08G07G23G01G24G03G10G13G28G11G19
 117451689.328 7  91520861.23845  22350316.094                    22350323.895
 109875036.979 7  85616914.012 7  20908520.773                    20908527.629
 117925052.953 7  91889676.44845  22440401.094                    22440408.707
 128605685.278 5 100212280.552 6  24472856.859                    24472873.723
 127675361.39415                  24295811.305
 120993663.518 7  94280792.54244  23024329.500                    23024338.645
 130897296.920 6 101997894.67042  24908923.336                    24908935.070
 109636200.204 8  85430852.72046  20863082.969                    20863090.863
 121943900.600 6  95021242.72744  23205150.461                    23205157.824
 119953791.932 6  93470563.96442  22826459.219                    22826467.188
 111988599.506 8  87263884.10246  21310726.344                    21310732.051
 11  8 23 17  4 30.0000000  0 11G08G07G23G01G24G03G10G13G28G11G19
 117379667.034 7  91464739.98645  22336610.422                    22336618.746
 109832595.392 7  85583842.651 7  20900444.172                    20900451.547
 118029900.001 7  91971375.33745  22460353.188                    22460360.523
 128529909.428 5 100153234.556 6  24458436.820                    24458453.910
 127603532.97215                  24282143.008
 121094643.562 7  94359478.22843  23043545.797                    23043554.410
 130951999.948 6 102040520.31942  24919333.727                    24919344.332
 109705838.202 8  85485116.04846  20876335.297                    20876343.141
 121899657.103 7  94986767.30744  23196730.914                    23196738.969
 119882970.295 6  93415378.34242  22812981.398                    22812990.383
 112038108.080 8  87302462.19446  21320147.070                    21320152.664
 11  8 23 17  5  0.0000000  0 10G08G07G23G01G24G03G13G28G11G19
 117307663.702 7  91408633.52045  22322908.711                    22322916.934
 109790354.778 7  85550927.891 7  20892406.234                    20892413.184
 118134980.321 7  92053255.96245  22480348.867                    22480356.781
 128454055.943 6 100094128.058 6  24444001.609                    24444018.730
 127531644.36015                  24268461.930
 121195864.228 7  94438351.42243  23062807.047                    23062815.758
 109775957.159 8  85539754.14246  20889678.461                    20889686.094
 121855604.307 7  94952440.47644  23188348.570                    23188355.602
 119812358.141 6  93360356.02442  22799544.578                    22799553.293
 112088156.107 8  87341460.64446  21329671.063                    21329676.965
 11  8 23 17  5 30.0000000  0 10G08G07G23G01G24G03G13G28G11G19
 117235680.362 7  91352542.63645  22309210.039                    22309218.395
 109748316.794 8  85518171.030 7  20884406.992                    20884413.773
 118240291.224 7  92135316.26245  22500388.938                    22500396.262
 128378127.283 6 100034962.987 6  24429553.664                    24429569.910
 127459698.00915                  24254771.227
 121297322.347 7  94517409.64743  23082113.625                    23082122.391
 109846554.358 8  85594764.90746  20903112.719                    20903120.082
 121811741.219 7  94918261.47544  23180001.141                    23180009.227
 119741958.596 6  93305499.29742  22786147.703                    22786156.230
 112138741.100 8  87380877.51046  21339297.023                    21339302.641
 11  8 23 17  6  0.0000000  0 10G08G07G23G01G24G03G13G28G11G19
 117163717.937 7  91296468.04145  22295516.336                    22295524.730
 109706482.831 8  85485573.136 7  20876446.055                    20876452.453
 118345829.359 7  92217553.65244  22520472.617                    22520479.504
 128302125.628 5  99975741.014 6  24415090.727                    24415107.289
 127387696.46215                  24241071.000
 121399014.862 7  94596650.50443  23101465.430                    23101473.980
 109917627.046 8  85650146.16746  20916637.180                    20916644.863
 121768067.119 7  94884229.73944  23171690.500                    23171697.750
 119671774.132 6  93250810.12442  22772791.117                    22772800.051
 112189860.958 8  87420711.14946  21349024.969                    21349030.578
 11  8 23 17  6 30.0000000  0 10G08G07G23G01G24G03G13G28G11G19
 117091778.545 7  91240411.40645  22281827.117                    22281834.922
 109664855.378 8  85453136.169 7  20868524.742                    20868531.484
 118451591.943 7  92299965.93644  22540598.758                    22540605.520
 128226054.869 6  99916465.241 6  24400615.422                    24400631.914
 127315642.656 6                  24227360.250
 121500939.000 7  94676071.84243  23120860.484                    23120869.859
 109989173.679 8  85705896.74646  20930252.023                    20930260.168
 121724581.449 7  94850344.83444  23163415.070                    23163422.867
 119601808.119 6  93196291.22842  22759477.898                    22759486.113
 112241513.956 8  87460960.22346  21358853.953                    21358860.227
 11  8 23 17  7  0.0000000  0 10G08G07G23G01G24G03G13G28G11G19
 117019863.240 7  91184373.53345  22268142.180                    22268150.160
 109623436.262 8  85420861.544 7  20860642.883                    20860649.930
 118557575.978 7  92382550.78145  22560766.758                    22560773.707
 128149917.061 5  99857137.245 5  24386126.352                    24386143.383
 127243539.602 5                  24213638.969
 121603092.209 7  94755671.68843  23140300.750                    23140309.316
 110061191.865 8  85762014.76046  20943956.766                    20943964.402
 121681283.595 7  94816606.26344  23155175.680                    23155183.422
 119532063.625 6  93141944.95043  22746205.648                    22746215.289
 112293698.327 8  87501623.35246  21368784.578                    21368790.547
 11  8 23 17  7 30.0000000  0 10G08G07G23G01G24G03G13G28G11G19
 116947973.411 7  91128355.50845  22254461.547                    22254469.707
 109582226.825 8  85388750.301 7  20852800.977                    20852807.875
 118663778.621 7  92465305.97445  22580976.453                    22580984.395
 128073714.882 6  99797759.040 6  24371626.125                    24371641.984
 127171389.70315                  24199908.031
 121705471.388 7  94835447.59443  23159782.375                    23159790.766
 110133679.002 8  85818498.19246  20957750.672                    20957758.152
 121638172.466 7  94783013.20845  23146971.898                    23146979.977
 119462543.680 5  93087773.64543  22732975.531                    22732986.258
 112346411.552 8  87542698.57046  21378815.430                    21378821.043
 11  8 23 17  8  0.0000000  0 10G08G07G23G01G24G03G13G28G11G19
 116876110.992 7  91072358.83045  22240786.852                    22240795.305
 109541229.631 8  85356804.446 7  20844999.398                    20845006.625
 118770197.235 7  92548229.42245  22601227.250                    22601235.633
 127997451.210 5  99738333.009 5  24357112.688                    24357128.176
 127099196.04615                  24186169.469
 121808073.829 6  94915397.48643  23179306.953                    23179315.719
 110206632.982 8  85875345.39746  20971633.781                    20971641.199
 121595247.550 7  94749565.24144  23138803.359                    23138811.867
 119393251.254 6  93033779.61243  22719790.516                    22719800.191
 112399651.793 8  87584184.45746  21388946.445                    21388952.539
 11  8 23 17  8 30.0000000  0 10G08G07G23G01G24G03G13G28G11G19
 116804277.453 7  91016384.64545  22227117.055                    22227125.484
 109500446.453 8  85325025.362 7  20837238.328                    20837245.773
 118876828.798 7  92631318.79645  22621518.898                    22621526.957
 127921128.985 6  99678861.166 5  24342588.945                    24342604.223
 127026961.27315                  24172423.664
 121910896.724 6  94995519.14943  23198873.219                    23198882.773
 110280051.600 8  85932554.65446  20985604.547                    20985612.113
 121552508.205 7  94716261.89445  23130670.289                    23130679.063
 119324189.838 6  92979965.57942  22706646.953                    22706657.746
 112453417.185 8  87626079.54846  21399178.133                    21399183.531
 11  8 23 17  9  0.0000000  0 10G08G07G23G01G24G03G13G28G11G19
 116732474.204 7  90960434.07345  22213453.758                    22213462.090
 109459878.729 8  85293414.162 8  20829518.828                    20829525.680
 118983669.818 7  92714571.39645  22641850.523                    22641858.234
 127844750.293 6  99619345.526 6  24328053.984                    24328070.582
 126954688.232 5                  24158670.656
 122013937.291 6  95075810.40643  23218481.688                    23218491.148
 110353932.160 8  85990123.87046  20999663.711                    20999671.219
 121509953.464 7  94683102.39445  23122572.813                    23122580.844
 119255361.965 5  92926333.50243  22693549.266                    22693559.734
 112507705.383 8  87668382.01546  21409508.211                    21409514.316
 11  8 23 17  9 30.0000000  0 10G08G07G23G01G24G03G13G28G11G19
 116660702.311 7  90904507.93445  22199796.313                    22199804.012
 109419527.952 8  85261971.997 7  20821840.313                    20821847.195
 119090717.739 7  92797985.22245  22662220.789                    22662228.754
 127768318.000 6  99559787.996 5  24313510.297                    24313526.293
 126882379.470 5                  24144910.742
 122117192.145 7  95156268.67444  23238130.047                    23238140.305
 110428271.920 8  86048050.88746  21013810.008                    21013817.527
 121467582.389 7  94650085.99445  23114509.555                    23114517.758
 119186770.506 6  92872885.64943  22680497.430                    22680507.012
 112562514.000 8  87711090.01746  21419938.742                    21419944.387
 11  8 23 17 10  0.0000000  0 10G08G07G23G01G24G03G13G28G11G19
 116588963.560 7  90848607.62545  22186144.539                    22186152.277
 109379396.571 8  85230700.795 8  20814203.484                    20814210.488
 119197969.415 7  92881557.83144  22682630.320                    22682637.566
 127691834.877 6  99500190.964 6  24298956.219                    24298972.078
 126810037.664 5                  24131144.977
 122220659.053 7  95236892.13643  23257819.500                    23257828.578
 110503068.588 8  86106333.94745  21028043.367                    21028050.777
 121425394.014 6  94617211.97145  23106480.992                    23106489.668
 119118418.598 6  92819624.44943  22667491.422                    22667500.395
 112617840.937 7  87754201.89146  21430466.805                    21430472.539
 11  8 23 17 10 30.0000000  0 10G08G07G23G01G24G03G13G28G11G19
 116517259.709 7  90792734.51445  22172499.695                    22172507.973
 109339486.661 8  85199602.163 8  20806609.063                    20806615.629
 119305422.175 7  92965287.10544  22703078.125                    22703085.875
 127615304.406 5  99440556.977 5  24284391.523                    24284408.750
 126737666.298 5                  24117372.109
 122324334.892 7  95317678.41244  23277549.148                    23277557.457
 110578320.335 7  86164971.62445  21042363.500                    21042370.934
 121383388.154 7  94584480.15645  23098488.023                    23098496.117
 119050309.592 6  92766552.54343  22654530.203                    22654539.602
 112673684.389 7  87797716.25846  21441093.258                    21441099.262
 11  8 23 17 11  0.0000000  0 10G08G07G23G01G24G03G13G28G11G19
 116445592.234 7  90736889.76045  22158861.844                    22158869.902
 109299799.980 8  85168677.470 8  20799056.836                    20799063.961
 119413072.898 7  93049170.62045  22723563.523                    22723571.594
 127538728.515 6  99380887.648 6  24269820.180                    24269836.594
 126665267.84715                  24103593.703
 122428217.023 7  95398625.44943  23297316.789                    23297325.645
 110654024.462 7  86223961.79145  21056769.961                    21056777.215
 121341563.679 7  94551889.68745  23090528.789                    23090537.445
 118982446.601 6  92713672.35843  22641617.086                    22641625.535
 112730042.105 7  87841631.34346  21451818.023                    21451823.746
 11  8 23 17 11 30.0000000  0 10G08G07G23G01G24G03G13G28G11G19
 116373962.632 7  90681074.51245  22145231.047                    22145239.031
 109260337.841 7  85137927.753 8  20791547.492                    20791554.629
 119520918.160 7  93133205.73244  22744085.891                    22744093.605
 127462110.254 5  99321185.318 5  24255239.672                    24255255.789
 126592844.68114                  24089813.586
 122532302.054 6  95479730.58943  23317124.492                    23317133.051
 110730177.975 7  86283302.13045  21071261.203                    21071268.336
 121299919.671 7  94519439.83245  23082604.727                    23082612.805
 118914831.820 6  92660985.58243  22628750.609                    22628759.223
 112786911.474 7  87885945.11946  21462639.891                    21462645.742
 11  8 23 17 12  0.0000000  0  9G08G07G23G01G03G13G28G11G19
 116302372.540 7  90625290.04145  22131608.203                    22131615.715
 109221102.838 8  85107355.011 8  20784081.406                    20784088.273
 119628955.995 7  93217390.89744  22764645.008                    22764652.891
 127385452.345 6  99261451.993 5  24240652.188                    24240667.738
 122636587.748 6  95560992.07643  23336968.375                    23336978.070
 110806779.139 7  86342991.29045  21085838.117                    21085845.398
 121258455.638 7  94487130.21745  23074714.227                    23074721.926
 118847468.764 7  92608494.95942  22615932.047                    22615940.172
 112844290.845 7  87930656.30546  21473558.961                    21473564.734
 11  8 23 17 12 30.0000000  0  9G08G07G23G01G03G13G28G11G19
 116230823.526 7  90569537.58545  22117992.711                    22118000.488
 109182096.528 8  85076960.473 8  20776658.359                    20776665.586
 119737182.890 7  93301723.38944  22785239.273                    22785247.871
 127308757.692 6  99201690.140 5  24226057.227                    24226073.844
 122741071.232 6  95642407.72443  23356851.039                    23356860.168
 110883825.320 8  86403027.22845  21100499.117                    21100506.734
 121217170.578 7  94454960.07645  23066857.555                    23066865.445
 118780360.584 6  92556202.95542  22603161.172                    22603169.082
 112902177.707 7  87975762.92646  21484574.445                    21484580.047
 11  8 23 17 13  0.0000000  0  9G08G07G23G01G03G13G28G11G19
 116159316.875 7  90513818.12545  22104385.656                    22104393.637
 109143320.442 7  85046745.331 8  20769279.688                    20769287.000
 119845595.658 7  93386200.73244  22805869.938                    22805877.633
 127232028.977 6  99141901.628 5  24211456.922                    24211472.090
 122845749.354 6  95723974.99443  23376771.258                    23376780.168
 110961313.338 8  86463407.43645  21115244.852                    21115252.477
 121176063.462 7  94422928.57045  23059035.422                    23059042.965
 118713509.781 6  92504111.49942  22590438.633                    22590447.727
 112960569.523 7  88021263.02846  21495685.648                    21495691.809
 11  8 23 17 13 30.0000000  0  9G08G07G23G01G03G13G28G11G19
 116087854.648 7  90458133.28945  22090787.094                    22090794.566
 109104777.039 7  85016711.485 8  20761944.617                    20761952.188
 119954191.876 7  93470821.03844  22826535.461                    22826543.074
 127155269.143 6  99082088.971 5  24196849.898                    24196866.027
 122950619.684 6  95805692.07943  23396727.156                    23396735.602
 111039241.230 8  86524130.41145  21130074.359                    21130081.512
 121135133.513 7  94391035.13145  23051246.828                    23051254.836
 118646919.642 6  92452223.14042  22577767.602                    22577775.492
 113019464.845 7  88067155.46946  21506893.336                    21506899.055
 11  8 23 17 14  0.0000000  0 10G08G07G23G01G24G03G13G28G11G19
 116016437.893 8  90402483.88545  22077196.383                    22077204.906
 109066468.135 7  84986860.380 8  20754655.273                    20754662.508
 120062968.454 7  93555581.86544  22847235.008                    22847242.855
 127078480.903 5  99022254.109 6  24182235.688                    24182252.863
 126230460.81515                  24020854.047
 123055679.393 6  95887556.69843  23416719.070                    23416728.012
 111117606.498 7  86585194.19545  21144986.141                    21144994.051
 121094380.150 7  94359279.29145  23043491.750                    23043499.750
 118580593.406 6  92400540.40242  22565145.922                    22565154.566
 113078860.831 7  88113438.03145  21518195.805                    21518201.984
 11  8 23 17 14 30.0000000  0 10G08G07G23G01G24G03G13G28G11G19
 115945068.247 7  90346871.18945  22063615.258                    22063623.281
 109028395.261 7  84957193.194 8  20747410.305                    20747417.277
 120171921.985 7  93640480.57045  22867968.031                    22867976.113
 127001666.391 5  98962398.838 6  24167620.094                    24167637.117
 126157951.302 5                  24007056.391
 123160925.179 6  95969566.32243  23436746.844                    23436755.020
 111196406.171 8  86646596.47545  21159981.625                    21159988.996
 121053802.475 7  94327660.35344  23035769.813                    23035777.746
 118514533.574 6  92349065.28542  22552574.398                    22552583.781
 113138755.094 7  88160108.86546  21529593.648                    21529599.465
 11  8 23 17 15  0.0000000  0 10G08G07G23G01G24G03G13G28G11G19
 115873747.921 7  90291296.93145  22050043.367                    22050051.230
 108990560.663 7  84927711.667 8  20740210.633                    20740217.848
 120281049.570 7  93725514.89144  22888734.383                    22888742.727
 126924829.352 5  98902525.986 6  24152998.086                    24153014.555
 126085437.392 5                  23993258.133
 123266354.497 6  96051718.95843  23456809.664                    23456817.758
 111275638.019 7  86708335.51345  21175059.164                    21175067.449
 121013399.546 7  94296177.58244  23028080.930                    23028089.105
 118448743.375 6  92297800.24142  22540055.359                    22540063.934
 113199145.295 7  88207166.14646  21541085.664                    21541091.406
 11  8 23 17 15 30.0000000  0 10G08G07G23G01G24G03G13G28G11G19
 115802478.458 7  90235762.30545  22036481.117                    22036489.004
 108952966.555 7  84898417.543 8  20733056.641                    20733063.691
 120390348.800 7  93810682.94444  22909534.148                    22909541.781
 126847972.276 5  98842637.552 6  24138370.727                    24138389.746
 126012922.290 5                  23979458.305
 123371965.105 6  96134012.87243  23476906.367                    23476915.141
 111355299.778 7  86770409.55645  21190218.117                    21190226.098
 120973170.730 7  94264830.47644  23020425.914                    23020434.125
 118383226.146 6  92246747.90643  22527588.016                    22527596.516
 113260029.735 7  88254608.54546  21552671.242                    21552676.969
 11  8 23 17 16  0.0000000  0 10G08G07G23G01G24G03G13G28G11G19
 115731261.393 7  90180268.50845  22022929.109                    22022936.816
 108915614.324 7  84869311.900 8  20725948.586                    20725955.824
 120499816.393 7  93895982.20144  22930364.578                    22930372.684
 126771098.11915  98782735.80216  24123743.008                    24123761.195
 125940408.301 5                  23965658.844
 123477753.412 6  96216445.22143  23497037.094                    23497046.922
 111435388.445 7  86832816.24145  21205458.930                    21205466.281
 120933115.285 7  94233618.46444  23012803.883                    23012811.723
 118317984.537 6  92195910.30342  22515173.109                    22515181.184
 113321405.822 7  88302434.04646  21564350.828                    21564356.965
 11  8 23 17 16 30.0000000  0 10G08G07G23G01G24G03G13G28G11G19
 115660098.415 7  90124816.85645  22009387.477                    22009395.156
 108878505.995 8  84840396.309 7  20718887.203                    20718894.539
 120609449.851 7  93981410.69844  22951227.086                    22951235.031
 126694209.644 5  98722822.868 6  24109112.633                    24109129.609
 125867898.509 5                  23951860.734
 123583717.107 6  96299014.27643  23517201.617                    23517211.344
 111515901.321 7  86895553.49445  21220779.445                    21220787.621
 120893231.905 7  94202540.51545  23005214.227                    23005222.250
 118253021.674 6  92145289.92443  22502810.867                    22502818.906
 113383270.970 7  88350640.62746  21576123.313                    21576129.281
 11  8 23 17 17  0.0000000  0 10G08G07G23G01G24G03G13G28G11G19
 115588990.983 7  90069408.48245  21995856.250                    21995864.457
 108841643.284 8  84811672.116 8  20711872.672                    20711879.996
 120719245.518 7  94066965.61644  22972120.898                    22972128.699
 126617309.443 6  98662900.776 6  24094477.680                    24094494.953
 125795395.843 5                  23938063.500
 123689853.545 6  96381717.91144  23537398.742                    23537408.664
 111596835.785 7  86958619.25345  21236181.141                    21236189.086
 120853520.004 7  94171596.20045  22997657.016                    22997665.078
 118188340.030 6  92094888.67443  22490503.188                    22490510.461
 113445622.774 7  88399226.42346  21587988.977                    21587994.387
 11  8 23 17 17 30.0000000  0 10G08G07G23G01G24G03G13G28G11G19
 115517940.986 7  90014044.87245  21982335.656                    21982343.484
 108805028.534 8  84783141.132 7  20704904.875                    20704912.043
 120829200.957 7  94152645.00744  22993045.500                    22993053.336
 126540401.299 6  98602972.516 5  24079843.703                    24079860.082
 125722903.396 5                  23924269.023
 123796159.810 6  96464553.87243  23557628.383                    23557638.000
 111678189.540 7  87022011.71745  21251662.461                    21251670.328
 120813978.588 7  94140784.71945  22990132.688                    22990140.719
 118123943.014 6  92044709.22643  22478248.469                    22478256.691
 113508458.986 8  88448189.68546  21599946.094                    21599951.758
 11  8 23 17 18  0.0000000  0 10G08G07G23G01G24G03G13G28G11G19
 115446949.947 7  89958727.19845  21968826.305                    21968834.516
 108768663.418 8  84754804.671 7  20697985.031                    20697991.855
 120939312.774 7  94238446.24644  23013998.930                    23014007.875
 126463487.077 6  98543039.486 5  24065206.883                    24065223.230
 125650423.885 5                  23910475.781
 123902633.256 6  96547520.11643  23577889.633                    23577899.320
 111759959.703 7  87085728.66545  21267222.664                    21267230.301
 120774606.898 7  94110105.51045  22982640.258                    22982648.512
 118059833.756 6  91994754.02343  22466048.578                    22466057.539
 113571777.101 7  88497528.45146  21611994.953                    21612001.207
 11  8 23 17 18 30.0000000  0 10G08G07G23G01G24G03G13G28G11G19
 115376019.819 7  89903456.98845  21955329.047                    21955336.477
 108732549.822 8  84726664.203 7  20691112.773                    20691119.352
 121049577.997 7  94324366.99444  23034981.609                    23034990.285
 126386570.095 6  98483104.303 5  24050570.031                    24050585.672
 125577960.197 5                  23896686.758
 124009271.023 6  96630614.37443  23598181.898                    23598191.867
 111842143.414 7  87149767.85545  21282861.664                    21282869.512
 120735403.861 7  94079557.70845  22975180.938                    22975188.512
 117996014.701 6  91945024.94743  22453904.828                    22453913.566
 113635575.023 8  88547241.08446  21624135.320                    21624141.230
 11  8 23 17 19  0.0000000  0 10G08G07G23G01G24G03G13G28G11G19
 115305152.587 7  89848235.77745  21941843.109                    21941851.008
 108696689.789 8  84698721.311 7  20684288.859                    20684295.680
 121159994.030 7  94410405.28844  23055993.289                    23056001.977
 126309653.039 6  98423169.139 5  24035933.078                    24035948.488
 125505515.407 5                  23882900.430
 124116070.279 6  96713834.48943  23618505.828                    23618514.984
 111924738.347 7  87214127.48745  21298578.719                    21298586.738
 120696368.980 7  94049140.94745  22967752.414                    22967760.184
 117932489.229 6  91895524.64043  22441815.844                    22441825.473
 113699850.149 8  88597325.57446  21636367.070                    21636372.375
 11  8 23 17 19 30.0000000  0 10G08G07G23G01G24G03G13G28G11G19
 115234349.599 7  89793064.63145  21928369.680                    21928377.531
 108661085.207 8  84670977.482 7  20677513.578                    20677520.496
 121270557.895 7  94496558.78244  23077033.148                    23077041.598
 126232739.067 6  98363236.299 5  24021296.484                    24021311.223
 125433092.381 5                  23869119.469
 124223028.597 6  96797178.53143  23638858.938                    23638868.582
 112007741.835 7  87278805.45445  21314374.227                    21314381.746
 120657501.079 7  94018854.28845  22960356.023                    22960363.887
 117869260.143 6  91846255.27243  22429783.047                    22429793.609
 113764599.929 8  88647779.91946  21648688.336                    21648693.359
 11  8 23 17 20  0.0000000  0 10G08G07G23G01G24G03G13G28G11G19
 115163612.895 7  89737945.13145  21914908.422                    21914916.789
 108625737.992 8  84643434.193 7  20670787.086                    20670794.258
 121381266.563 7  94582825.12644  23098100.961                    23098108.762
 126155830.522 6  98303307.661 5  24006660.969                    24006676.406
 125360693.969 5                  23855341.234
 124330142.742 6  96880644.01643  23659241.922                    23659251.457
 112091151.059 7  87343799.59745  21330246.516                    21330254.309
 120618799.480 7  93988697.22545  22952991.047                    22952998.781
 117806330.225 6  91797219.03343  22417807.953                    22417817.809
 113829822.028 8  88698602.29346  21661099.828                    21661105.488
 11  8 23 17 20 30.0000000  0 10G08G07G23G01G24G03G13G28G11G19
 115092943.849 7  89682878.35645  21901461.172                    21901468.656
 108590649.769 8  84616092.723 7  20664109.977                    20664117.043
 121492116.903 7  94669201.86144  23119194.594                    23119202.844
 126078930.925 6  98243386.016 5  23992028.055                    23992043.262
 125288323.182 5                  23841570.117
 124437410.052 6  96964228.83543  23679655.273                    23679664.199
 112174963.346 7  87409107.81245  21346195.445                    21346203.613
 120580263.263 7  93958669.02545  22945657.945                    22945666.043
 117743702.664 6  91748418.42243  22405890.039                    22405899.695
 113895513.850 8  88749790.69546  21673600.453                    21673606.457
 11  8 23 17 21  0.0000000  0 10G08G07G23G01G24G03G13G28G11G19
 115022344.514 7  89627865.90145  21888026.273                    21888034.352
 108555823.114 8  84588955.075 7  20657483.039                    20657489.719
 121603106.352 7  94755686.94244  23140315.234                    23140323.555
 126002042.854 5  98183473.310 4  23977395.414
 125215983.153 6                  23827804.547
 124544828.068 6  97047931.11743  23700095.828                    23700105.172
 112259176.183 7  87474728.14145  21362220.930                    21362228.684
 120541891.788 7  93928769.20545  22938356.375                    22938364.156
 117681380.451 6  91699855.70242  22394030.797                    22394039.340
 113961673.515 8  88801343.64546  21686190.094                    21686196.289
 11  8 23 17 21 30.0000000  0 10G08G07G23G01G24G03G13G28G11G19
 114951816.672 7  89572909.15445  21874605.633                    21874613.133
 108521259.933 8  84562022.728 7  20650905.922                    20650912.645
 121714231.783 7  94842278.00744  23161462.070                    23161470.094
 125925169.105 5  98123571.852 5  23962767.047
 125143676.854 5                  23814044.945
 124652394.160 6  97131748.75043  23720564.523                    23720574.641
 112343786.717 7  87540658.36945  21378321.734                    21378329.723
 120503684.016 7  93898996.95845  22931085.438                    22931093.344
 117619366.639 6  91651533.28043  22382229.656                    22382238.129
 114028298.186 8  88853258.93746  21698868.414                    21698874.508
 11  8 23 17 22  0.0000000  0 10G08G07G23G01G24G03G13G28G11G19
 114881362.141 7  89518009.53845  21861198.539                    21861206.535
 108486961.998 8  84535297.062 7  20644379.039                    20644386.047
 121825490.149 7  94928972.61244  23182633.641                    23182642.773
 125848313.168 5  98063684.173 4  23948141.953
 125071407.270 5                  23800293.086
 124760105.514 6  97215679.61343  23741061.617                    23741071.465
 112428792.367 7  87606896.45845  21394497.617                    21394505.730
 120465638.983 7  93869351.49245  22923845.609                    22923853.766
 117557663.955 6  91603453.31043  22370488.023                    22370496.316
 114095385.451 8  88905534.69046  21711634.773                    21711640.645
 11  8 23 17 22 30.0000000  0 10G08G07G23G01G24G03G13G28G11G19
 114810982.879 7  89463168.57045  21847805.680                    21847813.707
 108452931.145 8  84508779.515 7  20637903.070                    20637909.637
 121936878.864 7  95015768.81044  23203830.305                    23203840.000
 125771477.729 5  98003812.414 4  23933519.188
 124999177.387 4                  23786545.461
 124867959.554 6  97299721.62943  23761585.539                    23761595.410
 112514190.126 8  87673440.09645  21410748.461                    21410756.551
 120427755.737 7  93839832.10944  22916636.703                    22916644.504
 117496275.445 6  91555618.15243  22358807.070                    22358814.367
 114162932.679 8  88958168.85546  21724488.813                    21724494.367
 11  8 23 17 23  0.0000000  0 10G08G07G23G01G24G03G13G28G11G19
 114740680.414 7  89408387.43745  21834427.656                    21834435.535
 108419169.401 8  84482471.661 7  20631478.242                    20631485.230
 122048394.841 7  95102664.18144  23225051.469                    23225060.102
 125694665.669 5  97943958.937 4  23918904.398
 124926989.796 5                  23772809.531
 124975953.597 6  97383872.74243  23782136.203                    23782145.961
 112599977.627 7  87740287.42345  21427073.133                    21427080.965
 120390033.544 7  93810438.19845  22909458.492                    22909466.164
 117435203.879 6  91508030.00743  22347185.250                    22347193.430
 114230937.301 8  89011159.42946  21737429.742                    21737435.211
 11  8 23 17 23 30.0000000  0 10G08G07G23G01G24G03G13G28G11G19
 114670456.869 7  89353667.80645  21821064.633                    21821072.652
 108385678.830 8  84456375.109 7  20625105.414                    20625112.164
 122160035.199 7  95189656.48344  23246296.086                    23246304.262
 125617879.935 5  97884126.005 5  23904291.688
 124854847.929 5                  23759081.422
 125084084.860 6  97468130.78243  23802714.047                    23802723.117
 112686151.955 8  87807436.18145  21443471.984                    21443479.801
 120352471.508 7  93781169.09844  22902310.484                    22902318.148
 117374452.119 6  91460691.02543  22335624.336                    22335632.887
 114299397.146 8  89064504.72146  21750457.141                    21750463.074
 11  8 23 17 24  0.0000000  0 10G08G07G23G01G24G03G13G28G11G19
 114600313.634 7  89299010.75645  21807716.570                    21807724.590
 108352460.570 8  84430490.752 7  20618784.188                    20618790.758
 122271796.268 7  95276742.84443  23267563.336                    23267572.000
 125541122.543 5  97824315.159 5  23889685.422
 124782753.947 5                  23745363.305
 125192350.532 6  97552493.54543  23823314.867                    23823325.625
 112772709.435 7  87874883.50745  21459943.359                    21459951.500
 120315068.397 7  93752023.81645  22895192.672                    22895200.309
 117314022.716 6  91413603.19943  22324125.250                    22324134.035
 114368308.896 8  89118202.15146  21763570.344                    21763576.246
 11  8 23 17 24 30.0000000  0 10G08G07G23G01G24G03G13G28G11G19
 114530252.635 7  89244417.78445  21794384.203                    21794392.188
 108319516.697 8  84404820.187 7  20612514.750                    20612522.402
 122383675.607 7  95363921.37643  23288853.914                    23288862.223
 125464397.193 5  97764529.302 5  23875085.875
 124710711.221 5                  23731653.844
 125300747.763 6  97636958.84543  23843942.594                    23843952.512
 112859647.672 7  87942627.51245  21476486.531                    21476494.898
 120277823.388 7  93723001.76544  22888105.594                    22888112.965
 117253918.666 6  91366768.95743  22312687.641                    22312696.293
 114437670.322 8  89172249.97046  21776769.602                    21776775.477
 11  8 23 17 25  0.0000000  0 10G08G07G23G01G24G03G13G28G11G19
 114460275.668 7  89189890.29745  21781068.047                    21781076.043
 108286849.600 8  84379365.290 7  20606298.813                    20606306.086
 122495670.408 7  95451189.86143  23310165.813                    23310174.406
 125387706.933 5  97704770.799 5  23860490.688
 124638723.002 5                  23717954.648
 125409274.198 6  97721524.83843  23864593.938                    23864604.906
 112946964.304 7  88010666.37045  21493102.813                    21493111.230
 120240735.560 7  93694102.17044  22881047.063                    22881055.680
 117194142.933 6  91320190.46243  22301312.703                    22301320.590
 114507478.749 8  89226646.10246  21790053.352                    21790059.320
 11  8 23 17 25 30.0000000  0 10G08G07G23G01G24G03G13G28G11G19
 114390384.728 8  89135429.83845  21767768.633                    21767776.102
 108254461.021 8  84354127.428 7  20600135.602                    20600142.582
 122607777.486 7  95538545.83344  23331498.805                    23331508.293
 125311054.304 5  97645041.605 5  23845903.992
 124566792.086 6                  23704266.594
 125517927.237 6  97806189.44743  23885270.430                    23885281.043
 113034656.214 7  88078997.66445  21509790.039                    21509798.051
 120203804.091 7  93665324.41144  22874019.867                    22874027.445
 117134698.543 6  91273870.21343  22290000.664                    22290008.852
 114577731.861 8  89281388.75146  21803422.469                    21803428.480
 11  8 23 17 26  0.0000000  0 10G08G07G23G01G24G03G13G28G11G19
 114320582.091 8  89081038.18145  21754485.438                    21754493.289
 108222353.557 8  84329108.612 8  20594025.680                    20594032.359
 122719994.533 7  95625987.46944  23352853.664                    23352862.813
 125234443.116 5  97585344.720 6  23831327.211                    23831341.574
 124494921.897 6                  23690589.938
 125626704.089 6  97890950.53543  23905969.883                    23905980.406
 113122721.166 8  88147619.63945  21526548.281                    21526556.539
 120167028.389 7  93636668.04044  22867021.344                    22867029.164
 117075588.640 6  91227810.59143  22278752.625                    22278760.609
 114648427.514 8  89336476.23245  21816875.305                    21816881.289
 11  8 23 17 26 30.0000000  0 10G08G07G23G01G24G03G13G28G11G19
 114250869.753 7  89026716.89445  21741219.930                    21741227.328
 108190529.125 8  84304310.345 8  20587969.914                    20587976.660
 122832318.395 7  95713512.34044  23374228.438                    23374237.555
 125157876.355 5  97525682.474 6  23816755.672                    23816771.043
 124423115.707 6                  23676924.859
 125735602.546 6  97975806.38743  23926692.773                    23926703.465
 113211156.479 7  88216530.19245  21543377.180                    21543385.469
 120130407.370 7  93608132.19145  22860053.023                    22860060.777
 117016816.342 6  91182014.04143  22267568.250                    22267576.984
 114719563.168 8  89391906.56745  21830412.102                    21830417.773
 11  8 23 17 27  0.0000000  0 10G08G07G23G01G24G03G13G28G11G19
 114181249.021 7  88972466.98745  21727970.898                    21727978.961
 108158989.068 8  84279733.664 7  20581968.344                    20581974.988
 122944745.933 7  95801117.98744  23395623.008                    23395632.160
 125081356.297 5  97466056.579 6  23802194.359                    23802210.523
 124351375.715 5                  23663273.867
 125844619.432 6  98060754.52543  23947438.758                    23947448.480
 113299958.449 7  88285726.45545  21560275.820                    21560283.672
 120093940.168 7  93579716.21345  22853113.484                    22853121.434
 116958383.700 6  91136482.15943  22256448.906                    22256457.258
 114791135.395 8  89447677.09345  21844031.539                    21844037.719
 11  8 23 17 27 30.0000000  0 10G08G07G23G01G24G03G13G28G11G19
 114111721.632 7  88918289.80945  21714740.727                    21714748.281
 108127734.998 8  84255379.841 8  20576020.430                    20576027.488
 123057274.006 7  95888801.95744  23417036.148                    23417045.734
 125004885.815 5  97406469.344 5  23787641.898                    23787658.895
 124279704.800 5                  23649634.813
 125953752.065 6  98145792.85443  23968206.305                    23968216.250
 113389124.412 7  88355206.35545  21577243.422                    21577251.625
 120057625.584 7  93551419.16145  22846202.922                    22846210.824
 116900293.757 6  91091217.29143  22245394.391                    22245403.496
 114863141.786 8  89503785.92745  21857734.273                    21857740.105
 11  8 23 17 28  0.0000000  0 10G08G07G23G01G24G03G13G28G11G19
 114042289.928 8  88864187.19145  21701527.719                    21701536.070
 108096769.196 8  84231250.634 8  20570127.773                    20570134.816
 123169899.823 7  95976562.12443  23438468.492                    23438477.527
 124928468.144 5  97346923.202 5  23773100.734                    23773116.625
 124208106.439 5                  23636009.320
 126062998.133 6  98230919.51743  23988994.805                    23989005.027
 113478651.631 7  88424967.76145  21594279.492                    21594287.695
 120021462.840 7  93523240.40844  22839321.281                    22839329.090
 116842549.154 6  91046221.50843  22234406.133                    22234414.141
 114935579.944 8  89560231.19145  21871518.758                    21871524.363
 11  8 23 17 28 30.0000000  0 10G08G07G23G01G24G03G13G28G11G19
 113972955.589 7  88810160.43445  21688334.586                    21688342.145
 108066093.490 8  84207347.476 8  20564290.508                    20564297.250
 123282620.535 7  96064396.23243  23459918.445                    23459927.875
 124852105.923 5  97287420.308 5  23758569.242                    23758584.395
 124136583.369 5                  23622399.594
 126172355.085 6  98316132.63843  24009805.305                    24009814.766
 113568537.026 7  88495008.25145  21611384.711                    21611392.836
 119985450.830 7  93495179.11144  22832468.625                    22832475.914
 116785152.986 6  91001497.26743  22223483.805                    22223492.813
 115008446.962 8  89617010.63745  21885384.883                    21885391.051
 11  8 23 17 29  0.0000000  0 10G08G07G23G01G24G03G13G28G11G19
 113903720.935 7  88756211.36345  21675159.469                    21675167.426
 108035710.156 8  84183672.141 8  20558508.922                    20558515.473
 123395433.360 7  96152302.08644  23481386.164                    23481395.727
 124775802.636 5  97227963.361 5  23744047.883                    23744064.852
 124065139.015 5                  23608804.398
 126281820.303 6  98401430.14743  24030635.523                    24030644.793
 113658778.031 7  88565325.84045  21628556.742                    21628565.535
 119949588.701 7  93467234.61445  22825644.406                    22825651.766
 116728107.943 6  90957046.66742  22212628.766                    22212637.250
 115081740.389 8  89674122.35145  21899332.336                    21899338.074
 11  8 23 17 29 30.0000000  0 10G08G07G23G01G24G03G13G28G11G19
 113834587.495 8  88702341.16145  21662003.875                    21662011.660
 108005620.598 8  84160225.725 8  20552782.664                    20552789.910
 123508334.911 7  96240277.07644  23502870.680                    23502880.605
 124699552.63515  97168547.14715  23729539.602
 123993775.920 5                  23595223.383
 126391391.018 6  98486809.85243  24051485.922                    24051495.645
 113749371.471 7  88635918.05145  21645796.539                    21645804.219
 119913875.463 7  93439406.13045  22818848.469                    22818856.023
 116671416.763 6  90912871.76043  22201841.063                    22201849.367
 115155457.240 8  89731564.00545  21913360.617                    21913366.160
 11  8 23 17 30  0.0000000  0 10G08G07G23G01G24G03G13G28G11G19
 113765557.672 8  88648551.70246  21648867.836                    21648876.027
 107975827.596 8  84137010.395 8  20547113.664                    20547120.172
 123621323.060 7  96328319.55043  23524371.961                    23524380.898
 124623375.815 5  97109188.729 5  23715043.945
 123922497.540 6  96563009.60452  23581661.953                    23581673.742
 126501064.855 6  98572269.94843  24072355.648                    24072366.004
 113840314.820 7  88706782.92045  21663102.125                    21663110.648
 119878310.667 7  93411693.33145  22812080.172                    22812088.430
 116615082.707 6  90868975.15343  22191120.680                    22191128.906
 115229595.540 8  89789334.07445  21927468.117                    21927474.047
 11  8 23 17 30 30.0000000  0 10G08G07G23G01G24G03G13G28G11G19
 113696633.223 8  88594844.35645  21635751.875                    21635759.879
 107946332.560 8  84114027.233 8  20541500.703                    20541507.953
 123734394.422 7  96416426.86744  23545889.148                    23545899.215
 124547267.364 5  97049883.613 4  23700561.250
 123851306.641 6  96507536.24542  23568113.672                    23568126.984
 126610839.027 6  98657808.16343  24093246.023                    24093255.938
 113931605.025 7  88777918.06845  21680474.422                    21680482.199
 119842893.061 7  93384095.19445  22805340.609                    22805348.590
 116559108.180 6  90825358.67043  22180469.383                    22180477.480
 115304152.162 8  89847430.11145  21941655.477                    21941661.570
 11  8 23 17 31  0.0000000  0 10G08G07G23G01G24G03G13G28G11G19
 113627815.978 8  88541220.54346  21622656.570                    21622664.434
 107917137.294 8  84091277.667 8  20535945.047                    20535952.250
 123847545.962 7  96504596.63644  23567421.602                    23567430.766
 124471229.054 6  96990633.096 5  23686092.102
 123780206.312 6  96452133.55042  23554584.172                    23554596.504
 126720711.089 6  98743422.68543  24114154.000                    24114164.266
 114023239.108 7  88849321.18245  21697911.844                    21697919.867
 119807621.689 7  93356611.03245  22798628.703                    22798636.738
 116503495.906 6  90782024.47842  22169886.633                    22169894.809
 115379124.372 7  89905849.96445  21955922.430                    21955928.348
 11  8 23 17 31 30.0000000  0 10G08G07G23G01G24G03G13G28G11G19
 113559108.231 8  88487682.04646  21609582.148                    21609589.391
 107888243.857 8  84068763.290 8  20530447.016                    20530454.051
 123960775.023 7  96592826.80743  23588968.031                    23588977.785
 124395264.324 6  96931439.934 5  23671636.695
 123709199.905 5  96396804.03442  23541071.031                    23541084.258
 126830678.462 6  98829111.49142  24135079.805                    24135089.961
 114115214.066 7  88920989.90645  21715414.219                    21715422.277
 119772495.344 7  93329239.87245  22791944.000                    22791952.664
 116448248.784 6  90738974.81643  22159373.633                    22159380.645
 115454509.477 7  89964591.55945  21970267.930                    21970273.789
 11  8 23 17 32  0.0000000  0 10G08G07G23G01G24G03G13G28G11G19
 113490512.075 8  88434230.51346  21596528.750                    21596536.086
 107859654.282 8  84046485.691 8  20525006.664                    20525013.879
 124074078.867 6  96681115.25843  23610529.633                    23610538.555
 124319376.502 6  96872306.714 5  23657195.953                    23657209.035
 123638290.374 6  96341549.93242  23527577.664                    23527590.762
 126940738.542 6  98914872.53943  24156023.773                    24156033.840
 114207527.718 7  88992922.53245  21732980.703                    21732988.953
 119737513.541 7  93301981.34245  22785287.609                    22785295.309
 116393369.737 6  90696211.95743  22148930.469                    22148938.289
 115530305.211 7  90023653.12345  21984691.516                    21984697.148
 11  8 23 17 32 30.0000000  0  9G08G07G23G01G24G13G28G11G19
 113422029.396 8  88380867.39845  21583496.570                    21583504.230
 107831370.707 8  84024446.534 8  20519624.445                    20519631.227
 124187454.604 7  96769459.73543  23632103.977                    23632113.484
 124243568.435 6  96813235.640 5  23642769.313                    23642783.270
 123567480.753 6  96286373.71542  23514102.289                    23514116.477
 114300176.201 7  89065116.07045  21750611.586                    21750620.113
 119702675.155 7  93274834.55744  22778658.047                    22778665.418
 116338861.686 6  90653738.20343  22138557.172                    22138566.383
 115606509.024 7  90083032.67145  21999192.750                    21999198.477
 11  8 23 17 33  0.0000000  0  9G08G07G23G01G24G13G28G11G19
 113353662.379 8  88327594.39946  21570486.664                    21570494.387
 107803395.213 8  84002647.436 8  20514300.523                    20514307.859
 124300899.475 7  96857858.09143  23653692.078                    23653701.938
 124167843.660 6  96754229.461 5  23628359.141                    23628373.012
 123496774.259 5                  23500646.758
 114393157.234 7  89137568.74145  21768305.242                    21768313.570
 119667979.606 7  93247799.07345  22772055.914                    22772062.914
 116284727.342 6  90611555.64943  22128255.602                    22128263.898
 115683118.017 7  90142727.93945  22013770.891                    22013776.500
 11  8 23 17 33 30.0000000  0  9G08G07G23G01G24G13G28G11G19
 113285413.213 8  88274413.23946  21557499.180                    21557507.375
 107775729.407 8  83981089.657 8  20509036.227                    20509043.438
 124414410.337 6  96946307.88843  23675292.398                    23675302.945
 124092204.919 6  96695290.344 6  23613964.656                    23613979.895
 123426173.853 5                  23487211.445
 114486467.719 7  89210278.11745  21786061.813                    21786070.207
 119633425.728 7  93220873.98245  22765480.125                    22765488.352
 116230969.397 6  90569666.36642  22118025.789                    22118033.715
 115760129.247 7  90202736.64745  22028425.625                    22028431.496
 11  8 23 17 34  0.0000000  0  9G08G07G23G01G24G13G28G11G19
 113217283.300 8  88221325.01446  21544534.656                    21544542.527
 107748374.447 7  83959774.094 8  20503830.570                    20503837.781
 124527983.985 6  97034806.56943  23696905.508                    23696915.559
 124016654.424 5  96636419.949 6  23599588.602                    23599603.816
 123355681.965 5                  23473797.523
 114580103.834 7  89283241.22245  21803879.813                    21803888.707
 119599012.038 7  93194058.15345  22758931.773                    22758939.418
 116177589.617 6  90528071.76042  22107867.641                    22107876.484
 115837539.481 7  90263056.25145  22043156.117                    22043162.148
 11  8 23 17 34 30.0000000  0  9G08G07G23G01G24G13G28G11G19
 113149275.121 8  88168331.63746  21531593.281                    21531601.148
 107721332.872 8  83938702.717 8  20498684.633                    20498691.754
 124641617.760 6  97123352.11443  23718529.414                    23718539.371
 123941195.807 5  96577621.112 6  23585229.086                    23585244.648
 123285301.883 5                  23460403.430
 114674063.347 7  89356456.31745  21821759.977                    21821768.438
 119564738.164 7  93167351.24744  22752409.266                    22752417.305
 116124591.430 6  90486774.46342  22097783.063                    22097791.238
 115915346.513 7  90323685.06245  22057962.875                    22057968.738
 11  8 23 17 35  0.0000000  0  9G08G07G23G01G24G13G28G11G19
 113081390.553 8  88115434.57846  21518674.984                    21518682.961
 107694606.776 8  83917877.173 8  20493599.125                    20493606.035
 124755309.102 7  97211942.49543  23740164.305                    23740174.391
 123865832.094 5  96518896.269 6  23570886.422                    23570903.316
 123215037.171 6                  23447033.406
 114768343.529 7  89429921.30545  21839700.680                    21839709.195
 119530603.078 7  93140752.48545  22745913.859                    22745921.305
 116071977.744 6  90445776.84243  22087770.805                    22087779.145
 115993547.794 7  90384621.07545  22072843.477                    22072849.734
 11  8 23 17 35 30.0000000  0  9G08G07G23G01G24G13G28G11G19
 113013631.888 8  88062635.63346  21505781.180                    21505789.152
 107668198.150 8  83897299.010 8  20488573.609                    20488580.680
 124869054.939 6  97300575.31643  23761809.172                    23761819.492
 123790566.413 5  96460247.794 6  23556563.594                    23556580.410
 123144890.733 5                  23433686.016
 114862941.393 7  89503633.83345  21857702.469                    21857711.262
 119496605.795 7  93114261.09545  22739444.234                    22739451.992
 116019751.139 6  90405080.82943  22077832.320                    22077840.680
 116072140.596 7  90445862.17745  22087799.391                    22087805.367
 11  8 23 17 36  0.0000000  0  9G08G07G23G01G24G13G28G11G19
 112946001.079 8  88009936.30546  21492911.398                    21492919.086
 107642108.586 8  83876969.472 8  20483608.773                    20483615.961
 124982852.334 6  97389248.29543  23783464.688                    23783475.496
 123715401.581 5  96401677.891 5  23542262.047                    23542277.480
 123074865.576 6                  23420359.422
 114957853.759 7  89577591.43245  21875764.313                    21875772.293
 119462745.163 7  93087876.20345  22733000.914                    22733008.664
 115967913.953 6  90364688.21743  22067968.609                    22067976.371
 116151122.045 7  90507406.11945  22102828.859                    22102835.305
 11  8 23 17 36 30.0000000  0 10G08G07G23G01G24G17G13G28G11G19
 112878500.090 8  87957338.13646  21480066.078                    21480074.070
 107616339.764 8  83856889.844 8  20478705.383                    20478712.516
 125096698.320 7  97477959.16644  23805129.063                    23805139.488
 123640340.722 6  96343188.993 5  23527978.266                    23527993.922
 123004964.428 6                  23407058.398
 129516521.84016 100922035.17116  24646183.180                    24646195.207
 115053077.246 7  89651791.45145  21893884.016                    21893893.047
 119429020.243 7  93061597.06245  22726582.984                    22726590.746
 115916468.843 6  90324601.13143  22058178.695                    22058186.008
 116230489.048 7  90569250.50145  22117932.156                    22117938.363
 11  8 23 17 37  0.0000000  0 10G08G07G23G01G24G17G13G28G11G19
 112811130.978 8  87904842.73346  21467246.313                    21467254.125
 107590893.539 8  83837061.597 8  20473863.344                    20473870.191
 125210590.300 7  97566705.86744  23826802.289                    23826813.328
 123565386.734 6  96284783.338 5  23513715.172                    23513729.449
 122935190.612 6  95793668.25052  23393781.289                    23393792.902
 129412008.745 6 100840596.546 5  24626294.242                    24626307.660
 115148609.047 7  89726231.72345  21912063.289                    21912072.145
 119395430.194 7  93035423.00745  22720191.000                    22720199.461
 115865418.561 7  90284821.74043  22048464.109                    22048471.293
 116310238.848 7  90631393.15345  22133107.680                    22133114.508
 11  8 23 17 37 30.0000000  0 10G08G07G23G01G24G17G13G28G11G19
 112743896.601 8  87852452.32246  21454451.820                    21454459.836
 107565773.104 8  83817487.220 8  20469083.125                    20469089.648
 125324526.079 6  97655486.70644  23848483.648                    23848494.391
 123490543.540 6  96226464.056 5  23499472.750                    23499486.785
 122865547.877 6  95739401.30942  23380528.289                    23380540.098
 129307596.934 6 100759236.841 5  24606425.398                    24606438.824
 115244447.423 7  89800910.87745  21930300.539                    21930310.184
 119361974.842 7  93009353.91145  22713824.648                    22713832.543
 115814766.672 7  90245352.74743  22038824.836                    22038832.938
 116390369.653 7  90693832.69645  22148356.516                    22148362.805
 11  8 23 17 38  0.0000000  0 10G08G07G23G01G24G17G13G28G11G19
 112676798.543 8  87800168.12346  21441683.938                    21441691.414
 107540979.587 8  83798167.575 8  20464364.594                    20464371.691
 125438501.919 6  97744298.73943  23870172.758                    23870183.473
 123415813.277 6  96168232.814 5  23485252.414                    23485266.289
 122796038.630 5  95685238.34742  23367301.680                    23367313.953
 129203288.291 6 100677957.510 5  24586576.547                    24586589.488
 115340588.182 7  89875825.65645  21948595.430                    21948604.672
 119328652.506 7  92983388.46245  22707484.250                    22707491.863
 115764515.011 6  90206195.67043  22029262.750                    22029270.016
 116470877.901 7  90756566.35345  22163677.031                    22163682.488
 11  8 23 17 38 30.0000000  0 10G08G07G23G01G24G17G13G28G11G19
 112609838.918 8  87747991.81745  21428941.703                    21428949.480
 107516514.673 8  83779103.993 8  20459709.023                    20459716.617
 125552515.144 6  97833139.91543  23891868.727                    23891879.207
 123341199.516 6  96110092.315 5  23471052.594                    23471067.102
 122726666.032 6  95631181.86942  23354100.508                    23354111.980
 129099084.245 6 100596759.736 5  24566747.094                    24566759.609
 115437028.354 7  89950973.74145  21966947.617                    21966956.773
 119295462.100 7  92957525.81945  22701168.047                    22701175.570
 115714666.139 6  90167352.41543  22019776.039                    22019784.781
 116551760.862 7  90819591.98945  22179068.578                    22179074.582
 11  8 23 17 39  0.0000000  0 10G08G07G23G01G24G17G13G28G11G19
 112543019.394 8  87695924.66645  21416226.344                    21416234.375
 107492380.039 8  83760297.774 8  20455116.414                    20455123.938
 125666562.791 6  97922007.93243  23913571.531                    23913581.891
 123266704.609 5  96052044.459 5  23456876.484                    23456891.117
 122657432.922 6  95577234.15842  23340925.625                    23340937.242
 128994987.096 6 100515645.267 6  24546938.305                    24546950.391
 115533764.561 7  90026352.49445  21985356.484                    21985365.328
 119262402.340 7  92931764.98645  22694876.586                    22694884.461
 115665222.250 6  90128824.75943  22010366.891                    22010374.918
 116633015.742 7  90882907.44245  22194530.742                    22194536.766
 11  8 23 17 39 30.0000000  0 10G08G07G23G01G24G17G13G28G11G19
 112476342.689 8  87643968.81645  21403538.281                    21403546.422
 107468577.683 8  83741750.483 8  20450586.977                    20450594.477
 125780642.181 6  98010900.62943  23935280.344                    23935291.297
 123192332.134 5  95994091.976 6  23442723.859                    23442738.086
 122588342.517 6  95523397.52042  23327777.258                    23327789.520
 128890998.719 6 100434615.530 6  24527148.641                    24527161.238
 115630794.130 7  90101959.84345  22003820.641                    22003829.535
 119229472.668 7  92906105.51545  22688610.695                    22688618.434
 115616186.613 6  90090615.20443  22001036.133                    22001044.277
 116714639.737 7  90946510.50745  22210063.008                    22210069.477
 11  8 23 17 40  0.0000000  0 10G08G07G23G01G24G17G13G28G11G19
 112409810.743 8  87592125.75145  21390877.203                    21390885.340
 107445109.575 8  83723463.636 8  20446121.398                    20446128.566
 125894750.620 6  98099815.97943  23956994.922                    23957005.250
 123118085.032 5  95936237.186 6  23428594.625                    23428609.980
 122519397.903 6  95469674.60642  23314657.664                    23314670.383
 128787121.743 6 100353672.614 6  24507380.758                    24507394.750
 115728114.505 7  90177793.78845  22022339.406                    22022348.617
 119196672.359 7  92880546.84745  22682368.633                    22682376.711
 115567561.663 6  90052725.62843  21991783.297                    21991791.156
 116796630.234 7  91010399.15745  22225665.836                    22225671.898
 11  8 23 17 40 30.0000000  0 10G08G07G23G01G24G17G13G28G11G19
 112343426.192 8  87540397.53745  21378244.781                    21378252.555
 107421977.664 8  83705438.764 8  20441719.633                    20441726.559
 126008884.935 6  98188751.48943  23978714.664                    23978724.313
 123043966.518 5  95878482.623 6  23414491.852                    23414506.086
 122450602.181 6  95416067.63942  23301564.695                    23301579.758
 128683358.124 6 100272818.042 6  24487635.742                    24487649.117
 115825722.183 7  90253851.60645  22040914.219                    22040923.207
 119164000.267 7  92855088.08945  22676151.570                    22676159.664
 115519349.903 7  90015158.03843  21982608.867                    21982617.238
 116878984.330 7  91074571.14245  22241337.297                    22241343.723
 11  8 23 17 41  0.0000000  0 10G08G07G23G01G24G17G13G28G11G19
 112277191.027 8  87488785.72445  21365640.391                    21365648.176
 107399183.918 8  83687677.387 8  20437382.094                    20437389.270
 126123042.606 6  98277705.22443  24000438.258                    24000448.637
 122969979.444 6  95820830.446 6  23400410.930                    23400426.484
 122381958.624 6  95362579.30242  23288503.414                    23288517.539
 128579710.008 6 100192053.448 6  24467913.281                    24467925.828
 115923614.191 7  90330130.98045  22059542.445                    22059551.383
 119131455.648 7  92829728.66245  22669958.148                    22669966.512
 115471554.121 7  89977914.59143  21973514.125                    21973521.805
 116961699.046 7  91139024.12845  22257077.133                    22257083.742
 11  8 23 17 41 30.0000000  0 10G08G07G23G01G24G17G13G28G11G19
 112211107.299 8  87437291.92445  21353065.539                    21353073.473
 107376730.050 8  83670180.859 8  20433109.289                    20433116.398
 126237220.573 7  98366674.75343  24022165.891                    24022176.785
 122896126.467 6  95763282.728 6  23386358.320                    23386372.867
 122313470.218 6  95309211.78242  23275469.805                    23275483.156
 128476179.076 6 100111380.192 6  24448210.906                    24448223.961
 116021787.572 7  90406629.61845  22078224.555                    22078233.641
 119099037.220 7  92804467.56645  22663789.469                    22663797.551
 115424176.441 7  89940996.96843  21964498.461                    21964505.840
 117044771.866 7  91203756.16045  22272885.539                    22272891.703
 11  8 23 17 42  0.0000000  0 10G08G07G23G01G24G17G13G28G11G19
 112145177.138 8  87385917.77945  21340519.492                    21340526.977
 107354618.264 8  83652950.882 8  20428901.383                    20428908.781
 126351416.483 6  98455658.25543  24043896.703                    24043908.742
 122822411.696 6  95705842.732 6  23372329.906                    23372345.117
 122245140.478 6  95255967.93642  23262466.789                    23262479.934
 128372767.930 6 100030800.261 6  24428532.547                    24428545.715
 116120239.687 7  90483345.42844  22096959.328                    22096968.051
 119066744.280 7  92779304.24945  22657644.563                    22657652.125
 115377220.019 7  89904407.58043  21955562.258                    21955570.336
 117128200.128 7  91268765.15045  22288761.672                    22288767.859
 11  8 23 17 42 30.0000000  0 10G08G07G23G01G24G17G13G28G11G19
 112079402.726 8  87334665.01345  21328003.008                    21328010.586
 107332849.842 8  83635988.459 7  20424759.000                    20424766.023
 126465627.025 6  98544653.16943  24065630.242                    24065642.332
 122748837.219 6  95648512.088 6  23358329.531                    23358344.340
 122176971.833 6  95202849.65342  23249495.305                    23249508.313
 128269478.249 6  99950314.968 6  24408877.063                    24408889.215
 116218966.931 7  90560275.62544  22115746.133                    22115755.508
 119034575.554 7  92754237.71745  22651522.617                    22651530.457
 115330686.409 7  89868147.64743  21946707.570                    21946715.285
 117211980.634 7  91334048.61545  22304704.133                    22304710.625
 11  8 23 17 43  0.0000000  0 10G08G07G23G01G24G17G13G28G11G19
 112013786.295 8  87283535.33245  21315516.156                    21315524.016
 107311426.944 8  83619295.278 7  20420682.547                    20420689.664
 126579849.553 6  98633657.38943  24087366.188                    24087377.992
 122675406.582 6  95591293.512 5  23344356.500                    23344370.363
 122108967.444 6  95149859.34442  23236555.359                    23236568.469
 128166312.566 6  99869926.285 6  24389244.500                    24389256.883
 116317966.089 7  90637417.72744  22134585.555                    22134594.445
 119002530.199 7  92729267.32245  22645424.773                    22645433.000
 115284578.402 7  89832219.39743  21937933.297                    21937941.758
 117296110.622 7  91399604.38945  22320713.680                    22320719.895
 11  8 23 17 43 30.0000000  0 10G08G07G23G01G24G17G13G28G11G19
 111948330.277 8  87232530.66545  21303060.531                    21303068.285
 107290352.066 8  83602873.283 8  20416671.711                    20416679.719
 126694081.833 7  98722669.20143  24109104.430                    24109115.965
 122602122.889 6  95534189.456 5  23330410.383                    23330424.250
 122041130.809 6  95096999.72442  23223646.719                    23223659.133
 128063272.737 6  99789635.662 6  24369637.516                    24369649.047
 116417234.908 7  90714769.95545  22153476.141                    22153484.867
 118970607.666 7  92704392.61445  22639350.039                    22639358.273
 115238898.934 7  89796625.06543  21929240.742                    21929249.023
 117380587.859 7  91465430.75445  22336789.438                    22336795.648
 11  8 23 17 44  0.0000000  0 10G08G07G23G01G24G17G13G28G11G19
 111883036.357 8  87181652.29545  21290635.477                    21290643.555
 107269625.924 8  83586723.035 7  20412727.953                    20412735.172
 126808320.383 7  98811685.88343  24130844.047                    24130854.695
 122528989.056 6  95477202.175 5  23316494.219                    23316506.762
 121973464.615 6  95044272.99342  23210768.883                    23210781.844
 127960360.708 6  99709444.620 6  24350053.344                    24350065.684
 116516769.889 7  90792329.58545  22172417.016                    22172426.055
 118938806.661 7  92679612.62945  22633298.711                    22633306.465
 115193650.389 7  89761366.47743  21920629.891                    21920637.844
 117465408.776 7  91531524.91445  22352930.453                    22352936.473
 11  8 23 17 44 30.0000000  0 10G08G07G23G01G24G17G13G28G11G19
 111817907.309 8  87130902.39846  21278241.648                    21278249.590
 107249250.270 8  83570845.893 7  20408850.711                    20408858.023
 126922562.401 6  98900705.23743  24152583.805                    24152594.469
 122456007.710 6  95420333.709 6  23302605.445                    23302618.609
 121905971.823 6  94991681.33442  23197926.180                    23197937.578
 127857578.295 6  99629354.577 6  24330494.586                    24330506.785
 116616567.320 7  90870093.71545  22191407.398                    22191416.930
 118907125.782 7  92654926.23945  22627269.867                    22627277.637
 115148834.704 7  89726445.18643  21912101.547                    21912108.773
 117550570.386 7  91597884.55345  22369136.078                    22369142.262
 11  8 23 17 45  0.0000000  0 10G08G07G23G01G24G17G13G28G11G19
 111752945.466 8  87080282.79345  21265879.977                    21265887.668
 107229227.609 8  83555243.806 7  20405040.758                    20405047.586
 127036805.621 6  98989725.54643  24174323.188                    24174335.078
 122383182.940 6  95363587.243 6  23288747.156                    23288760.715
 121838655.676 6  94939227.26442  23185116.813                    23185127.141
 127754927.814 6  99549367.333 6  24310960.945                    24310973.191
 116716624.812 7  90948060.48045  22210448.086                    22210457.234
 118875564.533 7  92630333.06745  22621263.781                    22621271.613
 115104454.820 7  89691863.50043  21903657.055                    21903664.484
 117636070.374 7  91664507.85545  22385405.773                    22385412.109
 11  8 23 17 45 30.0000000  0 10G08G07G23G01G24G17G13G28G11G19
 111688152.744 8  87029794.96045  21253550.156                    21253558.242
 107209559.796 8  83539918.233 7  20401297.969                    20401305.023
 127151047.163 6  99078744.59443  24196063.070                    24196075.496
 122310517.370 6  95306964.815 6  23274919.789                    23274933.301
 121771519.445 6  94886913.36142  23172340.617                    23172350.855
 127652411.609 6  99469484.718 5  24291452.250                    24291464.602
 116816939.521 7  91026227.66745  22229537.281                    22229546.664
 118844122.201 7  92605832.54545  22615280.422                    22615288.547
 115060513.157 7  89657623.28843  21895294.977                    21895302.754
 117721905.951 7  91731392.65645  22401740.219                    22401746.488
 11  8 23 17 46  0.0000000  0 10G08G07G23G01G24G17G13G28G11G19
 111623531.565 8  86979440.80446  21241253.281                    21241261.336
 107190248.921 8  83524870.784 7  20397623.242                    20397630.434
 127265284.275 6  99167760.21143  24217802.148                    24217814.594
 122238014.238 6  95250468.985 6  23261122.320                    23261136.945
 121704566.403 6  94834742.30442  23159598.758                    23159610.984
 127550031.827 6  99389708.384 5  24271969.820                    24271982.730
 116917508.476 7  91104592.98945  22248675.266                    22248684.266
 118812797.928 7  92581424.02245  22609319.820                    22609327.754
 115017012.028 7  89623726.32943  21887016.945                    21887025.402
 117808074.323 7  91798536.78145  22418137.516                    22418143.969
 11  8 23 17 46 30.0000000  0 10G08G07G23G01G24G17G13G28G11G19
 111559084.007 8  86929221.93646  21228989.453                    21228997.090
 107171296.240 8  83510102.456 7  20394016.438                    20394024.172
 127379513.978 6  99256770.01043  24239539.125                    24239552.172
 122165675.998 6  95194101.592 6  23247357.133                    23247370.957
 121637799.291 6  94782716.10842  23146893.227                    23146906.477
 127447790.353 6  99310039.819 6  24252513.813                    24252526.660
 117018327.998 7  91183153.54144  22267860.289                    22267869.563
 118781590.142 7  92557106.27545  22603381.031                    22603389.277
 114973953.860 7  89590174.56943  21878823.164                    21878831.375
 117894572.510 7  91865937.91745  22434597.734                    22434604.215
 11  8 23 17 47  0.0000000  0 10G08G07G23G01G24G17G13G28G11G19
 111494812.467 7  86879140.22645  21216758.930                    21216766.375
 107152703.375 8  83495614.501 7  20390478.398                    20390486.063
 127493733.486 6  99345771.85743  24261274.766                    24261287.438
 122093505.930 6  95137865.250 6  23233623.977                    23233637.758
 121571221.289 5  94730837.24242  23134224.102                    23134237.477
 127345688.880 6  99230480.367 6  24233084.195                    24233097.168
 117119394.888 7  91261906.83944  22287093.484                    22287102.438
 118750497.995 7  92532878.64545  22597464.758                    22597472.508
 114931340.667 7  89556969.49343  21870713.969                    21870722.059
 117981397.377 7  91933593.59445  22451120.172                    22451126.691
 11  8 23 17 47 30.0000000  0 10G08G07G23G01G24G17G13G28G11G19
 111430719.286 7  86829197.49746  21204562.492                    21204570.188
 107134472.787 8  83481408.839 7  20387009.055                    20387016.445
 127607940.461 6  99434763.91543  24283008.273                    24283020.563
 122021507.107 6  95081762.372 6  23219923.422                    23219936.730
 121504835.469 5  94679108.14342  23121591.313                    23121604.633
 127243729.671 6  99151031.799 6  24213682.031                    24213694.461
 117220706.556 7  91340850.86944  22306372.516                    22306381.355
 118719520.760 7  92508740.55745  22591569.375                    22591577.926
 114889175.093 7  89524113.22243  21862690.828                    21862697.984
 118068546.619 7  92001502.03745  22467703.563                    22467710.895
 11  8 23 17 48  0.0000000  0 10G08G07G23G01G24G17G13G28G11G19
 111366806.892 7  86779395.63146  21192400.328                    21192407.871
 107116605.935 8  83467486.606 7  20383609.328                    20383616.582
 127722131.812 6  99523743.79443  24304738.594                    24304749.738
 121949683.075 6  95025795.689 6  23206254.609                    23206268.379
 121438644.875 5  94627531.17742  23108995.563                    23109008.453
 127141914.962 6  99071695.789 6  24194307.531                    24194319.691
 117322260.135 7  91419983.40444  22325697.531                    22325706.527
 118688657.571 7  92484691.33245  22585696.875                    22585704.668
 114847459.767 7  89491607.79243  21854752.305                    21854760.203
 118156017.171 7  92069660.84545  22484349.141                    22484355.664
 11  8 23 17 48 30.0000000  0 10G08G07G23G01G24G17G13G28G11G19
 111303077.320 8  86729736.23646  21180272.953                    21180280.512
 107099104.281 8  83453848.950 7  20380278.695                    20380286.156
 127836304.785 6  99612709.37042  24326465.203                    24326476.719
 121878036.403 6  94969967.220 6  23192620.664                    23192634.059
 121372652.306 6  94576108.50142  23096438.367                    23096449.957
 127040246.358 6  98992473.641 6  24174961.188                    24174972.555
 117424051.859 7  91499301.50744  22345067.453                    22345076.605
 118657907.235 7  92460730.02745  22579845.047                    22579852.563
 114806196.542 7  89459454.63943  21846900.055                    21846908.242
 118243805.978 7  92138067.65645  22501054.953                    22501061.109
 11  8 23 17 49  0.0000000  0 10G08G07G23G01G24G17G13G28G11G19
 111239532.844 8  86680221.05446  21168180.563                    21168188.977
 107081970.082 8  83440497.611 7  20377018.164                    20377025.738
 127950456.976 6  99701658.80243  24348187.109                    24348199.395
 121806570.377 6  94914279.519 6  23179021.617                    23179034.930
 121306861.365 6  94524842.87252  23083918.148                    23083930.859
 126938726.159 6  98913367.143 6  24155641.773                    24155653.887
 117526079.324 7  91578803.29844  22364482.898                    22364491.957
 118627268.985 7  92436856.07845  22574015.117                    22574022.363
 114765388.139 7  89427655.91943  21839134.758                    21839142.383
 118331910.437 7  92206720.42245  22517820.586                    22517826.859
 11  8 23 17 49 30.0000000  0 10G08G07G23G01G24G17G13G28G11G19
 111176176.241 8  86630852.27546  21156124.547                    21156132.074
 107065205.367 8  83427434.185 7  20373828.047                    20373835.613
 128064585.851 6  99790589.99143  24369906.250                    24369918.863
 121735288.080 6  94858734.989 6  23165457.484                    23165469.777
 121241275.280 6  94473736.95442  23071437.242                    23071449.902
 126837356.791 6  98834378.174 6  24136351.984                    24136363.867
 117628339.454 7  91658486.38344  22383942.500                    22383951.512
 118596741.923 7  92413068.76545  22568205.109                    22568213.438
 114725036.939 7  89396213.43943  21831455.789                    21831463.141
 118420327.765 7  92275616.98245  22534646.102                    22534651.871
 11  8 23 17 50  0.0000000  0 10G08G07G23G01G24G17G13G28G11G19
 111113009.517 8  86581631.44946  21144104.070                    21144112.234
 107048811.452 8  83414659.687 7  20370708.906                    20370716.027
 128178688.134 6  99879500.49243  24391619.602                    24391631.773
 121664192.590 6  94803336.021 6  23151926.891                    23151940.754
 121175896.566 6  94422792.58042  23058996.188                    23059008.977
 126736139.786 6  98755507.927 6  24117090.148                    24117102.594
 117730828.627 7  91738347.94844  22403446.211                    22403455.504
 118566325.028 7  92389367.30945  22562417.609                    22562425.383
 114685144.843 7  89365128.69743  21823864.641                    21823871.785
 118509055.011 7  92344755.04245  22551530.125                    22551536.305
 11  8 23 17 50 30.0000000  0 10G08G07G23G01G24G17G13G28G11G19
 111050034.895 8  86532560.31046  21132120.797                    21132129.004
 107032790.382 8  83402175.725 7  20367659.508                    20367666.719
 128292761.563 6  99968388.50043  24413328.141                    24413340.473
 121593286.798 6  94748084.865 6  23138434.781                    23138447.375
 121110728.697 5  94372012.54742  23046595.141                    23046606.887
 126635077.542 6  98676758.277 6  24097859.008                    24097871.195
 117833544.264 7  91818385.97444  22422991.695                    22423000.926
 118536017.365 7  92365750.95345  22556650.367                    22556657.750
 114645714.317 7  89334403.62543  21816361.000                    21816368.078
 118598089.353 7  92414132.39645  22568472.859                    22568479.441
 11  8 23 17 51  0.0000000  0 10G08G07G23G01G24G17G13G28G11G19
 110987254.703 8  86483640.68746  21120174.102                    21120182.328
 107017143.318 8  83389983.189 8  20364682.234                    20364689.430
 128406802.917 6 100057251.55443  24435028.617                    24435041.738
 121522574.215 6  94692984.246 6  23124976.867                    23124990.922
 121045774.527 5  94321399.02842  23034234.477                    23034246.176
 126534171.382 6  98598130.244 6  24078657.305                    24078668.758
 117936482.620 7  91898597.53344  22442580.523                    22442590.039
 118505817.864 7  92342218.88845  22550903.250                    22550911.672
 114606747.169 7  89304039.61943  21808946.266                    21808953.250
 118687427.691 7  92483746.63445  22585473.086                    22585480.113
 11  8 23 17 51 30.0000000  0 10G08G07G23G01G24G17G13G28G11G19
 110924671.852 8  86434874.83246  21108264.859                    21108272.691
 107001872.900 8  83378084.142 7  20361776.242                    20361783.816
 128520810.200 6 100146088.05943  24456723.648                    24456736.875
 121452057.941 6  94638036.590 6  23111558.727                    23111571.809
 120981037.665 6  94270954.83642  23021915.125                    23021926.820
 126433424.266 6  98519626.154 6  24059485.883                    24059497.309
 118039641.447 7  91978980.90644  22462211.109                    22462220.617
 118475725.826 7  92318770.55545  22545177.336                    22545185.293
 114568246.461 7  89274039.10143  21801619.258                    21801626.789
 118777067.888 7  92553596.08745  22602531.555                    22602537.906
 11  8 23 17 52  0.0000000  0  9G08G07G01G24G17G13G28G11G19
 110862288.803 8  86386264.67646  21096393.797                    21096401.813
 106986980.837 8  83366479.918 8  20358942.414                    20358950.059
 121381741.337 6  94583244.528 6  23098179.023                    23098192.266
 120916520.952 6  94220682.11952  23009637.469                    23009650.324
 126332838.049 6  98441247.467 6  24040344.398                    24040356.668
 118143017.667 7  92059533.66344  22481882.922                    22481892.875
 118445740.726 7  92295405.56045  22539470.898                    22539478.480
 114530214.306 7  89244403.67344  21794382.133                    21794389.676
 118867007.291 7  92623678.69745  22619646.805                    22619653.020
 11  8 23 17 52 30.0000000  0  9G08G07G01G24G17G13G28G11G19
 110800107.453 8  86337811.68146  21084560.930                    21084568.715
 106972468.415 7  83355171.519 8  20356181.039                    20356188.230
 121311626.597 5  94528609.783 6  23084835.438                    23084850.219
 120852227.269 6  94170583.18642  22997403.023                    22997415.574
 126232414.423 6  98362995.431 6  24021234.742                    24021246.570
 118246607.973 7  92140253.24544  22501595.539                    22501605.066
 118415860.986 7  92272122.65145  22533785.227                    22533792.668
 114492652.835 7  89215135.04144  21787234.422                    21787242.055
 118957242.376 7  92693991.70345  22636817.430                    22636824.480
 11  8 23 17 53  0.0000000  0  9G08G07G01G24G17G13G28G11G19
 110738129.963 8  86289517.54446  21072767.219                    21072774.586
 106958337.625 8  83344160.497 8  20353491.875                    20353499.090
 121241717.064 6  94474134.922 6  23071532.750                    23071546.398
 120788159.727 6  94120660.51942  22985211.359                    22985224.688
 126132155.539 6  98284871.773 6  24002154.453                    24002167.434
 118350409.053 7  92221137.06644  22521348.688                    22521357.793
 118386085.761 7  92248921.18445  22528119.133                    22528126.824
 114455564.014 7  89186234.68844  21780176.742                    21780184.402
 119047770.493 7  92764533.03945  22654044.555                    22654051.238
 11  8 23 17 53 30.0000000  0  9G08G07G01G24G17G13G28G11G19
 110676358.867 8  86241384.22646  21061012.328                    21061019.969
 106944590.069 8  83333448.086 8  20350876.008                    20350883.383
 121172015.830 6  94419822.324 6  23058268.328                    23058282.695
 120724321.423 6  94070916.42742  22973063.164                    22973076.152
 126032063.489 6  98206878.089 5  23983108.055                    23983120.141
 118454417.895 7  92302182.78844  22541140.844                    22541150.559
 118356414.407 7  92225800.66445  22522472.641                    22522480.480
 114418950.122 7  89157704.40344  21773209.469                    21773217.148
 119138588.549 7  92835300.28445  22671326.469                    22671333.664
 11  8 23 17 54  0.0000000  0 10G08G07G26G01G24G17G13G28G11G19
 110614796.524 8  86193413.57646  21049297.570                    21049305.156
 106931227.144 8  83323035.389 8  20348332.922                    20348340.203
 127494477.74816  99346397.55353  24261398.633                    24261409.809
 121102525.830 6  94365674.385 6  23045044.914                    23045058.613
 120660715.149 5  94021353.17442  22960960.234                    22960972.852
 125932139.703 6  98129015.545 6  23964093.266                    23964105.238
 118558631.215 7  92383387.81444  22560972.156                    22560981.746
 118326845.606 7  92202760.05845  22516846.219                    22516854.031
 114382813.029 7  89129545.64944  21766332.539                    21766340.445
 119229693.661 7  92906291.21945  22688663.547                    22688670.383
 11  8 23 17 54 30.0000000  0 10G08G07G26G01G24G17G13G28G11G19
 110553444.692 8  86145606.96446  21037622.891                    21037630.477
 106918250.229 7  83312923.487 8  20345863.828                    20345871.219
 127407288.520 6  99278457.86142  24244806.750                    24244817.762
 121033249.985 6  94311693.301 6  23031861.789                    23031875.551
 120597343.587 6  93971972.81542  22948901.445                    22948913.598
 125832386.179 6  98051285.647 6  23945111.688                    23945122.363
 118663045.492 7  92464749.45344  22580841.656                    22580850.813
 118297377.905 7  92179798.22445  22511238.406                    22511245.941
 114347154.531 7  89101759.82844  21759547.117                    21759555.484
 119321082.780 7  92977503.45045  22706054.211                    22706060.820
 11  8 23 17 55  0.0000000  0 10G08G07G26G01G24G17G13G28G11G19
 110492306.534 7  86097966.84646  21025988.672                    21025996.219
 106905661.330 8  83303113.931 8  20343467.984                    20343475.633
 127320482.202 6  99210816.54542  24228287.891                    24228297.723
 120964191.614 6  94257881.666 6  23018720.938                    23018733.410
 120534210.224 5  93922778.10442  22936886.219                    22936899.820
 125732805.213 6  97973690.213 6  23926161.273                    23926172.625
 118767657.949 7  92546265.50844  22600748.758                    22600758.164
 118268010.759 7  92156914.76145  22505650.016                    22505657.367
 114311976.894 7  89074348.69744  21752852.773                    21752861.715
 119412753.153 7  93048934.84145  22723498.727                    22723505.277
 11  8 23 17 55 30.0000000  0 10G08G07G26G01G24G17G13G28G11G19
 110431384.288 8  86050494.97246  21014395.266                    21014403.340
 106893462.352 7  83293608.206 8  20341146.438                    20341153.863
 127234061.676 5  99143475.91342  24211842.469                    24211853.719
 120895353.477 6  94204241.633 6  23005621.367                    23005634.102
 120471318.366 5  93873771.58242  22924919.305                    22924932.258
 125633398.723 6  97896230.761 6  23907245.195                    23907256.406
 118872465.831 7  92627933.85344  22620692.961                    22620702.555
 118238743.728 7  92134109.30245  22500080.781                    22500088.613
 114277282.700 7  89047314.26944  21746251.047                    21746259.223
 119504702.004 7  93120583.22945  22740996.016                    22741002.559
 11  8 23 17 56  0.0000000  0 10G08G07G26G01G24G17G13G28G11G19
 110370680.070 8  86003192.99646  21002843.680                    21002851.531
 106881654.853 8  83284407.533 8  20338899.648                    20338907.148
 127148029.639 5                  24195471.211
 120826739.211 6  94150776.073 6  22992564.477                    22992577.875
 120408670.657 5  93824955.26342  22912997.742                    22913010.348
 125534168.393 7  97818908.564 6  23888361.680                    23888373.164
 118977465.728 7  92709751.79744  22640674.188                    22640683.504
 118209575.498 7  92111380.83145  22494530.367                    22494538.074
 114243073.787 7  89020657.95644  21739740.711                    21739749.867
 119596926.765 7  93192446.61845  22758545.313                    22758552.313
 11  8 23 17 56 30.0000000  0 10G08G07G26G01G24G17G13G28G11G19
 110310197.072 8  85956063.38846  20991334.211                    20991341.742
 106870240.764 8  83275513.412 8  20336728.094                    20336735.180
 127062388.84715                  24179171.938
 120758351.123 6  94097486.740 6  22979550.313                    22979563.207
 120346270.542 6  93776331.91042  22901122.797                    22901134.961
 125435116.736 7  97741725.568 6  23869512.656                    23869524.410
 119082654.725 7  92791717.07544  22660691.031                    22660700.758
 118180505.419 7  92088728.83045  22488998.523                    22489006.238
 114209352.421 7  88994381.56045  21733323.961                    21733332.355
 119689424.706 7  93264522.89145  22776147.672                    22776154.559
 11  8 23 17 57  0.0000000  0 10G08G07G26G01G24G17G13G28G11G19
 110249937.205 8  85909107.65046  20979866.977                    20979874.605
 106859221.660 8  83266927.076 8  20334630.859                    20334638.539
 126977141.975 5                  24162950.578
 120690192.790 6  94044376.443 6  22966580.375                    22966593.539
 120284121.045 5  93727903.68852  22889295.203                    22889307.844
 125336245.638 7  97664683.282 6  23850698.508                    23850709.859
 119188030.035 7  92873827.53844  22680743.305                    22680753.195
 118151532.425 7  92066152.50045  22483484.859                    22483492.656
 114176120.493 7  88968486.54645  21727000.148                    21727009.227
 119782192.788 7  93336809.65245  22793800.906                    22793807.770
 11  8 23 17 57 30.0000000  0 10G08G07G26G01G24G17G13G28G11G19
 110189902.795 8  85862327.59446  20968442.797                    20968450.469
 106848599.116 8  83258649.747 8  20332609.555                    20332617.227
 126892291.931 5                  24146807.109
 120622267.208 6  93991447.521 6  22953654.328                    22953667.984
 120222224.915 5                  22877516.672
 125237556.881 6  97587783.068 6  23831918.469                    23831929.883
 119293588.349 7  92956080.62044  22700830.648                    22700840.902
 118122655.594 7  92043651.09945  22477989.711                    22477997.375
 114143379.873 7  88942974.38645  21720770.242                    21720778.656
 119875228.244 7  93409304.76245  22811505.445                    22811511.633
 11  8 23 17 58  0.0000000  0 10G08G07G26G01G24G17G13G28G11G19
 110130096.199 7  85815725.04446  20957062.125                    20957069.492
 106838374.760 8  83250682.689 8  20330663.891                    20330671.484
 126807841.459 6                  24130735.602
 120554577.671 6  93938702.519 6  22940774.039                    22940786.777
 120160585.377 5  93631611.26852  22865787.266                    22865797.387
 125139052.449 6  97511026.530 6  23813173.250                    23813184.871
 119399326.770 7  93038474.03844  22720951.930                    22720962.199
 118093874.012 7  92021223.90845  22472512.773                    22472520.637
 114111132.756 7  88917846.77745  21714633.336                    21714641.855
 119968527.965 7  93482005.78945  22829259.078                    22829266.195
 11  8 23 17 58 30.0000000  0 10G08G07G26G01G24G17G13G28G11G19
 110070519.999 8  85769302.04046  20945724.930                    20945732.754
 106828549.977 8  83243026.994 8  20328794.234                    20328801.656
 126723792.837 6                  24114742.375
 120487127.007 6  93886143.629 6  22927938.148                    22927951.023
 120099205.284 5  93583782.78042  22854108.070                    22854118.086
 125040734.010 6  97434414.919 6  23794463.914                    23794475.711
 119505241.785 7  93121005.06844  22741107.203                    22741117.059
 118065186.577 7  91998870.07645  22467053.633                    22467061.410
 114079380.894 7  88893105.07845  21708591.195                    21708599.816
 120062089.241 7  93554910.62344  22847063.609                    22847070.371
 11  8 23 17 59  0.0000000  0 10G08G07G26G01G24G17G13G28G11G19
 110011176.465 8  85723060.33046  20934432.102                    20934440.180
 106819126.706 8  83235684.163 8  20327001.078                    20327008.324
 126640148.978 6  98680679.14754  24098825.508                    24098836.172
 120419917.455 6  93833772.618 6  22915148.461                    22915161.883
 120038087.737 5  93536158.79542  22842476.711                    22842488.559
 124942603.880 6  97357950.059 6  23775790.367                    23775800.938
 119611330.187 7  93203671.20244  22761295.141                    22761304.727
 118036592.562 7  91976589.03645  22461612.594                    22461620.434
 114048126.329 7  88868750.89545  21702643.797                    21702652.242
 120155909.192 7  93628017.00544  22864916.984                    22864923.141
 11  8 23 17 59 30.0000000  0 10G08G07G26G01G24G17G13G28G11G19
 109952068.001 7  85677001.78346  20923184.484                    20923192.004
 106810106.197 8  83228655.172 8  20325284.328                    20325292.137
 126556912.520 7  98615819.61944  24082985.742                    24082996.965
 120352952.911 6  93781592.528 6  22902405.188                    22902418.840
 119977235.59315  93488741.63652  22830896.898                    22830910.055
 124844663.617 6  97281633.103 6  23757152.570                    23757163.492
 119717588.934 7  93286470.07844  22781515.734                    22781525.844
 118008090.644 7  91954379.76145  22456188.703                    22456196.551
 114017370.890 8  88844785.64345  21696791.195                    21696799.789
 120249985.000 7  93701322.76644  22882818.859                    22882825.066
 11  8 23 18  0  0.0000000  0 10G08G07G26G01G24G17G13G28G11G19
 109893197.509 7  85631128.67146  20911981.609                    20911989.262
 106801490.528 8  83221941.650 8  20323645.047                    20323652.070
 126474086.300 7  98551279.75844  24067224.531                    24067235.168
 120286236.413 6  93729605.714 6  22889709.008                    22889723.855
 119916652.323 6  93441533.97142  22819369.516                    22819381.016
 124746915.437 6  97205465.806 6  23738551.375                    23738562.766
 119824015.247 7  93369399.50644  22801768.227                    22801777.973
 117979680.340 7  91932241.86245  22450782.516                    22450790.219
 113987116.674 7  88821210.95445  21691034.242                    21691042.012
 120344313.947 7  93774825.78444  22900769.055                    22900775.672
 11  8 23 18  0 30.0000000  0 10G08G07G26G01G24G17G13G28G11G19
 109834567.046 7  85585442.59246  20900824.898                    20900832.531
 106793281.036 8  83215544.620 8  20322082.602                    20322090.086
 126391672.882 6  98487061.56943  24051540.586                    24051552.480
 120219770.850 6  93677814.459 6  22877061.445                    22877075.773
 119856340.513 6  93394537.85842  22807891.211                    22807904.168
 124649361.169 7  97129449.609 6  23719987.766                    23719998.477
 119930605.978 7  93452457.03744  22822051.617                    22822061.809
 117951360.733 7  91910174.63245  22445393.492                    22445401.070
 113957365.419 8  88798028.16845  21685372.648                    21685380.164
 120438893.115 7  93848523.78344  22918766.586                    22918773.344
 11  8 23 18  1  0.0000000  0 10G08G07G26G01G24G17G13G28G11G19
 109776179.208 7  85539945.57146  20889713.820                    20889721.133
 106785479.275 8  83209465.314 8  20320598.273                    20320606.121
 126309674.807 6  98423167.00243  24035937.250                    24035948.531
 120153559.134 6  93626220.969 6  22864462.484                    22864475.559
 119796303.320 6  93347755.75642  22796467.313                    22796479.750
 124552002.682 7  97053585.975 6  23701461.250                    23701471.973
 120037358.021 7  93535640.30044  22842365.836                    22842376.078
 117923130.624 7  91888177.14645  22440021.883                    22440029.422
 113928119.257 8  88775238.98045  21679807.430                    21679815.336
 120533719.819 7  93922414.65544  22936811.813                    22936818.949
 11  8 23 18  1 30.0000000  0 10G08G07G26G01G24G17G13G28G11G19
 109718036.152 8  85494639.29545  20878649.172                    20878657.051
 106778086.454 8  83203704.657 8  20319191.461                    20319198.895
 126228094.786 6  98359598.21343  24020412.148                    24020423.770
 120087604.108 6  93574827.540 6  22851910.906                    22851924.727
 119736543.477 6  93301189.69942  22785094.547                    22785108.191
 124454841.914 7  96977876.398 6  23682972.047                    23682983.176
 120144267.945 7  93618946.56244  22862710.313                    22862720.410
 117894989.668 7  91866249.13545  22434666.633                    22434674.723
 113899379.767 7  88752844.60445  21674338.227                    21674345.895
 120628790.984 7  93996496.01045  22954903.055                    22954910.512
 11  8 23 18  2  0.0000000  0 10G08G07G26G01G24G17G13G28G11G19
 109660140.914 7  85449526.12845  20867632.438                    20867640.508
 106771104.931 8  83198264.491 8  20317863.055                    20317870.266
 126146935.573 6  98296357.29243  24004969.086                    24004979.660
 120021909.331 6  93523636.892 6  22839410.008                    22839422.953
 119677064.285 6  93254842.42742  22773775.930                    22773790.270
 124357881.001 7  96902322.555 6  23664520.773                    23664532.039
 120251333.423 7  93702374.03644  22883084.406                    22883094.180
 117866937.055 7  91844389.96045  22429328.273                    22429336.332
 113871149.229 7  88730846.80745  21668966.258                    21668974.148
 120724103.862 7  94070765.73045  22973040.406                    22973048.113
 11  8 23 18  2 30.0000000  0 10G08G07G26G01G24G17G13G28G11G19
 109602495.488 7  85404607.61046  20856662.852                    20856670.582
 106764535.608 8  83193145.516 8  20316613.094                    20316620.266
 126066199.708 6  98233446.26743  23989605.586                    23989615.723
 119956477.309 6  93472650.985 5  22826958.594                    22826971.023
 119617868.664 6  93208716.04242  22762512.031                    22762525.227
 124261121.679 7  96826925.801 6  23646107.594                    23646119.133
 120358550.594 7  93785919.71944  22903487.289                    22903497.207
 117838971.088 7  91822598.31045  22424006.375                    22424014.016
 113843429.124 7  88709246.73545  21663691.156                    21663699.129
 120819655.670 7  94145221.61445  22991223.633                    22991230.699
 11  8 23 18  3  0.0000000  0 10G08G07G26G01G24G17G13G28G11G19
 109545102.679 8  85359885.94646  20845741.445                    20845749.355
 106758380.346 8  83188349.182 8  20315441.906                    20315449.016
 125985889.749 6  98170867.15143  23974324.266                    23974333.664
 119891311.356 6  93421872.387 5  22814557.383                    22814569.410
 119558959.663 5  93162813.04342  22751301.258                    22751314.398
 124164565.733 7  96751687.525 6  23627734.344                    23627744.926
 120465916.681 7  93869581.41544  22923918.594                    22923928.859
 117811091.416 7  91800873.89545  22418700.781                    22418708.742
 113816221.161 7  88688045.74245  21658513.391                    21658522.148
 120915443.729 7  94219861.61445  23009451.664                    23009459.031
 11  8 23 18  3 30.0000000  0 10G08G07G26G01G24G17G13G28G11G19
 109487964.700 8  85315362.85146  20834868.523                    20834876.621
 106752641.048 8  83183876.996 8  20314349.398                    20314357.020
 125906008.457 6  98108622.09943  23959122.531                    23959132.012
 119826414.956 6  93371303.835 5  22802208.445                    22802220.250
 119500340.243 5  93117135.62442  22740147.016                    22740158.598
 124068215.323 6  96676609.432 6  23609398.922                    23609410.141
 120573428.847 7  93953356.94844  22944377.508                    22944388.141
 117783297.222 7  91779216.08845  22413411.992                    22413420.094
 113789527.421 7  88667245.41945  21653433.633                    21653442.160
 121011465.270 7  94294683.52945  23027724.438                    23027730.973
 11  8 23 18  4  0.0000000  0 10G08G07G26G01G24G17G13G28G11G19
 109431084.182 8  85271040.37946  20824044.398                    20824052.211
 106747318.646 8  83179729.649 8  20313336.844                    20313344.094
 125826558.270 6  98046712.93542  23944003.055                    23944013.496
 119761790.083 6  93320946.876 6  22789910.148                    22789921.930
 119442013.220 6  93071686.02542  22729047.148                    22729058.531
 123972072.052 6  96601692.743 6  23591103.273                    23591114.387
 120681083.796 7  94037243.72344  22964863.313                    22964874.297
 117755587.408 7  91757624.03945  22408139.258                    22408146.801
 113763349.449 7  88646847.00845  21648452.445                    21648460.730
 121107717.333 7  94369685.06345  23046040.430                    23046047.168
 11  8 23 18  4 30.0000000  0 10G08G07G26G01G24G17G13G28G11G19
 109374463.689 8  85226920.51746  20813270.008                    20813277.641
 106742414.586 8  83175908.294 8  20312403.531                    20312410.832
 125747541.468 6  97985141.47342  23928967.359                    23928976.945
 119697440.146 6  93270804.132 6  22777665.828                    22777677.422
 119383981.698 6  93026466.73642  22718004.953                    22718015.398
 123876138.074 6  96526939.150 6  23572847.344                    23572858.621
 120788878.506 7  94121239.41444  22985376.625                    22985387.340
 117727960.738 7  91736096.78145  22402881.805                    22402889.582
 113737689.004 8  88626851.86345  21643569.547                    21643577.516
 121204197.176 7  94444864.08645  23064400.344                    23064406.844
 11  8 23 18  5  0.0000000  0 10G08G07G26G01G24G17G13G28G11G19
 109318105.461 8  85183005.02146  20802545.555                    20802553.293
 106737930.570 8  83172414.231 8  20311550.219                    20311557.574
 125668961.167 6  97923910.12742  23914013.758                    23914024.230
 119633368.073 6  93220877.913 6  22765472.977                    22765485.492
 119326248.487 5                  22707017.805
 123780414.685 6  96452349.646 6  23554631.594                    23554642.594
 120896809.906 7  94205341.65444  23005915.164                    23005925.813
 117700417.091 7  91714634.21345  22397640.500                    22397648.082
 113712547.871 7  88607261.37145  21638785.148                    21638793.438
 121300901.905 7  94520218.34744  23082802.234                    23082809.156
 11  8 23 18  5 30.0000000  0 10G08G07G26G01G24G17G13G28G11G19
 109262012.234 8  85139296.02746  20791871.180                    20791878.707
 106733867.850 8  83169248.458 8  20310777.023                    20310784.609
 125590819.683 6  97863020.70343  23899143.758                    23899153.969
 119569576.936 6  93171170.579 6  22753332.938                    22753346.898
 119268816.913 6                  22696089.094
 123684904.226 6  96377926.048 6  23536456.648                    23536468.008
 121004874.731 7  94289547.85044  23026480.164                    23026489.605
 117672955.159 7  91693235.31845  22392414.602                    22392422.477
 113687927.482 7  88588076.66845  21634100.023                    21634108.207
 121397828.648 7  94595745.60544  23101246.680                    23101253.805
 11  8 23 18  6  0.0000000  0 10G08G07G26G01G24G17G13G28G11G19
 109206186.532 8  85095795.49046  20781247.844                    20781255.316
 106730228.495 8  83166412.572 8  20310084.695                    20310092.070
 125513119.620 6  97802475.22043  23884357.711                    23884369.055
 119506070.025 6  93121684.743 6  22741247.820                    22741261.988
 119211689.761 6  92892206.55852  22685217.289                    22685226.871
 123589608.573 6  96303669.800 6  23518322.633                    23518333.777
 121113070.179 7  94373855.82144  23047068.641                    23047078.574
 117645574.421 7  91671899.68945  22387204.109                    22387211.809
 113663829.973 8  88569299.39745  21629514.352                    21629521.949
 121494975.080 6  94671444.06544  23119733.008                    23119739.727
 11  8 23 18  6 30.0000000  0 10G08G07G26G01G24G17G13G28G11G19
 109150630.414 8  85052505.02446  20770675.922                    20770683.785
 106727013.356 8  83163907.239 8  20309473.047                    20309480.230
 125435863.024 6  97742275.35543  23869655.406                    23869667.543
 119442849.454 6  93072422.007 6  22729217.742                    22729231.211
 119154869.587 6  92847931.14942  22674404.609                    22674416.121
 123494529.284 6  96229582.149 6  23500229.367                    23500240.496
 121221392.886 7  94458262.96544  23067681.930                    23067692.324
 117618273.706 7  91650626.41845  22382009.172                    22382016.414
 113640256.656 8  88550930.58645  21625028.547                    21625036.605
 121592338.285 6  94747311.43344  23138260.797                    23138267.664
 11  8 23 18  7  0.0000000  0 10G08G07G26G01G24G17G13G28G11G19
 109095346.638 8  85009426.76846  20760155.820                    20760163.984
 106724224.188 8  83161733.832 8  20308942.063                    20308949.277
 125359052.931 7  97682423.36543  23855039.422                    23855050.723
 119379918.974 6  93023385.331 6  22717241.555                    22717255.695
 119098359.686 6  92803897.55942  22663651.133                    22663664.059
 123399668.605 6  96155664.854 6  23482177.805                    23482188.398
 121329840.146 7  94542767.14244  23088318.383                    23088329.598
 117591052.146 7  91629414.82045  22376828.797                    22376836.348
 113617209.338 8  88532971.65445  21620642.711                    21620650.391
 121689915.055 6  94823345.21344  23156829.586                    23156835.809
 11  8 23 18  7 30.0000000  0 10G08G07G26G01G24G17G13G28G11G19
 109040337.460 8  84966562.48846  20749687.828                    20749695.621
 106721861.894 8  83159893.075 8  20308492.711                    20308499.867
 125282691.754 7  97622921.20343  23840508.766                    23840520.215
 119317281.253 5  92974576.764 6  22705322.250                    22705336.098
 119042162.914 6  92760107.95742  22652957.516                    22652971.020
 123305027.675 6  96081918.789 6  23464168.086                    23464178.891
 121438408.473 7  94627365.62543  23108978.617                    23108989.820
 117563908.876 7  91608264.22145  22371663.672                    22371671.176
 113594689.345 8  88515423.62545  21616357.219                    21616365.109
 121787702.608 6  94899543.25344  23175437.969                    23175444.387
 11  8 23 18  8  0.0000000  0 10G08G07G26G01G24G17G13G28G11G19
 108985605.686 8  84923914.36346  20739272.656                    20739280.609
 106719928.443 8  83158386.467 8  20308124.953                    20308131.961
 125206781.908 6  97563770.74443  23826063.711                    23826074.836
 119254939.244 6  92925998.639 6  22693459.422                    22693472.938
 118986282.088 6  92716564.61242  22642324.273                    22642337.086
 123210608.600 6  96008345.627 6  23446200.867                    23446211.664
 121547095.021 7  94712056.23844  23129661.883                    23129672.090
 117536843.208 7  91587174.09845  22366513.086                    22366520.391
 113572698.309 7  88498287.76945  21612172.914                    21612180.715
 121885698.535 6  94975903.67444  23194084.773                    23194092.031
 11  8 23 18  8 30.0000000  0 10G08G07G26G01G24G17G13G28G11G19
 108931154.175 8  84881484.62446  20728910.805                    20728918.906
 106718425.191 8  83157215.077 8  20307838.289                    20307846.113
 125131325.946 6  97504973.92843  23811704.867                    23811715.469
 119192896.260 6  92877653.505 6  22681653.227                    22681666.359
 118930720.181 6  92673269.68142  22631751.453                    22631763.512
 123116413.469 6  95934946.967 6  23428275.781                    23428286.980
 121655897.083 7  94796836.91744  23150365.953                    23150376.520
 117509854.132 7  91566143.66845  22361377.547                    22361384.938
 113551237.920 8  88481565.39845  21608088.938                    21608096.941
 121983899.929 7  95052424.17344  23212772.469                    23212779.469
 11  8 23 18  9  0.0000000  0 10G08G07G26G01G24G17G13G28G11G19
 108876985.301 8  84839275.12346  20718603.008                    20718610.828
 106717353.572 8  83156380.020 8  20307634.727                    20307642.137
 125056326.283 6  97446532.72444  23797432.813                    23797443.727
 119131155.026 6  92829543.533 6  22669904.742                    22669917.121
 118875480.066 6  92630225.52442  22621239.086                    22621251.480
 123022444.211 6  95861724.301 6  23410393.477                    23410404.734
 121764811.318 7  94881704.98044  23171091.500                    23171101.816
 117482941.104 7  91545172.49345  22356256.258                    22356263.336
 113530309.688 8  88465257.68246  21604106.453                    21604114.566
 122082303.929 7  95129102.55644  23231498.508                    23231505.031
 11  8 23 18  9 30.0000000  0 10G08G07G26G01G24G17G13G28G11G19
 108823100.918 8  84797287.29546  20708348.883                    20708356.988
 106716714.874 8  83155882.313 8  20307513.383                    20307520.707
 124981785.226 7  97388448.86443  23783248.008                    23783258.816
 119069717.912 6  92781670.511 6  22658212.742                    22658225.434
 118820564.534 6  92587434.22942  22610789.211                    22610800.898
 122928702.155 6  95788678.663 7  23392554.750                    23392566.168
 121873834.769 7  94966658.15743  23191838.016                    23191848.887
 117456102.776 7  91524259.51945  22351148.969                    22351156.168
 113509915.161 8  88449365.85146  21600225.453                    21600233.586
 122180907.873 7  95205936.72844  23250262.359                    23250269.367
 11  8 23 18 10  0.0000000  0 10G08G07G26G01G24G17G13G28G11G19
 108769504.023 8  84755523.49246  20698149.961                    20698157.488
 106716510.031 8  83155722.672 8  20307474.250                    20307481.848
 124907705.093 7  97330724.16044  23769151.461                    23769160.961
 119008588.208 6  92734037.049 6  22646580.281                    22646592.039
 118765976.459 6  92544898.16242  22600401.453                    22600413.336
 122835189.185 7  95715811.518 6  23374760.727                    23374771.031
 121982963.971 7  95051693.71943  23212605.508                    23212615.395
 117429338.254 7  91503404.07645  22346055.898                    22346063.086
 113490055.974 8  88433891.17446  21596446.242                    21596454.359
 122279708.902 7  95282924.48144  23269063.555                    23269070.492
 11  8 23 18 10 30.0000000  0 10G08G07G26G01G24G17G13G28G11G19
 108716196.770 8  84713985.38246  20688005.688                    20688013.746
 106716740.661 8  83155902.357 8  20307517.867                    20307525.531
 124834088.345 6  97273360.49844  23755142.461                    23755152.066
 118947768.447 6  92686645.082 6  22635006.055                    22635018.691
 118711718.539 6  92502619.31343  22590076.203                    22590088.363
 122741907.302 7  95643124.426 6  23357009.141                    23357020.227
 122092195.997 7  95136809.39844  23233391.500                    23233401.801
 117402646.957 7  91482605.66945  22340976.875                    22340983.875
 113470733.213 8  88418834.47546  21592769.336                    21592777.059
 122378704.300 7  95360063.68845  23287902.078                    23287908.496
 11  8 23 18 11  0.0000000  0 10G08G07G26G01G24G17G13G28G11G19
 108663182.178 8  84672675.31546  20677917.484                    20677925.266
 106717408.351 8  83156422.612 8  20307645.250                    20307652.668
 124760937.475 6  97216359.90243  23741221.977                    23741232.449
 118887262.216 5  92639497.434 6  22623492.570                    22623504.996
 118657794.116 6  92460600.36943  22579814.180                    22579826.570
 122648857.896 7  95570618.508 6  23339302.820                    23339312.996
 122201528.084 7  95222003.00444  23254196.477                    23254207.961
 117376028.521 7  91461864.04345  22335911.383                    22335918.980
 113451948.431 8  88404196.99046  21589194.727                    21589202.879
 122477891.498 6  95437352.34445  23306776.688                    23306783.848
 11  8 23 18 11 30.0000000  0 10G08G07G26G01G24G17G13G28G11G19
 108610462.703 8  84631595.20546  20667884.922                    20667893.191
 106718514.475 8  83157284.500 8  20307855.672                    20307863.371
 124688255.028 6  97159724.32443  23727390.461                    23727401.203
 118827072.359 5  92592596.283 6  22612038.297                    22612051.594
 118604205.889 6  92418843.33143  22569617.438                    22569628.813
 122556043.108 6  95498295.413 6  23321639.758                    23321650.656
 122310957.203 7  95307272.23744  23275020.773                    23275032.031
 117349481.805 7  91441178.30545  22330859.688                    22330867.023
 113433703.361 8  88389980.06346  21585722.813                    21585730.719
 122577267.761 6  95514788.32644  23325687.586                    23325694.797
 11  8 23 18 12  0.0000000  0 10G08G07G26G01G24G17G13G28G11G19
 108558040.523 8  84590746.75946  20657909.586                    20657917.301
 106720060.300 8  83158489.015 8  20308150.180                    20308157.539
 124616043.313 6  97103455.54243  23713649.336                    23713660.320
 118767201.560 5  92545943.779 6  22600645.945                    22600659.129
 118550956.456 6  92377350.28043  22559484.055                    22559495.066
 122463464.824 6  95426156.608 6  23304023.109                    23304033.215
 122420480.096 7  95392614.55144  23295862.461                    23295873.625
 117323006.210 7  91420547.99945  22325821.531                    22325828.910
 113415999.145 8  88376184.56846  21582353.867                    21582361.809
 122676830.337 6  95592369.48244  23344633.391                    23344640.652
 11  8 23 18 12 30.0000000  0 10G08G07G26G01G24G17G13G28G11G19
 108505918.391 8  84550132.11546  20647991.211                    20647998.922
 106722046.868 8  83160036.966 8  20308528.367                    20308535.891
 124544304.473 6  97047555.19843  23699998.000                    23700008.594
 118707652.921 6  92499542.276 6  22589314.602                    22589327.141
 118498049.011 6  92336123.74042  22549416.266                    22549427.418
 122371124.559 6  95354203.255 6  23286451.094                    23286461.688
 122530094.205 7  95478027.95344  23316721.359                    23316732.500
 117296600.348 7  91399972.02245  22320796.531                    22320803.988
 113398837.263 8  88362811.68146  21579087.867                    21579096.023
 122776576.454 6  95670093.65044  23363613.906                    23363621.617
 11  8 23 18 13  0.0000000  0 10G08G07G26G01G24G17G13G28G11G19
 108454099.201 8  84509753.53646  20638130.391                    20638138.098
 106724476.165 8  83161929.909 8  20308990.469                    20308997.844
 124473041.203 6  96992025.41343  23686436.273                    23686447.250
 118648429.323 6  92453394.076 6  22578043.719                    22578057.352
 118445486.381 6  92295165.91442  22539413.688                    22539424.984
 122279024.209 6  95282436.842 6  23268924.773                    23268935.738
 122639796.461 7  95563510.02343  23337596.813                    23337607.742
 117270264.096 7  91379450.28045  22315785.195                    22315792.309
 113382219.153 8  88349862.51346  21575925.688                    21575933.980
 122876503.452 7  95747958.74944  23382629.617                    23382637.219
 11  8 23 18 13 30.0000000  0 10G08G07G26G01G24G17G13G28G11G19
 108402584.901 8  84469612.52346  20628327.172                    20628335.016
 106727348.793 8  83164168.303 8  20309536.961                    20309544.602
 124402255.808 6  96936867.99943  23672966.469                    23672977.270
 118589533.293 6  92407501.117 6  22566837.008                    22566850.074
 118393271.048 6  92254478.71142  22529477.320                    22529489.043
 122187165.276 7  95210858.542 7  23251444.844                    23251455.301
 122749583.462 6  95649058.14743  23358488.180                    23358499.734
 117243996.100 7  91358981.73145  22310785.938                    22310793.523
 113366145.836 8  88337337.86346  21572867.055                    21572875.199
 122976608.407 7  95825962.49944  23401679.453                    23401686.469
 11  8 23 18 14  0.0000000  0 10G08G07G26G01G24G17G13G28G11G19
 108351377.891 8  84429710.96246  20618583.070                    20618590.555
 106730666.030 8  83166753.140 8  20310168.273                    20310175.848
 124331950.255 6  96882084.48943  23659587.523                    23659598.305
 118530968.028 6  92361865.910 6  22555692.172                    22555704.918
 118341406.011 6  92214064.47942  22519608.313                    22519618.156
 122095549.606 7  95139469.786 7  23234011.070                    23234021.496
 122859452.326 6  95734670.03443  23379396.930                    23379407.582
 117217795.506 8  91338565.70145  22305800.344                    22305807.344
 113350619.046 8  88325239.07946  21569912.313                    21569920.047
 123076888.327 7  95904102.63444  23420762.211                    23420768.980
 11  8 23 18 14 30.0000000  0 10G08G07G26G01G24G17G13G28G11G19
 108300480.865 8  84390050.95046  20608897.938                    20608905.523
 106734428.845 8  83169685.188 8  20310884.313                    20310891.695
 124262126.766 7  96827676.58843  23646300.688                    23646311.828
 118472735.903 6  92316490.298 6  22544610.719                    22544623.434
 118289893.991 6  92173925.27742  22509804.883                    22509814.941
 122004178.570 7  95068271.644 7  23216623.781                    23216634.027
 122969399.802 7  95820343.19643  23400318.953                    23400330.152
 117191661.661 8  91318201.68045  22300827.305                    22300834.410
 113335639.393 8  88313566.63346  21567061.383                    21567069.766
 123177340.852 7  95982377.27244  23439877.102                    23439884.488
 11  8 23 18 15  0.0000000  0 10G08G07G26G01G24G17G13G28G11G19
 108249896.090 8  84350634.23846  20599271.828                    20599279.426
 106738638.803 8  83172965.650 8  20311685.289                    20311692.547
 124192787.721 7  96773646.20143  23633105.977                    23633116.730
 118414839.957 6  92271376.661 6  22533593.547                    22533606.246
 118238737.696 6  92134063.26643  22500070.211                    22500080.746
 121913054.127 7  94997265.657 7  23199284.008                    23199293.969
 123079422.812 7  95906075.22743  23421255.227                    23421266.828
 117165593.732 8  91297889.02045  22295866.945                    22295873.938
 113321208.472 8  88302321.78346  21564315.719                    21564323.746
 123277963.029 7  96060784.09744  23459026.320                    23459032.363
 11  8 23 18 15 30.0000000  0 10G08G07G26G01G24G17G13G28G11G19
 108199626.332 8  84311462.99746  20589706.117                    20589713.590
 106743296.988 8  83176595.389 8  20312571.648                    20312579.188
 124123935.475 7  96719995.11343  23620004.336                    23620014.637
 118357283.403 6  92226527.456 6  22522640.383                    22522653.473
 118187939.959 6  92094480.69643  22490403.883                    22490414.699
 121822177.959 7  94926453.149 7  23181990.016                    23182000.508
 123189518.617 7  95991863.95343  23442206.617                    23442217.633
 117139590.881 8  91277627.07945  22290918.680                    22290925.867
 113307327.543 8  88291505.50046  21561674.320                    21561682.051
 123378752.205 7  96139321.09144  23478205.414                    23478212.492
 11  8 23 18 16  0.0000000  0 10G08G07G26G01G24G17G13G28G11G19
 108149673.921 8  84272539.03946  20580200.102                    20580207.613
 106748404.716 8  83180575.420 8  20313543.797                    20313551.254
 124055571.981 7  96666724.90143  23606995.367                    23607004.371
 118300068.392 5  92181944.400 6  22511752.289                    22511765.680
 118137503.472 6  92055179.56543  22480805.953                    22480817.367
 121731551.873 7  94855835.515 7  23164744.578                    23164754.750
 123299684.151 7  96077707.04444  23463170.609                    23463181.762
 117113652.423 7  91257415.30345  22285982.695                    22285990.008
 113293997.747 8  88281118.66446  21559137.508                    21559145.707
 123479705.985 7  96217986.32444  23497416.273                    23497422.887
 11  8 23 18 16 30.0000000  0 10G08G07G26G01G24G17G13G28G11G19
 108100041.738 8  84233864.61246  20570755.078                    20570762.828
 106753963.046 8  83184906.573 8  20314601.453                    20314609.281
 123987699.590 7  96613837.32844  23594079.789                    23594088.703
 118243197.969 5  92137629.839 5  22500929.914                    22500943.633
 118087430.804 6  92016161.95943  22471277.938                    22471289.508
 121641177.413 7  94785413.938 6  23147546.117                    23147556.445
 123409916.232 7  96163601.95444  23484147.297                    23484158.543
 117087777.588 7  91237253.11845  22281058.852                    22281066.141
 113281220.187 8  88271162.14446  21556706.094                    21556714.625
 123580821.676 7  96296777.71544  23516658.227                    23516664.840
 11  8 23 18 17  0.0000000  0 10G08G07G26G01G24G17G13G28G11G19
 108050731.991 8  84195441.43446  20561371.875                    20561379.398
 106759973.304 8  83189589.873 8  20315745.406                    20315753.164
 123920320.699 7  96561334.33244  23581257.820                    23581267.633
 118186675.202 5  92093586.190 5  22490174.195                    22490186.836
 118037725.056 7  91977430.22943  22461818.820                    22461830.500
 121551056.370 7  94715189.836 6  23130397.359                    23130407.441
 123520212.073 6  96249546.53243  23505135.656                    23505147.426
 117061965.692 8  91217139.96445  22276146.969                    22276154.305
 113268996.275 8  88261637.04046  21554379.922                    21554387.707
 123682096.396 7  96375693.02044  23535929.695                    23535936.910
 11  8 23 18 17 30.0000000  0 10G08G07G26G01G24G17G13G28G11G19
 108001747.734 8  84157271.87746  20552050.875                    20552058.176
 106766436.800 8  83194626.347 8  20316975.383                    20316982.949
 123853437.574 7  96509217.68044  23568530.406                    23568541.109
 118130502.755 5  92049815.502 5  22479485.234                    22479497.844
 117988388.805 7  91938986.42143  22452430.555                    22452442.563
 121461190.443 7  94645164.511 6  23113295.648                    23113306.375
 123630568.983 6  96335538.67943  23526135.859                    23526147.348
 117036216.031 7  91197075.30345  22271246.750                    22271254.223
 113257327.230 8  88252544.29246  21552159.234                    21552167.652
 123783527.676 7  96454730.28744  23555231.719                    23555238.563
 11  8 23 18 18  0.0000000  0 10G08G07G26G01G24G17G13G28G11G19
 107953091.699 8  84119358.08746  20542791.531                    20542799.133
 106773354.850 8  83200017.020 8  20318291.922                    20318299.051
 123787052.312 7  96457488.95144  23555897.609                    23555908.465
 118074683.761 6  92006320.255 6  22468863.711                    22468875.477
 117939425.081 7  91900832.92643  22443112.891                    22443124.730
 121371581.417 7  94575339.368 6  23096243.891                    23096254.316
 123740983.801 6  96421575.96243  23547147.586                    23547158.938
 117010527.836 7  91177058.52745  22266358.758                    22266365.922
 113246214.215 8  88243884.82046  21550044.734                    21550052.418
 123885113.115 6  96533887.70444  23574561.500                    23574569.598
 11  8 23 18 18 30.0000000  0 10G08G07G26G01G24G17G13G28G11G19
 107904765.505 8  84081701.31946  20533595.484                    20533602.813
 106780727.955 8  83205762.278 8  20319694.891                    20319702.328
 123721167.077 6  96406149.87743  23543359.539                    23543370.555
 118019220.710 6  91963102.308 6  22458309.219                    22458321.301
 117890836.138 7  91862971.47243  22433866.094                    22433878.453
 121282230.698 7  94505715.497 6  23079241.313                    23079251.504
 123851453.491 6  96507656.02343  23568168.523                    23568180.613
 116984900.274 7  91157089.00445  22261481.898                    22261488.965
 113235657.903 8  88235659.12946  21548035.758                    21548043.973
 123986849.332 6  96613162.58344  23593922.313                    23593929.602
 11  8 23 18 19  0.0000000  0 10G08G07G26G01G24G17G13G28G11G19
 107856772.138 8  84044303.88946  20524462.711                    20524470.078
 106788557.432 8  83211863.150 8  20321184.609                    20321192.059
 123655783.764 6  96355201.91243  23530917.492                    23530927.844
 117964116.256 6  91920163.804 6  22447823.766                    22447835.828
 117842625.046 7  91825404.45043  22424692.523                    22424703.699
 121193139.911 7  94436294.178 7  23062287.781                    23062297.789
 123961975.148 6  96593776.55343  23589201.375                    23589212.730
 116959332.409 7  91137166.00645  22256616.594                    22256623.977
 113225659.506 8  88227868.17646  21546133.133                    21546141.172
 124088734.271 6  96692553.36544  23613310.055                    23613317.891
 11  8 23 18 19 30.0000000  0 10G08G07G26G01G24G17G13G28G11G19
 107809113.958 8  84007167.65146  20515394.047                    20515401.445
 106796844.351 8  83218320.470 7  20322761.750                    20322769.070
 123590904.644 6  96304646.81144  23518570.898                    23518581.699
 117909373.333 6  91877507.030 6  22437406.172                    22437419.105
 117794794.400 7  91788133.88943  22415589.930                    22415600.902
 121104310.903 7  94367076.850 7  23045384.234                    23045394.391
 124072545.551 7  96679935.09043  23610242.547                    23610254.262
 116933823.622 7  91117289.03345  22251762.547                    22251770.270
 113216219.993 8  88220512.72146  21544336.891                    21544344.738
 124190764.872 6  96772057.62144  23632726.617                    23632734.086
 11  8 23 18 20  0.0000000  0 10G08G07G26G01G24G17G13G28G11G19
 107761793.559 8  83970294.62546  20506388.883                    20506396.301
 106805589.909 8  83225135.162 7  20324426.164                    20324433.582
 123526531.634 6  96254486.07144  23506321.086                    23506331.879
 117854994.447 6  91835133.942 6  22427057.883                    22427070.773
 117747346.629 7  91751161.65043  22406561.188                    22406571.230
 121015745.089 7  94298064.589 7  23028530.656                    23028540.766
 124183161.915 7  96766129.45044  23631292.469                    23631304.039
 116908373.171 7  91097457.51945  22246919.125                    22246926.781
 113207340.586 8  88213593.71046  21542647.219                    21542655.332
 124292938.545 7  96851673.38844  23652169.031                    23652177.324
 11  8 23 18 20 30.0000000  0 10G08G07G26G01G24G17G13G28G11G19
 107714813.360 8  83933686.69046  20497449.086                    20497456.164
 106814794.895 8  83232307.846 8  20326177.445                    20326185.016
 123462666.862 6  96204721.38343  23494167.867                    23494178.887
 117800982.572 6  91793046.791 6  22416779.609                    22416792.781
 117700284.226 7  91714489.73743  22397605.234                    22397616.391
 120927443.997 7  94229258.637 7  23011727.477                    23011737.363
 124293821.050 6  96852357.11343  23652350.125                    23652361.398
 116882980.211 7  91077670.81045  22242087.047                    22242094.453
 113199021.969 8  88207111.67946  21541064.445                    21541072.109
 124395252.721 6  96931398.64944  23671639.633                    23671646.836
 11  8 23 18 21  0.0000000  0 10G08G07G26G01G24G17G13G28G11G19
 107668176.004 8  83897345.90346  20488574.172                    20488581.480
 106824460.431 7  83239839.409 7  20328016.805                    20328024.289
 123399312.582 6  96155354.47844  23482112.344                    23482123.340
 117747340.054 6  91751247.479 6  22406571.430                    22406585.523
 117653610.281 7  91678120.42544  22388722.828                    22388734.066
 120839409.276 7  94160660.249 7  22994974.641                    22994984.797
 124404520.083 6  96938615.88243  23673416.133                    23673427.125
 116857644.302 7  91057928.55845  22237265.883                    22237273.105
 113191265.084 8  88201067.37346  21539588.047                    21539595.680
 124497704.553 6  97011231.19044  23691135.602                    23691142.297
 11  8 23 18 21 30.0000000  0 10G08G07G26G01G24G17G13G28G11G19
 107621883.960 8  83861274.19246  20479765.313                    20479772.676
 106834587.482 8  83247730.587 7  20329944.188                    20329951.602
 123336470.515 6  96106386.71943  23470153.430                    23470163.941
 117694070.057 6  91709738.427 6  22396433.852                    22396447.996
 117607327.171 7  91642055.73643  22379916.484                    22379926.711
 120751642.678 7  94092270.793 7  22978272.711                    22978283.141
 124515256.190 6  97024903.49343  23694487.984                    23694500.078
 116832364.330 7  91038229.88645  22232455.055                    22232462.207
 113184070.972 8  88195461.58546  21538219.414                    21538227.070
 124600291.876 6  97091169.32044  23710656.336                    23710664.172
 11  8 23 18 22  0.0000000  0 10G08G07G26G01G24G17G13G28G11G19
 107575939.667 8  83825473.45346  20471021.914                    20471029.746
 106845177.749 7  83255982.711 7  20331959.211                    20331966.984
 123274143.171 6  96057819.99243  23458293.273                    23458302.715
 117641174.745 6  91668521.354 6  22386368.766                    22386383.195
 117561437.697 7  91606297.74544  22371184.047                    22371194.297
 120664145.715 7  94024091.430 7  22961623.016                    22961633.258
 124626026.475 6  97111217.72443  23715567.508                    23715578.563
 116807140.049 7  91018574.60245  22227655.086                    22227662.281
 113177440.931 8  88190295.33846  21536957.305                    21536965.254
 124703011.892 6  97171210.81944  23730203.539                    23730211.344
 11  8 23 18 22 30.0000000  0 10G08G07G26G01G24G17G13G28G11G19
 107530346.149 8  83789946.04546  20462345.891                    20462353.496
 106856232.007 7  83264596.387 7  20334062.930                    20334070.645
 123212332.305 6  96009655.73543  23446531.289                    23446541.164
 117588657.711 6  91627599.049 6  22376376.289                    22376389.176
 117515944.560 7  91570848.60044  22362527.156                    22362537.910
 120576919.914 7  93956123.352 7  22945023.898                    22945034.637
 124736828.299 6  97197556.55343  23736652.164                    23736663.563
 116781970.347 7  90998961.86845  22222865.516                    22222872.758
 113171375.771 8  88185569.25446  21535803.531                    21535811.094
 124805862.244 6  97251353.87044  23749775.617                    23749783.199
 11  8 23 18 23  0.0000000  0 10G08G07G26G01G24G17G13G28G11G19
 107485104.990 8  83754693.20146  20453736.836                    20453744.625
 106867750.577 7  83273571.865 7  20336254.602                    20336262.586
 123151039.794 6  95961895.36543  23434867.320                    23434877.961
 117536521.164 6  91586973.230 5  22366454.086                    22366466.840
 117470850.087 7  91535710.10144  22353945.586                    22353956.531
 120489967.009 7  93888367.915 7  22928477.266                    22928488.027
 124847658.351 6  97283917.38643  23757742.313                    23757754.012
 116756854.828 7  90979391.35645  22218085.906                    22218093.313
 113165875.886 8  88181283.64746  21534756.633                    21534764.469
 124908839.623 6  97331595.93544  23769371.656                    23769378.656
 11  8 23 18 23 30.0000000  0 10G08G07G26G01G24G17G13G28G11G19
 107440218.707 8  83719716.88546  20445195.055                    20445202.961
 106879734.485 7  83282909.941 7  20338535.313                    20338542.699
 123090267.416 7  95914540.30743  23423302.922                    23423312.770
 117484767.087 6  91546645.430 6  22356606.109                    22356618.336
 117426156.785 7  91500884.19744  22345440.977                    22345451.641
 120403288.277 7  93820826.106 7  22911983.430                    22911993.262
 124958513.590 6  97370297.82543  23778837.492                    23778849.328
 116731792.291 7  90959862.12545  22213316.688                    22213323.848
 113160942.004 8  88177439.07546  21533817.625                    21533825.605
 125011941.884 6  97411935.28844  23788991.727                    23788998.957
 11  8 23 18 24  0.0000000  0 10G08G07G26G01G24G17G13G28G11G19
 107395690.327 8  83685019.45946  20436721.734                    20436729.410
 106892184.939 7  83292611.567 7  20340904.289                    20340912.461
 123030017.368 7  95867592.25144  23411837.398                    23411848.043
 117433398.812 6  91506618.263 6  22346830.523                    22346843.301
 117381867.189 7  91466372.88544  22337012.656                    22337023.988
 120316885.389 7  93753499.243 7  22895541.539                    22895551.301
 125069391.139 7  97456695.69943  23799936.922                    23799949.309
 116706782.247 8  90940373.79445  22208557.086                    22208564.492
 113156575.287 8  88174036.46146  21532986.859                    21532994.453
 125115166.604 6  97492370.04243  23808634.766                    23808641.672
 11  8 23 18 24 30.0000000  0 10G08G07G26G01G24G17G13G28G11G19
 107351522.693 8  83650603.12546  20428316.953                    20428324.586
 106905103.457 7  83302677.887 7  20343363.094                    20343370.781
 122970291.798 7  95821052.89444  23400472.242                    23400482.992
 117382419.239 6  91466893.975 6  22337129.117                    22337142.906
 117337984.329 7  91432178.49744  22328661.695                    22328672.793
 120230760.301 7  93686388.856 7  22879152.086                    22879162.051
 125180288.321 7  97543108.85743  23821040.719                    23821053.223
 116681824.581 8  90920926.28445  22203808.195                    22203815.313
 113152776.773 8  88171076.58446  21532263.891                    21532271.699
 125218511.101 6  97572898.10043  23828300.914                    23828308.535
 11  8 23 18 25  0.0000000  0 10G08G07G26G01G24G17G13G28G11G19
 107307718.003 8  83616469.60146  20419981.320                    20419988.965
 106918490.425 7  83313109.257 7  20345910.461                    20345917.785
 122911092.649 7  95774923.71944  23389207.289                    23389217.605
 117331830.688 6  91427474.383 6  22327503.234                    22327516.805
 117294510.324 7  91398302.70544  22320388.367                    22320399.969
 120144914.135 7  93619495.832 7  22862816.266                    22862826.047
 125291202.345 6  97629535.08743  23842147.758                    23842159.598
 116656918.224 8  90901518.75545  22199068.789                    22199075.852
 113149547.074 8  88168559.93746  21531649.688                    21531657.418
 125321972.819 6  97653517.54944  23847988.133                    23847996.457
 11  8 23 18 25 30.0000000  0 10G08G07G26G01G24G17G13G28G11G19
 107264278.226 8  83582620.42546  20411714.719                    20411722.723
 106932346.653 7  83323906.290 7  20348547.109                    20348554.789
 122852421.451 7  95729205.94144  23378042.523                    23378052.855
 117281635.689 6  91388361.425 6  22317950.320                    22317963.742
 117251447.779 7  91364747.53344  22312194.477                    22312204.523
 120059348.336 7  93552821.292 7  22846533.617                    22846543.496
 125402129.879 6  97715971.81543  23863255.813                    23863268.066
 116632062.410 8  90882150.60745  22194338.719                    22194345.559
 113146886.607 8  88166486.85246  21531143.031                    21531151.055
 125425549.167 6  97734226.34144  23867698.320                    23867706.445
 11  8 23 18 26  0.0000000  0 10G08G07G26G01G24G17G13G28G11G19
 107221205.721 8  83549057.43246  20403518.273                    20403526.145
 106946672.903 7  83335069.562 7  20351273.523                    20351280.797
 122794279.977 7  95683900.89844  23366978.891                    23366988.582
 117231836.863 6  91349557.157 6  22308473.797                    22308487.074
 117208798.975 7  91331514.75044  22304078.570                    22304089.234
 119974064.365 7  93486366.315 7  22830304.438                    22830314.027
 125513067.972 6  97802416.80143  23884367.953                    23884379.023
 116607256.330 8  90862821.20045  22189618.164                    22189625.727
 113144796.206 7  88164857.96746  21530745.086                    21530753.406
 125529237.396 6  97815022.27144  23887429.953                    23887437.559
 11  8 23 18 26 30.0000000  0 10G08G07G26G01G24G17G13G28G11G19
 107178503.237 8  83515782.75946  20395392.297                    20395399.961
 106961469.980 7  83346599.727 7  20354089.391                    20354096.637
 122736670.138 7  95639010.15244  23356015.336                    23356025.219
 117182436.670 6  91311063.526 6  22299073.359                    22299086.031
 117166566.644 7  91298606.48344  22296042.391                    22296052.508
 119889063.538 7  93420131.970 7  22814129.477                    22814139.426
 125624013.741 6  97888867.77143  23905479.422                    23905492.160
 116582499.346 7  90843530.06945  22184907.539                    22184914.699
 113143276.456 8  88163673.75546  21530455.844                    21530464.180
 125633035.036 6  97895903.47044  23907182.023                    23907189.895
 11  8 23 18 27  0.0000000  0 10G08G07G26G01G24G17G13G28G11G19
 107136173.615 8  83482798.62646  20387337.617                    20387345.523
 106976739.010 7  83358497.635 7  20356994.734                    20357002.590
 122679593.830 6  95594535.15443  23345153.852                    23345163.523
 117133437.557 6  91272882.424 6  22289749.609                    22289762.328
 117124753.303 7  91266024.71144  22288084.922                    22288096.207
 119804347.441 7  93354119.500 7  22798008.281                    22798018.539
 125734964.573 6  97975322.66043  23926592.242                    23926605.160
 116557790.887 8  90824276.74445  22180205.516                    22180212.703
 113142328.098 8  88162934.77046  21530275.727                    21530283.980
 125736939.674 6  97976868.05544  23926954.703                    23926961.766
 11  8 23 18 27 30.0000000  0 10G08G07G26G01G24G17G13G28G11G19
 107094219.091 8  83450106.78146  20379353.492                    20379361.609
 106992480.831 7  83370763.975 7  20359990.336                    20359997.953
 122623052.820 6  95550477.24843  23334394.828                    23334403.934
 117084842.574 7  91235016.239 6  22280502.578                    22280514.734
 117083361.284 7  91233771.23845  22280208.383                    22280219.645
 119719918.059 7  93288330.430 7  22781941.836                    22781951.625
 125845917.572 6  98061779.23043  23947706.438                    23947719.406
 116533130.425 7  90805060.81145  22175512.688                    22175519.809
 113141951.859 8  88162641.59346  21530204.031                    21530212.348
 125840948.817 6  98057914.04344  23946746.414                    23946754.789
 11  8 23 18 28  0.0000000  0 10G08G07G26G01G24G17G13G28G11G19
 107052641.862 8  83417708.92546  20371441.734                    20371449.660
 107008695.969 7  83383399.124 7  20363076.234                    20363083.980
 122567048.781 6  95506837.77343  23323737.195                    23323746.445
 117036654.088 7  91197466.814 6  22271332.227                    22271344.473
 117042393.058 7  91201848.00545  22272412.578                    22272423.109
 119635776.446 7  93222765.624 7  22765930.016                    22765940.414
 125956869.771 6  98148235.16043  23968820.625                    23968833.238
 116508516.783 7  90785881.36245  22170828.844                    22170836.234
 113142148.120 8  88162794.53846  21530241.383                    21530249.867
 125945059.625 6  98139039.29444  23966558.250                    23966566.410
 11  8 23 18 28 30.0000000  0 10G08G07G26G01G24G17G13G28G11G19
 107011444.833 8  83385607.32846  20363602.273                    20363609.809
 107025385.452 7  83396403.883 7  20366252.336                    20366259.621
 122511583.816 6  95463618.35443  23313182.359                    23313192.262
 116988874.681 7  91160236.151 6  22262239.789                    22262251.484
 117001851.287 7  91170257.05645  22264697.852                    22264708.641
 119551924.112 7  93157426.226 7  22749973.109                    22749983.074
 126067818.475 6  98234688.40543  23989933.883                    23989946.574
 116483950.048 8  90766738.46145  22166153.969                    22166161.742
 113142917.595 8  88163394.12446  21530387.398                    21530396.035
 126049269.740 6  98220241.90643  23986388.664                    23986396.930
 11  8 23 18 29  0.0000000  0 10G08G07G26G01G24G17G13G28G11G19
 106970630.702 8  83353804.09146  20355835.680                    20355843.332
 107042550.145 7  83409778.935 7  20369518.250                    20369526.250
 122456659.481 6  95420820.20143  23302730.438                    23302740.313
 116941507.266 7  91123326.532 6  22253225.852                    22253237.523
 116961738.466 7  91139000.36245  22257064.367                    22257075.398
 119468362.769 7  93092313.560 7  22734071.648                    22734082.363
 126178760.791 6  98321136.64443  24011045.875                    24011057.977
 116459429.088 8  90747631.23045  22161487.602                    22161494.965
 113144261.001 8  88164440.93946  21530643.438                    21530651.770
 126153576.992 6  98301520.23843  24006238.008                    24006246.055
 11  8 23 18 29 30.0000000  0 10G08G07G26G01G24G17G13G28G11G19
 106930201.574 8  83322300.85646  20348142.102                    20348150.227
 107060190.655 7  83423524.746 7  20372875.398                    20372882.801
 122402277.574 6  95378444.73544  23292381.820                    23292392.309
 116894553.797 7  91086739.477 6  22244291.188                    22244302.684
 116922056.522 7  91108079.41345  22249513.219                    22249524.191
 119385093.341 7  93027428.365 7  22718226.711                    22718236.602
 126289693.713 6  98407577.61543  24032156.047                    24032168.355
 116434953.772 7  90728559.56345  22156830.102                    22156837.734
 113146178.736 7  88165935.28446  21531008.164                    21531016.465
 126257978.822 6  98382872.23143  24026105.656                    24026113.441
 11  8 23 18 30  0.0000000  0 10G08G07G26G01G24G17G13G28G11G19
 106890160.069 8  83291099.67546  20340522.547                    20340529.836
 107078307.942 7  83437642.081 7  20376323.070                    20376330.754
 122348439.736 6  95336493.19943  23282136.836                    23282147.313
 116848017.348 7  91050477.371 6  22235435.344                    22235448.223
 116882807.985 7  91077496.19745  22242044.672                    22242054.992
 119302117.598 7  92962772.019 7  22702436.844                    22702446.621
 126400614.662 6  98494009.19543  24053263.656                    24053277.301
 116410523.298 7  90709522.83745  22152181.070                    22152188.613
 113148671.259 8  88167877.52145  21531482.328                    21531490.430
 126362472.722 6  98464295.98843  24045989.984                    24045997.262
 11  8 23 18 30 30.0000000  0 10G08G07G26G01G24G17G13G28G11G19
 106850508.527 8  83260202.35446  20332976.977                    20332984.754
 107096902.497 7  83452131.314 7  20379861.398                    20379869.027
 122295147.698 6  95294966.97244  23271996.539                    23272005.977
 116801899.575 7  91014541.519 6  22226659.750                    22226671.699
 116843995.407 7  91047252.68445  22234658.641                    22234669.355
 119219436.957 7  92898345.616 7  22686703.359                    22686713.434
 126511520.577 6  98580429.13043  24074367.477                    24074381.148
 116386136.920 7  90690520.47345  22147540.984                    22147547.977
 113151739.057 7  88170268.02545  21532066.445                    21532074.313
 126467055.963 6  98545789.34943  24065891.078                    24065898.820
 11  8 23 18 31  0.0000000  0 10G08G07G26G01G24G17G13G28G11G19
 106811248.732 8  83229610.29246  20325506.328                    20325513.996
 107115974.875 7  83466992.876 7  20383491.039                    20383498.645
 122242402.805 6  95253867.09843  23261958.781                    23261968.742
 116756203.069 7  90978933.903 6  22217963.438                    22217975.836
 116805620.927 7  91017350.55145  22227355.727                    22227366.563
 119137052.496 7  92834150.005 7  22671025.867                    22671035.742
 126622408.547 6  98666835.03642  24095468.992                    24095482.680
 116361793.948 7  90671551.92645  22142908.539                    22142915.578
 113155382.496 7  88173107.08645  21532759.602                    21532767.887
 126571725.975 6  98627350.32343  24085809.891                    24085817.086
 11  8 23 18 31 30.0000000  0 10G08G07G26G01G24G17G13G28G11G19
 106772383.553 8  83199325.73246  20318110.391                    20318118.344
 107135526.410 7  83482227.810 7  20387211.445                    20387218.512
 122190206.998 7  95213195.06644  23252025.891                    23252036.570
 116710930.673 7  90943656.758 6  22209348.547                    22209360.613
 116767687.080 7  90987791.77645  22220137.164                    22220147.637
 119054965.974 7  92770186.544 7  22655405.070                    22655415.492
 126733275.865 6  98753224.90042  24116566.469                    24116580.035
 116337494.122 7  90652617.00945  22138284.203                    22138291.699
 113159602.232 8  88176395.21445  21533562.594                    21533570.645
 126676480.708 6  98708977.29544  24105743.625                    24105751.855
 11  8 23 18 32  0.0000000  0 10G08G07G26G01G24G17G13G28G11G19
 106733915.741 8  83169350.80446  20310790.172                    20310798.348
 107155557.096 7  83497836.109 7  20391023.188                    20391030.668
 122138561.758 7  95172952.05144  23242198.680                    23242208.832
 116666084.866 7  90908712.017 6  22200815.320                    22200826.930
 116730196.151 7  90958578.12545  22213003.086                    22213013.215
 118973178.796 7  92706456.346 7  22639841.430                    22639851.543
 126844119.896 6  98839596.51842  24137660.125                    24137673.902
 116313236.594 8  90633715.04845  22133668.016                    22133675.570
 113164398.598 8  88180132.65445  21534475.391                    21534483.305
 126781317.190 6  98790667.99243  24125693.781                    24125701.652
 11  8 23 18 32 30.0000000  0 10G08G07G26G01G24G17G13G28G11G19
 106695847.639 8  83139687.34146  20303546.227                    20303553.980
 107176067.966 7  83513818.574 7  20394926.180                    20394933.961
 122087468.918 7  95133139.46744  23232476.602                    23232486.734
 116621667.862 7  90874101.408 6  22192362.438                    22192374.531
 116693150.412 7  90929711.37444  22205953.430                    22205963.520
 118891692.133 7  92642960.314 7  22624335.055                    22624344.766
 126954937.592 6  98925947.65743  24158748.055                    24158761.668
 116289020.805 7  90614845.61845  22129060.188                    22129067.508
 113169772.016 7  88184319.74245  21535498.242                    21535505.695
 126886233.547 6  98872420.93844  24145658.680                    24145666.359
 11  8 23 18 33  0.0000000  0 10G08G07G26G01G24G17G13G28G11G19
 106658181.428 8  83110337.04146  20296378.656                    20296386.090
 107197059.197 7  83530175.352 7  20398920.750                    20398927.887
 122036929.612 7  95093758.21144  23222859.180                    23222869.598
 116577681.885 7  90839826.671 6  22183992.102                    22184004.422
 116656552.060 7  90901193.22545  22198988.484                    22198999.109
 118810507.233 7  92579699.411 7  22608885.938                    22608895.508
 127065726.144 6  99012276.02143  24179830.656                    24179844.234
 116264846.111 8  90596008.20145  22124460.344                    22124467.535
 113175722.349 8  88188956.37545  21536630.297                    21536638.207
 126991227.009 6  98954233.96044  24165637.750                    24165645.977
 11  8 23 18 33 30.0000000  0 10G08G07G26G01G24G17G13G28G11G19
 106620919.836 8  83081302.03346  20289288.078                    20289295.758
 107218531.800 7  83546907.217 7  20403006.586                    20403014.125
 121986945.612 7  95054809.66644  23213347.406                    23213357.539
 116534129.936 7  90805890.130 6  22175704.563                    22175715.855
 116620403.486 7  90873025.55745  22192109.664                    22192121.008
 118729625.597 7  92516674.823 7  22593494.641                    22593504.547
 127176482.877 6  99098579.59643  24200907.289                    24200920.922
 116240712.006 8  90577202.42245  22119866.945                    22119874.387
 113182250.391 8  88194043.17245  21537872.563                    21537880.629
 127096295.341 6  99036105.31044  24185632.531                    24185640.090
 11  8 23 18 34  0.0000000  0 10G08G07G26G01G24G17G13G28G11G19
 106584064.614 8  83052583.67646  20282274.727                    20282282.047
 107240485.899 7  83564014.280 7  20407184.539                    20407192.582
 121937518.225 7  95016294.84044  23203941.328                    23203952.375
 116491013.297 7  90772292.789 6  22167500.125                    22167511.777
 116584706.646 7  90845209.86945  22185317.258                    22185328.016
 118649048.247 7  92453887.360 7  22578161.078                    22578170.797
 127287204.654 6  99184855.97843  24221978.289                    24221991.457
 116216617.768 7  90558427.69945  22115282.297                    22115289.480
 113189356.064 7  88199580.07245  21539224.578                    21539232.539
 127201435.836 6  99118032.87744  24205639.586                    24205647.574
 11  8 23 18 34 30.0000000  0 10G08G07G26G01G24G17G13G28G11G19
 106547618.170 8  83024183.84446  20275338.945                    20275346.855
 107262922.317 7  83581497.177 7  20411453.969                    20411461.824
 121888648.945 7  94978214.92444  23194642.141                    23194652.715
 116448334.783 7  90739036.840 6  22159378.469                    22159389.910
 116549463.878 7  90817748.00845  22178610.547                    22178621.109
 118568776.690 7  92391338.178 7  22562886.695                    22562895.926
 127397888.763 6  99271102.98343  24243040.383                    24243054.500
 116192562.875 7  90539683.63145  22110704.344                    22110711.945
 113197039.610 8  88205567.25445  21540686.852                    21540695.082
 127306646.084 6  99200014.81744  24225661.141                    24225668.410
 11  8 23 18 35  0.0000000  0 10G08G07G26G01G24G17G13G28G11G19
 106511583.193 8  82996104.63846  20268481.820                    20268489.133
 107285842.034 7  83599356.669 7  20415815.625                    20415823.234
 121840339.488 7  94940571.22844  23185448.844                    23185459.598
 116406097.684 7  90706124.852 6  22151340.492                    22151352.941
 116514677.596 7  90790641.83945  22171991.094                    22172001.539
 118488812.313 7  92329028.359 7  22547669.492                    22547679.496
 127508532.780 6  99357318.75643  24264095.789                    24264110.102
 116168546.902 7  90520969.89345  22106134.797                    22106142.004
 113205301.427 8  88212005.04545  21542258.719                    21542266.984
 127411924.030 6  99282049.51343  24245693.633                    24245702.398
 11  8 23 18 35 30.0000000  0 10G08G07G26G01G24G17G13G28G11G19
 106475962.007 8  82968347.86946  20261703.531                    20261710.805
 107309244.982 7  83617592.711 7  20420268.930                    20420276.918
 121792591.318 7  94903364.89544  23176362.813                    23176373.742
 116364303.163 7  90673557.725 6  22143387.883                    22143399.914
 116480349.642 7  90763892.82345  22165458.383                    22165469.426
 118409156.503 7  92266958.974 7  22532511.141                    22532521.164
 127619133.595 6  99443500.84443  24285142.328                    24285156.836
 116144569.307 7  90502286.06745  22101571.734                    22101579.191
 113214142.021 7  88218893.83145  21543941.289                    21543949.578
 127517267.004 6  99364134.86143  24265739.805                    24265748.301
 11  8 23 18 36  0.0000000  0 10G08G07G26G01G24G17G13G28G11G19
 106440757.254 8  82940915.59646  20255004.188                    20255012.078
 107333132.072 7  83636205.998 7  20424814.844                    20424822.602
 121745405.633 6  94866596.86444  23167383.398                    23167393.773
 116322953.879 7  90641337.538 7  22135518.797                    22135530.980
 116446482.709 7  90737503.04245  22159013.945                    22159024.859
 118329810.627 7  92205131.085 7  22517412.039                    22517421.926
 127729688.472 6  99529647.14443  24306180.328                    24306194.750
 116120629.639 7  90483631.79045  22097016.281                    22097023.457
 113223561.500 7  88226233.67745  21545733.742                    21545741.984
 127622672.942 6  99446269.28643  24285798.711                    24285806.551
 11  8 23 18 36 30.0000000  0 10G08G07G26G01G24G17G13G28G11G19
 106405970.872 8  82913809.32546  20248384.188                    20248391.848
 107357503.441 7  83655196.652 7  20429451.922                    20429460.242
 121698783.889 7  94830268.27843  23158511.523                    23158521.203
 116282052.569 7  90609466.405 7  22127735.328                    22127747.316
 116413079.029 7  90711474.24545  22152657.313                    22152667.914
 118250775.488 7  92143545.325 7  22502372.859                    22502381.777
 127840194.956 6  99615755.78943  24327209.539                    24327223.539
 116096727.029 8  90465006.38945  22092467.508                    22092475.332
 113233559.597 7  88234024.40245  21547636.539                    21547644.367
 127728138.983 6  99528450.54043  24305867.867                    24305875.844
 11  8 23 18 37  0.0000000  0 10G08G07G26G01G24G17G13G28G11G19
 106371605.483 8  82887031.10646  20241845.023                    20241852.461
 107382359.697 7  83674565.127 7  20434182.609                    20434190.242
 121652727.347 7  94794380.09544  23149747.422                    23149756.984
 116241600.906 7  90577945.654 7  22120037.938                    22120049.863
 116380140.264 7  90685807.71345  22146389.211                    22146399.934
 118172052.504 7  92082202.792 7  22487391.609                    22487401.215
 127950650.156 6  99701824.40043  24348229.141                    24348243.230
 116072861.274 8  90446409.70245  22087926.305                    22087933.602
 113244136.630 8  88242266.24345  21549649.133                    21549656.719
 127833663.143 6  99610677.07943  24325948.930                    24325956.691
 11  8 23 18 37 30.0000000  0 10G08G07G26G01G24G17G13G28G11G19
 106337663.217 8  82860582.58746  20235385.992                    20235393.648
 107407701.423 7  83694311.886 7  20439004.922                    20439012.500
 121607237.548 7  94758933.52244  23141091.172                    23141100.230
 116201601.343 7  90546777.185 7  22112426.227                    22112438.031
 116347668.625 7  90660505.16945  22140209.789                    22140220.617
 118093643.153 7  92021104.647 7  22472470.938                    22472480.449
 128061051.207 6  99787850.83042  24369236.867                    24369251.723
 116049031.650 8  90427841.17545  22083391.633                    22083399.008
 113255292.906 8  88250959.45045  21551772.250                    21551779.984
 127939242.854 6  99692946.91843  24346039.320                    24346047.652
 11  8 23 18 38  0.0000000  0 10G08G07G26G01G24G17G13G28G11G19
 106304146.779 8  82834465.89046  20229008.148                    20229015.719
 107433529.125 7  83714437.338 7  20443919.305                    20443927.289
 121562315.767 7  94723929.58744  23132542.477                    23132551.594
 116162056.084 7  90515962.731 7  22104901.789                    22104913.309
 116315666.295 7  90635568.33345  22134120.133                    22134130.445
 118015548.571 7  91960251.790 7  22457609.625                    22457619.117
 128171395.665 6  99873833.17342  24390235.906                    24390249.934
 116025237.593 8  90409300.36445  22078863.797                    22078870.848
 113267028.341 8  88260103.95445  21554005.391                    21554012.668
 128044876.059 6  99775258.41843  24366141.391                    24366149.613
 11  8 23 18 38 30.0000000  0 10G08G07G26G01G24G17G13G28G11G19
 106271058.276 8  82808682.64346  20222711.281                    20222719.020
 107459843.106 7  83734941.710 7  20448927.227                    20448934.574
 121517963.269 6  94689369.22643  23124102.875                    23124111.383
 116122967.548 7  90485504.159 7  22097462.867                    22097475.199
 116284135.336 7  90610998.79745  22128120.188                    22128130.563
 117937770.427 7  91899645.512 7  22442809.234                    22442818.504
 128281680.755 6  99959769.25642  24411222.836                    24411236.898
 116001478.942 8  90390787.13545  22074342.711                    22074350.078
 113279342.966 8  88269699.77245  21556348.766                    21556356.945
 128150559.870 6  99857609.36343  24386252.438                    24386260.551
 11  8 23 18 39  0.0000000  0 10G08G07G26G01G24G17G13G28G11G19
 106238400.423 8  82783234.97546  20216496.820                    20216504.570
 107486643.899 7  83755825.405 7  20454027.320                    20454035.262
 121474181.465 6  94655253.55643  23115770.094                    23115778.949
 116084337.929 7  90455403.185 7  22090111.594                    22090123.773
 116253077.963 7  90586798.29345  22122210.055                    22122220.234
 117860309.241 7  91839286.223 7  22428068.656                    22428078.223
 128391903.918 6 100045657.05542  24432197.430                    24432212.508
 115977755.208 8  90372301.11945  22069828.133                    22069835.383
 113292236.759 8  88279746.89645  21558802.359                    21558810.258
 128256292.737 6  99939998.54143  24406372.711                    24406380.391
 11  8 23 18 39 30.0000000  0 10G08G07G26G01G24G17G13G28G11G19
 106206175.253 8  82758124.45646  20210364.672                    20210372.645
 107513931.608 7  83777088.522 7  20459219.711                    20459227.422
 121430971.526 6  94621583.49743  23107548.875                    23107556.789
 116046169.458 7  90425661.546 7  22082848.281                    22082860.859
 116222496.306 7  90562968.46045  22116390.500                    22116400.723
 117783166.290 7  91779174.877 7  22413388.805                    22413398.309
 128502062.038 6 100131494.14142  24453160.164                    24453175.445
 115954065.649 8  90353841.73345  22065320.273                    22065327.223
 113305710.005 7  88290245.54345  21561365.797                    21561373.871
 128362072.039 6 100022423.91043  24426502.086                    24426509.953
 11  8 23 18 40  0.0000000  0 10G08G07G26G01G24G17G13G28G11G19
 106174384.581 8  82733352.50146  20204314.953                    20204322.691
 107541706.772 7  83798731.463 7  20464505.609                    20464512.934
 121388334.636 7  94588359.98943  23099434.648                    23099444.297
 116008464.078 7  90396280.775 7  22075673.438                    22075685.566
 116192392.003 7  90539510.60645  22110662.008                    22110672.078
 117706343.223 7  91719312.805 7  22398769.828                    22398779.766
 128612152.239 6 100217278.38242  24474110.609                    24474124.289
 115930409.904 8  90335408.69145  22060818.453                    22060826.145
 113319762.490 7  88301195.54145  21564040.047                    21564047.969
 128467895.280 6 100104883.53143  24446639.664                    24446647.281
 11  8 23 18 40 30.0000000  0 10G08G07G26G01G24G17G13G28G11G19
 106143030.887 8  82708921.04746  20198348.695                    20198356.473
 107569969.668 7  83820754.461 7  20469883.516                    20469891.137
 121346271.835 7  94555583.80443  23091430.250                    23091440.520
 115971223.838 7  90367262.452 7  22068586.898                    22068598.824
 116162767.036 7  90516426.26545  22105023.773                    22105034.324
 117629840.885 7  91659700.643 7  22384212.133                    22384221.691
 128722172.120 6 100303007.78042  24495046.656                    24495060.871
 115906787.257 8  90317001.44245  22056323.203                    22056330.586
 113334394.041 7  88312596.76245  21566824.305                    21566832.102
 128573760.198 6 100187375.57844  24466785.219                    24466793.211
 11  8 23 18 41  0.0000000  0 10G08G07G26G01G24G17G13G28G11G19
 106112116.487 8  82684831.89846  20192465.859                    20192473.840
 107598720.686 7  83843157.818 7  20475354.883                    20475362.008
 121304784.392 7  94523255.96743  23083535.914                    23083545.762
 115934451.320 7  90338608.601 7  22061589.180                    22061600.922
 116133623.825 7  90493717.31445  22099478.359                    22099488.684
 117553660.527 7  91600339.367 7  22369714.969                    22369724.988
 128832118.928 6 100388680.27442  24515969.445                    24515983.977
 115883197.395 8  90298619.73445  22051834.172                    22051841.637
 113349604.463 7  88324449.05545  21569718.852                    21569726.684
 128679664.517 6 100269898.36443  24486938.148                    24486945.766
 11  8 23 18 41 30.0000000  0 10G08G07G26G01G24G17G13G28G11G19
 106081643.859 8  82661086.98046  20186667.180                    20186674.625
 107627960.267 7  83865941.873 7  20480919.172                    20480926.398
 121263873.651 7  94491377.46944  23075750.969                    23075760.438
 115898148.624 7  90310320.835 7  22054680.508                    22054692.656
 116104964.181 7  90471385.16345  22094024.570                    22094034.789
 117477803.123 7  91541229.733 7  22355279.531                    22355289.414
 128941990.178 6 100474293.74142  24536876.789                    24536892.164
 115859639.898 8  90280263.25645  22047351.711                    22047358.969
 113365394.020 7  88336752.62545  21572723.391                    21572731.109
 128785606.207 6 100352450.23443  24507097.672                    24507105.676
 11  8 23 18 42  0.0000000  0 10G08G07G26G01G24G17G13G28G11G19
 106051614.732 8  82637687.64646  20180952.719                    20180960.625
 107657688.378 7  83889106.606 7  20486575.922                    20486583.891
 121223540.503 7  94459949.06343  23068074.781                    23068084.922
 115862317.549 7  90282400.568 7  22047862.586                    22047874.227
 116076789.779 7  90449431.13245  22088663.406                    22088673.316
 117402269.851 7  91482372.692 7  22340906.719                    22340915.879
 129051782.941 6 100559846.13242  24557770.633                    24557786.266
 115836114.346 8  90261931.66345  22042874.508                    22042881.984
 113381762.339 7  88349507.17145  21575838.352                    21575846.047
 128891582.767 6 100435029.29643  24527264.805                    24527273.188
 11  8 23 18 42 30.0000000  0 10G08G07G26G01G24G17G13G28G11G19
 106022032.370 8  82614636.44546  20175323.117                    20175331.133
 107687905.858 7  83912652.654 7  20492326.258                    20492334.410
 121183786.379 7  94428971.84143  23060510.547                    23060520.059
 115826960.878 7  90254849.979 7  22041134.406                    22041146.109
 116049103.133 7  90427857.16245  22083394.555                    22083405.203
 117327062.326 7  91423769.471 7  22326594.898                    22326604.469
 129161495.029 6 100645335.69043  24578647.875                    24578663.566
 115812620.634 8  90243624.88745  22038403.828                    22038411.434
 113398709.485 7  88362712.74645  21579063.133                    21579071.387
 128997592.022 6 100517633.83543  24547438.125                    24547446.453
 11  8 23 18 43  0.0000000  0 10G08G07G26G01G24G17G13G28G11G19
 105992898.431 8  82591934.65546  20169779.477                    20169787.242
 107718612.332 7  83936579.729 7  20498169.781                    20498177.207
 121144612.016 7  94398446.37544  23053055.594                    23053065.590
 115792079.799 7  90227669.967 7  22034496.703                    22034508.516
 116021905.680 7  90406664.37545  22078219.320                    22078229.250
 117252181.317 7  91365420.692 7  22312345.570                    22312354.996
 129271123.292 6 100730759.93243  24599509.688                    24599525.633
 115789157.935 7  90225342.26645  22033939.055                    22033946.680
 113416235.272 7  88376369.20745  21582398.039                    21582406.617
 129103631.735 6 100600262.09243  24567615.352                    24567624.961
 11  8 23 18 43 30.0000000  0 10G08G07G26G01G24G17G13G28G11G19
 105964214.823 7  82569583.77546  20164321.281                    20164328.988
 107749807.995 7  83960888.002 7  20504105.539                    20504114.004
 121106018.271 7  94368373.35844  23045711.359                    23045722.227
 115757676.334 7  90200862.125 7  22027949.766                    22027961.988
 115995199.406 7  90385854.33045  22073137.086                    22073147.258
 117177627.839 7  91307327.130 7  22298158.711                    22298167.984
 129380665.302 6 100816117.02342  24620355.828                    24620370.250
 115765725.652 7  90207083.36245  22029480.461                    22029487.727
 113434339.016 7  88390476.03645  21585843.047                    21585851.293
 129209699.451 5 100682912.15243  24587800.578                    24587809.406
 11  8 23 18 44  0.0000000  0 10G08G07G26G01G24G17G13G28G11G19
 105935983.950 7  82547585.66146  20158949.070                    20158956.906
 107781493.265 7  83985577.769 7  20510135.172                    20510143.070
 121068006.548 7  94338753.82044  23038477.969                    23038488.801
 115723752.803 7  90174428.251 7  22021494.047                    22021506.207
 115968985.957 7  90365428.29745  22068148.867                    22068159.316
 117103402.857 7  91249489.534 7  22284033.898                    22284043.566
 129490118.174 6 100901404.55842  24641183.008                    24641198.773
 115742323.515 7  90188847.93945  22025027.125                    22025034.152
 113453020.936 7  88405033.37345  21589397.984                    21589406.715
 129315793.168 6 100765582.46143  24607989.563                    24607998.035
 11  8 23 18 44 30.0000000  0 10G08G07G26G01G24G17G13G28G11G19
 105908208.148 7  82525942.16046  20153663.500                    20153671.414
 107813668.720 7  84010649.500 7  20516258.602                    20516266.148
 121030577.794 7  94309588.57244  23031355.969                    23031367.055
 115690311.294 7  90148369.987 7  22015130.477                    22015142.762
 115943267.584 7  90345388.02945  22063254.859                    22063264.836
 117029507.807 7  91191909.025 7  22269972.227                    22269981.418
 129599479.485 6 100986620.79442  24661995.266                    24662009.836
 115718951.158 8  90170635.72345  22020579.594                    22020586.625
 113472280.745 7  88420041.02145  21593063.344                    21593071.652
 129421910.456 6 100848271.16943  24628182.984                    24628191.582
 11  8 23 18 45  0.0000000  0  9G08G07G26G01G24G17G28G11G19
 105880890.919 7  82504655.98646  20148465.211                    20148472.887
 107846335.440 7  84036104.039 7  20522474.391                    20522482.352
 120993734.388 6  94280879.42844  23024344.656                    23024355.891
 115657355.067 7  90122689.844 7  22008858.813                    22008871.234
 115918047.523 7  90325736.06045  22058455.789                    22058466.172
 116955945.140 7  91134587.509 7  22255973.359                    22255983.090
 115695609.922 7  90152447.75845  22016137.539                    22016145.086
 113492119.461 7  88435499.75945  21596838.469                    21596846.484
 129528050.956 6 100930977.98243  24648381.555                    24648389.141
 11  8 23 18 45 30.0000000  0  9G08G07G26G01G24G17G28G11G19
 105854033.333 8  82483727.97646  20143353.867                    20143362.313
 107879492.415 7  84061940.598 7  20528783.969                    20528792.102
 120957475.894 7  94252626.06144  23017445.039                    23017455.645
 115624884.686 7  90097388.287 7  22002679.992                    22002692.621
 115893326.246 7  90306472.75545  22053751.102                    22053761.352
 116882714.399 7  91077524.643 7  22242037.922                    22242047.922
 115672297.892 8  90134282.54745  22011701.352                    22011708.785
 113512535.574 7  88451408.41645  21600723.578                    21600731.699
 129634211.001 6 101013700.02543  24668582.328                    24668590.578
 11  8 23 18 46  0.0000000  0  9G08G07G26G01G24G17G28G11G19
 105827637.009 7  82463159.39346  20138331.273                    20138339.094
 107913139.151 7  84088158.785 7  20535187.242                    20535195.383
 120921802.857 7  94224828.90744  23010657.477                    23010667.461
 115592901.681 7  90072466.495 7  21996593.938                    21996606.027
 115869104.952 7  90287599.03945  22049142.375                    22049152.402
 116809816.344 7  91020721.026 7  22228166.016                    22228175.633
 115649013.758 8  90116139.08445  22007271.102                    22007278.023
 113533528.224 7  88467766.30645  21604718.328                    21604726.270
 129740387.854 6 101096435.16343  24688788.172                    24688795.953
 11  8 23 18 46 30.0000000  0  9G08G07G26G01G24G17G28G11G19
 105801704.238 8  82442952.01446  20133396.609                    20133404.496
 107947276.404 7  84114759.195 7  20541682.813                    20541690.961
 120886716.386 7  94197488.80844  23003980.430                    23003989.930
 115561408.456 7  90047926.354 7  21990601.125                    21990613.418
 115845385.633 7  90269116.48245  22044628.219                    22044638.883
 116737252.095 8  90964177.499 7  22214357.516                    22214366.934
 115625757.981 8  90098017.70945  22002845.203                    22002852.934
 113555097.263 7  88484573.32945  21608822.797                    21608831.332
 129846579.542 6 101179181.89243  24708995.398                    24709003.102
 11  8 23 18 47  0.0000000  0  9G08G07G26G01G24G17G28G11G19
 105776237.187 8  82423107.54546  20128550.500                    20128557.938
 107981904.067 7  84141741.730 7  20548272.867                    20548280.391
 120852217.121 7  94170606.26944  22997415.078                    22997425.023
 115530406.664 7  90023769.159 7  21984701.664                    21984713.875
 115822170.202 7  90251026.56745  22040210.609                    22040220.641
 116665022.797 7  90907894.980 7  22200613.094                    22200622.395
 115602530.060 8  90079918.04445  21998425.055                    21998432.340
 113577242.418 7  88501829.29045  21613036.727                    21613045.141
 129952783.848 6 101261938.45943  24729205.016                    24729213.930
 11  8 23 18 47 30.0000000  0  9G08G07G26G01G24G17G28G11G19
 105751237.729 8  82403627.43147  20123793.211                    20123801.262
 108017021.809 7  84169106.164 7  20554955.344                    20554962.914
 120818305.959 7  94144182.00544  22990962.102                    22990971.344
 115499898.414 7  89999996.529 7  21978896.305                    21978907.836
 115799460.001 8  90233330.33845  22035889.000                    22035899.094
 116593129.260 7  90851874.091 7  22186932.234                    22186941.078
 115579329.245 8  90061839.50346  21994010.367                    21994017.762
 113599962.746 8  88519533.43345  21617360.188                    21617368.555
 130058998.557 6 101344703.12143  24749417.516                    24749425.988
 11  8 23 18 48  0.0000000  0  9G08G07G26G01G24G17G28G11G19
 105726708.176 8  82384513.48146  20119125.219                    20119133.211
 108052630.061 7  84196852.811 7  20561731.313                    20561739.254
 120784983.802 7  94118216.70944  22984620.852                    22984630.461
 115469885.502 8  89976609.867 7  21973184.727                    21973196.988
 115777256.891 8  90216029.25745  22031663.875                    22031673.879
 116521572.524 7  90796115.663 7  22173315.102                    22173324.188
 115556155.306 8  90043781.90645  21989600.414                    21989607.762
 113623258.056 7  88537685.61445  21621793.172                    21621801.281
 130165221.771 6 101427474.40743  24769630.258                    24769639.656
 11  8 23 18 48 30.0000000  0  9G08G07G26G01G24G17G28G11G19
 105702650.554 8  82365767.26847  20114547.328                    20114555.258
 108088728.900 7  84224981.743 7  20568600.531                    20568608.707
 120752251.404 7  94092710.96944  22978392.742                    22978401.836
 115440369.601 8  89953610.498 7  21967568.172                    21967579.965
 115755562.539 7  90199124.60945  22027535.273                    22027545.594
 116450353.728 7  90740620.542 7  22159762.125                    22159771.930
 115533008.290 8  90025745.28845  21985195.461                    21985202.742
 113647127.821 7  88556285.42945  21626335.445                    21626343.383
 130271451.134 6 101510250.47443  24789846.023                    24789854.703
 11  8 23 18 49  0.0000000  0  9G08G07G26G01G24G17G28G11G19
 105679067.461 8  82347390.80747  20110059.531                    20110067.566
 108125318.599 7  84253493.154 7  20575563.688                    20575571.160
 120720109.782 7  94067665.58244  22972275.805                    22972285.656
 115411353.070 7  89931000.240 7  21962046.227                    21962058.301
 115734378.827 7  90182617.88345  22023504.492                    22023514.141
 116379473.826 7  90685389.507 7  22146274.227                    22146283.477
 115509887.816 8  90007729.34545  21980795.750                    21980803.426
 113671572.215 7  88575333.01545  21630987.180                    21630994.801
 130377685.017 6 101593030.06243  24810061.727                    24810069.797
 11  8 23 18 49 30.0000000  0  8G08G07G26G01G24G17G28G11
 105655960.226 8  82329385.15747  20105662.344                    20105670.309
 108162398.315 7  84282386.388 7  20582619.492                    20582627.211
 120688559.194 7  94043080.74544  22966271.883                    22966282.563
 115382837.081 7  89908780.021 8  21956620.023                    21956632.352
 115713706.984 7  90166510.02145  22019570.984                    22019580.520
 116308933.533 7  90630423.095 7  22132851.211                    22132860.320
 115486793.126 7  89989733.49746  21976401.063                    21976408.113
 113696590.063 7  88594827.43745  21635748.320                    21635755.887
 11  8 23 18 50  0.0000000  0  8G08G07G26G01G24G17G28G11
 105633331.504 8  82311752.37047  20101356.313                    20101364.219
 108199968.512 7  84311661.842 7  20589768.922                    20589776.633
 120657600.852 7  94018957.39644  22960380.258                    22960390.820
 115354823.780 7  89886951.502 7  21951288.914                    21951301.504
 115693549.133 7  90150802.65745  22015734.430                    22015744.961
 116238734.113 7  90575722.299 7  22119491.945                    22119501.402
 115463724.021 7  89971757.57445  21972010.953                    21972018.641
 113722181.124 8  88614768.51745  21640617.680                    21640626.195
 11  8 23 18 50 30.0000000  0  8G08G07G26G01G24G17G28G11
 105611182.378 8  82294493.29347  20097141.414                    20097149.254
 108238028.684 7  84341319.066 7  20597011.547                    20597019.078
 120627234.655 7  93995295.45844  22954601.727                    22954612.000
 115327314.458 7  89865515.696 8  21946053.938                    21946066.172
 115673906.242 7  90135496.55345  22011996.563                    22012007.008
 116168875.805 8  90521287.294 7  22106199.164                    22106208.664
 115440680.068 7  89953801.26645  21967625.969                    21967633.594
 113748344.614 7  88635155.65145  21645596.391                    21645604.352
 11  8 23 18 51  0.0000000  0  8G08G07G26G01G24G17G28G11
 105589516.087 8  82277610.45547  20093018.578                    20093026.195
 108276579.461 7  84371358.586 7  20604347.727                    20604355.496
 120597462.176 7  93972096.14344  22948937.164                    22948946.410
 115300311.608 7  89844474.549 8  21940915.758                    21940927.609
 115654780.678 7  90120593.56345  22008356.922                    22008367.242
 116099360.369 8  90467119.472 7  22092970.789                    22092979.836
 115417661.720 8  89935864.90246  21963245.695                    21963252.871
 113775080.037 7  88655988.44345  21650684.320                    21650692.090
 11  8 23 18 51 30.0000000  0  8G08G07G26G01G24G17G28G11
 105568334.421 8  82261105.23847  20088987.898                    20088995.801
 108315620.749 7  84401780.316 6  20611776.953                    20611784.762
 120568283.635 7  93949359.63644  22943383.531                    22943393.766
 115273816.968 7  89823829.417 8  21935874.227                    21935885.969
 115636173.788 7  90106094.73445  22004816.031                    22004826.414
 116030188.650 7  90413219.474 7  22079807.320                    22079816.816
 115394668.305 8  89917947.95246  21958870.469                    21958877.547
 113802387.147 7  88677266.69745  21655880.313                    21655888.266
 11  8 23 18 52  0.0000000  0  8G08G07G26G01G24G17G28G11
 105547639.048 8  82244978.95547  20085049.539                    20085057.547
 108355152.277 7  84432584.050 6  20619299.867                    20619307.375
 120539699.659 7  93927086.41244  22937944.719                    22937953.816
 115247831.854 7  89803581.302 8  21930929.133                    21930941.031
 115618086.817 7  90092001.01245  22001374.313                    22001384.730
 115961361.270 8  90359587.792 7  22066710.023                    22066719.031
 115371699.440 7  89900050.15345  21954499.375                    21954506.730
 113830265.094 8  88698989.77345  21661185.852                    21661193.379
 11  8 23 18 52 30.0000000  0  8G08G07G26G01G24G17G28G11
 105527431.822 8  82229233.05047  20081204.141                    20081211.797
 108395173.741 7  84463769.554 7  20626915.742                    20626923.531
 120511710.865 7  93905276.93844  22932618.922                    22932628.105
 115222357.634 7  89783731.303 7  21926081.930                    21926093.723
 115600521.042 7  90078313.42545  21998031.656                    21998041.664
 115892879.093 8  90306225.095 7  22053677.945                    22053687.559
 115348754.753 7  89882171.17145  21950133.219                    21950140.453
 113858712.869 7  88721156.87145  21666598.648                    21666606.539
 11  8 23 18 53  0.0000000  0  8G08G07G26G01G24G17G28G11
 105507715.632 8  82213869.76347  20077452.492                    20077460.613
 108435685.584 7  84495337.177 7  20634624.992                    20634633.113
 120484318.045 6  93883931.86944  22927406.398                    22927415.656
 115197396.880 7  89764281.401 8  21921331.875                    21921343.734
 115583478.868 7  90065033.83945  21994788.594                    21994798.695
 115824743.516 7  90253132.484 7  22040712.453                    22040721.641
 115325834.716 7  89864311.40345  21945771.844                    21945778.984
 113887730.318 7  88743767.85745  21672121.000                    21672128.789
 11  8 23 18 53 30.0000000  0  8G08G07G26G01G24G17G28G11
 105488491.605 8  82198889.98147  20073794.461                    20073802.301
 108476686.990 7  84527286.275 7  20642426.977                    20642435.031
 120457521.275 6  93863051.28044  22922306.703                    22922316.902
 115172950.908 8  89745232.620 7  21916679.742                    21916691.574
 115566961.156 7  90052162.92545  21991645.438                    21991655.402
 115756954.717 8  90200310.089 7  22027812.906                    22027821.789
 115302938.364 7  89846470.10445  21941414.563                    21941421.973
 113917316.391 8  88766821.93845  21677750.953                    21677758.898
 11  8 23 18 54  0.0000000  0  8G08G07G26G01G24G17G28G11
 105469761.970 8  82184295.44747  20070230.625                    20070237.977
 108518177.913 7  84559616.816 7  20650322.852                    20650330.801
 120431321.332 7  93842635.76044  22917321.203                    22917331.293
 115149020.792 8  89726585.795 8  21912125.664                    21912137.664
 115550969.222 7  90039701.70545  21988602.484                    21988612.496
 115689513.595 8  90147758.604 7  22014979.086                    22014988.254
 115280065.592 8  89828647.16746  21937061.930                    21937069.512
 113947470.612 8  88790318.71945  21683489.047                    21683497.012
 11  8 23 18 54 30.0000000  0  8G08G07G26G01G24G17G28G11
 105451529.130 8  82170088.01746  20066760.789                    20066768.434
 108560158.477 7  84592328.887 7  20658311.266                    20658319.086
 120405718.837 7  93822685.76944  22912449.109                    22912459.715
 115125608.844 8  89708342.736 8  21907671.117                    21907682.461
 115535504.874 7  90027651.59645  21985659.695                    21985669.793
 115622421.609 8  90095479.177 7  22002211.719                    22002220.973
 115257216.375 8  89810842.58545  21932714.016                    21932721.246
 113978192.217 8  88814257.62545  21689335.227                    21689342.988
 11  8 23 18 55  0.0000000  0  8G08G07G26G01G24G17G28G11
 105433793.914 8  82156268.35846  20063385.688                    20063393.965
 108602627.695 7  84625421.747 7  20666392.719                    20666400.836
 120380713.376 6  93803201.00444  22907690.734                    22907701.453
 115102715.805 8  89690504.010 8  21903314.242                    21903326.328
 115520568.640 7  90016012.99945  21982817.953                    21982827.555
 115555679.011 8  90043472.004 7  21989510.953                    21989520.230
 115234389.600 8  89793055.49045  21928370.219                    21928377.676
 114009480.191 8  88838637.85645  21695289.297                    21695296.773
 11  8 23 18 55 30.0000000  0  8G08G07G26G01G24G17G28G11
 105416559.166 8  82142838.66546  20060105.781                    20060114.254
 108645586.047 7  84658895.727 7  20674567.445                    20674575.945
 120356306.202 7  93784182.41444  22903046.273                    22903056.336
 115080343.775 8  89673071.267 8  21899056.930                    21899069.094
 115506163.110 7  90004787.93845  21980076.070                    21980085.773
 115489286.786 8  89991737.851 7  21976877.219                    21976886.414
 115211586.240 8  89775286.64346  21924030.883                    21924038.051
 114041333.709 7  88863458.77645  21701350.797                    21701358.512
 11  8 23 18 56  0.0000000  0  8G08G07G26G01G24G17G28G11
 105399825.782 8  82129799.64646  20056921.695                    20056929.781
 108689032.635 7  84692750.161 7  20682835.125                    20682843.227
 120332497.307 7  93765630.03444  22898515.898                    22898525.383
 115058494.037 8  89656045.502 8  21894899.344                    21894910.699
 115492288.718 8  89993976.74445  21977435.563                    21977445.988
 115423244.951 8  89940276.727 7  21964309.703                    21964319.090
 115188804.996 8  89757535.02845  21919695.672                    21919702.500
 114073751.516 7  88888719.38945  21707519.234                    21707527.848
 11  8 23 18 56 30.0000000  0  8G08G07G26G01G24G17G28G11
 105383596.395 8  82117153.35446  20053833.617                    20053841.605
 108732967.507 7  84726985.078 7  20691196.156                    20691203.711
 120309287.067 7  93747544.12244  22894098.852                    22894108.215
 115037168.341 8  89639428.079 8  21890840.969                    21890853.207
 115478947.038 7  89983580.66545  21974897.141                    21974907.250
 115357555.311 7  89889090.022 7  21951809.242                    21951818.570
 115166046.625 8  89739801.23846  21915364.867                    21915372.375
 114106733.395 8  88914419.53945  21713795.836                    21713804.082
 11  8 23 18 57  0.0000000  0  8G08G07G26G01G24G17G28G11
 105367872.505 8  82104900.95346  20050841.313                    20050849.684
 108777390.425 7  84761600.289 7  20699649.258                    20699656.801
 120286675.837 7  93729924.97944  22889796.133                    22889805.063
 115016368.166 7  89623220.156 8  21886883.016                    21886895.059
 115466139.423 7  89973600.72445  21972459.336                    21972469.859
 115292218.187 7  89838178.021 7  21939375.664                    21939385.660
 115143310.433 7  89722084.72445  21911038.625                    21911045.664
 114140278.001 8  88940558.18745  21720179.148                    21720187.227
 11  8 23 18 57 30.0000000  0  8G08G07G26G01G24G17G28G11
 105352655.990 8  82093043.90746  20047945.563                    20047953.438
 108822301.138 7  84796595.595 6  20708195.273                    20708203.168
 120264663.807 7  93712772.75944  22885607.477                    22885616.836
 114996094.909 8  89607422.823 8  21883025.367                    21883037.047
 115453866.971 7  89964037.78345  21970124.023                    21970134.406
 115227234.159 8  89787541.160 7  21927010.055                    21927019.234
 115120596.001 8  89704385.16846  21906715.852                    21906722.895
 114174384.746 8  88967134.84445  21726669.813                    21726677.617
 11  8 23 18 58  0.0000000  0  8G08G07G26G01G24G17G28G11
 105337948.952 8  82081583.85546  20045147.047                    20045154.578
 108867699.041 7  84831970.520 6  20716834.477                    20716842.328
 120243251.354 7  93696087.71244  22881532.766                    22881541.746
 114976350.002 8  89592037.192 8  21879267.719                    21879279.664
 115442131.179 7  89954893.02845  21967890.789                    21967901.043
 115162604.106 8  89737180.118 7  21914711.102                    21914720.203
 115097903.562 8  89686702.74845  21902397.531                    21902405.281
 114209052.869 8  88994148.95945  21733266.844                    21733274.504
